GFSGL_700_spd_000.txt.gz
Wind_Speed
29 29 30 31 32 32 34 35 36 37 39 41 42 42 42 42 42 43 43 43 44 45 46 48 49 47 47 46 43 47 53 48 55 50 43 42 42 38 36 37 39 35 39
34 33 34 35 36 36 36 37 39 40 40 41 42 43 45 46 45 43 42 40 42 43 44 46 48 49 51 54 54 52 54 55 55 50 43 43 41 37 37 42 40 34 42
35 38 39 40 40 39 38 37 37 38 40 41 41 43 43 44 45 46 47 48 48 48 46 46 46 46 49 50 52 52 49 53 54 50 48 40 47 39 41 43 43 35 36
39 41 43 43 42 41 41 40 39 38 38 39 39 39 40 42 44 45 46 48 49 51 51 49 48 47 46 44 46 47 45 47 47 55 50 48 51 55 47 43 48 41 42
44 45 47 46 44 43 43 42 41 41 40 40 41 41 41 41 41 39 39 41 47 50 50 51 50 49 48 45 46 48 51 55 52 50 55 54 51 54 54 42 48 43 45
47 48 48 48 49 50 49 49 50 49 47 45 43 42 40 38 37 37 39 43 45 45 45 47 48 48 48 48 47 47 50 52 54 54 57 58 54 55 49 40 49 42 49
50 48 46 47 48 49 50 51 51 51 51 51 50 47 44 42 39 39 41 42 42 40 42 42 45 47 47 49 48 49 52 57 53 53 52 58 57 51 52 46 49 45 44
45 45 46 47 48 49 50 50 51 51 51 51 50 48 47 45 43 41 43 43 43 42 41 41 42 43 44 47 51 49 53 53 51 52 51 47 53 55 56 39 39 38 38
46 47 47 48 50 51 52 52 53 54 54 53 52 51 48 45 44 44 44 45 45 43 43 43 43 45 43 44 45 55 54 51 51 50 49 49 49 50 52 43 41 38 37
46 47 48 49 51 52 54 55 55 55 55 53 51 48 45 46 45 44 43 44 44 43 41 42 43 43 43 44 44 42 53 47 48 48 53 57 47 38 44 47 36 39 41
45 47 49 50 51 53 55 56 58 58 57 56 52 48 46 45 45 43 41 42 41 41 41 42 44 46 44 43 40 40 43 36 38 36 44 50 33 37 42 38 51 46 35
46 47 48 50 53 56 58 58 58 56 55 53 50 47 45 43 44 42 39 39 37 38 40 41 44 43 41 42 40 36 37 38 38 39 41 38 35 36 40 29 37 35 20
48 48 50 52 55 56 56 56 55 52 50 49 47 48 47 45 42 40 41 40 37 35 38 40 39 37 37 39 38 36 35 37 38 32 34 33 35 34 30 25 29 24 21
48 49 51 54 55 54 52 50 48 47 46 45 45 45 45 44 40 38 39 39 37 33 35 36 37 35 35 32 35 30 30 33 33 31 35 31 33 26 16 15 18 25 18
48 49 52 54 54 53 50 48 46 43 42 44 43 43 43 41 34 33 36 37 36 34 37 37 36 36 35 33 28 28 31 27 30 33 32 27 31 19 17 11 15 15 12
49 51 53 54 52 49 48 46 40 40 39 38 38 37 38 35 31 30 31 33 29 32 36 36 35 36 36 37 31 29 26 22 24 29 30 33 28 26 20 19 15 10 10
51 52 54 53 51 49 47 46 46 40 37 36 35 34 34 34 30 28 27 29 26 27 33 32 35 36 34 34 34 30 25 23 25 29 19 29 21 25 17 14 9 8 11
52 53 53 53 51 48 46 44 43 44 44 39 35 35 34 30 29 27 26 26 23 23 29 30 33 33 32 31 31 24 20 22 24 20 23 17 17 18 9 6 5 7 7
52 52 52 50 48 45 43 42 41 41 41 41 39 35 33 31 26 25 24 25 22 21 26 26 29 32 32 32 28 21 18 19 17 10 10 10 14 11 7 2 4 4 5
51 51 50 47 44 41 41 41 41 41 41 41 39 38 36 32 27 24 21 21 18 19 23 24 26 27 31 32 26 20 15 11 16 9 5 11 13 10 4 1 2 4 3
51 50 47 44 42 41 41 41 42 43 42 40 39 38 34 32 28 26 23 22 17 18 20 22 24 25 28 30 26 21 14 7 6 11 16 17 14 7 5 4 5 4 5
51 48 45 43 41 41 42 42 43 43 42 40 38 36 32 28 25 25 22 22 18 17 19 21 22 23 25 29 23 18 10 4 14 22 22 18 11 8 8 8 7 7 7
49 45 42 41 41 42 43 43 42 41 40 38 36 35 32 26 23 23 21 20 18 17 16 18 19 20 21 25 19 13 8 12 24 28 22 13 11 12 11 11 10 9 9
45 41 41 42 43 45 44 42 40 38 38 37 35 33 30 24 21 21 19 18 17 16 14 15 17 18 20 22 15 9 4 26 30 25 18 14 15 14 14 13 12 10 8
41 40 42 44 44 44 43 42 41 39 38 36 34 31 27 22 19 19 17 17 17 16 12 13 14 16 17 18 10 4 21 30 29 22 18 19 18 17 17 15 12 9 10
40 41 43 43 43 43 43 42 41 40 37 33 31 28 24 20 17 17 15 16 15 14 10 11 12 14 15 13 6 6 28 30 27 23 22 21 20 19 18 14 11 11 12

GFSGL_700_spd_003.txt.gz
Wind_Speed
28 30 32 32 33 35 36 38 38 38 39 40 41 43 44 44 45 46 45 46 48 49 48 48 49 47 48 48 48 49 52 52 57 61 59 58 56 54 47 41 34 34 35
33 34 35 36 37 39 39 39 40 41 41 41 40 41 42 43 43 43 43 43 45 47 49 51 51 51 50 50 49 50 53 54 54 58 57 54 55 50 46 44 40 35 36
36 36 38 41 43 44 45 45 44 43 42 39 38 39 40 40 41 41 42 43 43 44 46 48 49 48 48 48 49 50 49 49 52 54 57 54 52 54 50 49 44 43 44
42 43 45 47 46 46 44 43 43 43 43 42 41 39 37 36 36 38 40 42 44 46 47 47 46 44 45 46 47 48 49 50 50 52 54 54 55 57 56 54 50 50 48
46 47 50 50 49 47 46 45 44 44 43 42 41 40 39 37 36 35 35 39 41 43 44 45 43 43 44 44 44 45 47 50 51 51 53 53 52 58 64 54 46 53 56
51 52 48 45 44 43 42 42 43 42 43 43 43 44 44 43 41 37 36 41 42 43 42 43 42 41 41 42 44 43 45 47 50 52 52 54 54 60 48 43 53 66 60
51 46 44 42 42 41 41 42 43 44 46 46 46 47 47 46 42 38 36 40 43 41 40 40 40 40 40 41 42 44 46 47 49 51 55 54 53 50 52 53 60 55 46
44 43 41 40 40 42 43 45 46 48 48 49 50 49 48 46 39 34 34 40 43 43 41 39 40 40 40 42 42 43 43 46 49 49 51 54 53 52 48 54 56 48 53
41 39 39 40 42 44 46 47 49 51 51 52 53 52 50 46 37 38 38 41 43 43 41 39 40 41 40 41 43 44 45 45 44 47 46 49 46 49 50 51 56 55 52
37 37 39 42 44 46 48 49 50 52 53 55 55 52 49 46 43 43 40 41 43 44 43 39 39 40 40 39 41 44 46 42 42 42 42 43 39 40 45 39 46 51 44
36 38 41 43 45 46 47 49 52 54 55 55 55 53 50 45 44 40 37 40 41 44 45 43 40 38 39 39 37 39 41 43 43 40 39 37 36 37 31 35 45 42 35
38 40 43 45 46 47 49 51 53 54 55 55 53 52 49 46 41 39 37 35 36 40 42 41 38 37 38 38 36 34 39 41 41 39 39 37 35 38 38 37 38 38 34
41 44 46 48 48 49 51 52 54 54 53 52 50 49 47 44 40 36 34 34 35 37 37 36 33 35 37 35 33 32 33 36 38 37 38 37 35 36 34 29 29 29 26
46 48 49 50 50 50 51 53 54 53 50 48 46 46 45 41 37 33 33 34 34 33 33 30 29 30 32 33 32 31 30 32 32 35 39 38 33 30 20 21 17 13 19
48 49 49 49 50 50 50 52 52 48 44 44 42 42 42 39 35 32 32 35 35 35 32 29 28 29 30 31 30 31 28 33 30 30 35 31 32 26 20 16 11 12 11
48 48 49 50 51 52 53 53 48 43 39 37 36 37 37 35 33 31 32 32 33 32 30 29 29 27 29 31 31 32 29 31 26 26 26 26 26 24 16 12 11 11 13
49 49 49 50 50 51 51 50 49 41 34 34 34 33 34 34 31 30 31 31 30 29 27 28 28 25 26 28 30 34 32 27 23 21 21 17 16 12 8 7 11 13 7
48 47 48 48 50 51 50 47 43 41 41 37 32 34 34 33 30 29 30 29 29 25 25 27 26 23 23 27 28 33 30 25 19 14 11 13 6 7 14 15 14 9 8
48 48 48 50 51 49 45 41 39 38 38 39 38 35 35 33 29 26 27 28 27 24 24 26 22 21 21 24 26 31 28 26 17 10 6 5 19 21 20 14 10 9 7
48 48 49 50 49 46 41 38 37 38 39 40 39 38 37 34 29 25 26 26 24 23 23 25 21 18 20 22 25 29 27 25 17 7 12 21 22 20 15 11 10 8 6
49 49 49 48 45 41 38 37 37 39 41 41 40 37 34 33 30 25 26 24 23 23 23 23 19 16 18 20 24 27 26 24 13 11 23 26 21 16 15 13 11 9 7
50 49 48 45 42 38 37 37 39 40 39 39 39 37 34 31 28 24 23 21 21 22 23 22 18 16 17 20 24 26 24 19 1 20 27 22 17 18 16 14 12 9 8
49 47 45 41 37 36 38 39 40 40 39 38 38 36 33 31 26 23 22 19 19 20 20 19 16 13 15 18 22 23 20 5 17 25 24 21 21 19 17 15 12 11 10
46 42 39 38 38 39 40 40 40 39 38 37 36 33 30 28 25 21 20 17 18 19 17 16 14 13 15 17 20 17 10 11 24 24 25 24 22 20 18 14 13 12 12
41 38 37 38 40 41 41 40 39 39 37 35 32 29 26 25 22 19 18 16 17 16 14 15 13 11 13 16 15 10 11 23 22 25 26 26 23 20 17 15 14 14 14
37 38 39 40 40 40 40 39 38 37 34 31 27 25 24 23 18 16 15 15 15 12 12 13 10 10 12 14 8 9 20 21 25 27 28 27 23 19 17 15 16 16 17

GFSGL_700_spd_006.txt.gz
Wind_Speed
31 32 33 35 36 37 40 43 44 45 45 45 45 45 44 44 44 46 48 49 48 49 48 48 48 49 50 52 53 55 57 56 59 64 60 57 56 56 55 52 52 52 52
34 35 37 40 42 43 45 47 48 48 46 45 45 44 43 43 43 44 45 46 48 49 49 50 50 50 49 47 47 50 52 53 55 60 60 61 59 57 55 54 52 51 51
36 41 44 46 48 49 49 47 46 45 44 44 44 44 44 43 43 41 42 43 44 46 47 49 50 52 51 50 49 49 49 49 49 52 57 57 59 58 59 59 56 55 53
42 45 48 52 52 50 48 47 45 44 43 43 42 42 42 41 42 42 42 44 44 45 46 49 51 52 54 54 53 52 51 50 50 47 48 52 54 54 57 59 59 56 53
45 48 53 56 53 49 47 45 43 41 41 41 42 41 42 42 43 43 43 43 44 45 46 49 51 51 52 52 53 54 53 53 53 51 52 49 45 49 53 55 54 52 54
50 53 55 49 45 42 41 40 40 41 42 43 44 44 44 44 43 41 42 47 48 49 50 50 48 48 49 50 50 50 49 52 53 52 52 53 55 57 56 54 55 54 55
51 49 44 43 41 40 41 42 43 45 46 47 48 49 49 48 46 45 47 48 48 49 50 51 50 47 47 48 49 49 48 48 48 50 52 52 54 54 52 50 51 52 53
44 42 41 40 39 40 42 44 46 48 49 50 51 51 52 51 49 48 45 45 47 49 51 49 50 53 47 46 48 49 47 46 44 46 47 50 49 51 50 49 48 53 49
41 38 37 37 38 41 44 46 48 51 52 53 53 53 53 53 51 48 44 46 47 47 49 49 51 51 48 44 47 49 49 44 42 43 44 44 45 44 44 45 46 48 46
38 36 36 38 41 44 49 51 52 53 54 54 54 53 53 53 51 48 45 45 46 46 45 44 46 47 45 43 43 46 47 42 42 41 39 41 42 42 42 40 43 43 50
36 36 38 41 45 49 52 53 54 55 56 55 55 53 53 52 50 45 42 41 41 44 46 47 47 42 40 39 38 39 41 39 39 39 41 42 42 42 38 38 42 42 50
37 38 42 46 50 52 54 54 53 53 54 54 54 54 52 50 46 42 39 37 39 43 44 46 44 39 36 35 35 34 36 36 37 38 36 39 39 37 32 34 40 39 40
39 42 46 50 52 52 53 53 52 52 53 54 54 53 51 47 42 37 36 36 38 41 41 42 41 36 33 33 31 30 32 34 36 35 34 36 35 35 37 35 34 33 32
44 47 50 52 53 52 51 51 52 52 53 53 52 49 47 44 40 37 38 37 39 39 40 39 38 34 32 29 27 28 30 32 34 34 35 35 32 32 31 29 25 18 12
47 50 51 52 52 51 50 50 50 50 52 50 46 44 44 43 40 38 38 39 38 40 41 38 37 32 31 27 25 27 29 30 33 32 32 28 28 26 21 17 11 1 2
48 50 51 51 50 50 50 50 48 50 48 43 38 38 39 39 40 38 37 36 38 38 38 37 36 33 31 27 26 28 29 31 34 31 28 25 26 21 17 11 10 4 6
51 51 50 49 49 50 51 53 55 50 43 37 34 36 37 38 39 37 35 36 36 37 36 36 35 32 29 26 26 29 31 33 34 31 28 25 23 18 13 13 14 10 11
51 50 50 50 50 51 51 52 50 48 45 38 33 36 38 38 37 35 34 37 34 31 33 32 32 29 27 26 26 29 30 35 32 29 25 22 19 12 13 17 15 14 11
50 50 50 51 51 50 50 48 46 42 39 38 39 37 38 37 36 35 34 34 33 30 30 28 29 26 26 25 27 28 31 35 31 26 19 13 7 17 19 19 15 11 10
50 51 50 50 50 49 47 44 40 39 39 39 39 42 42 40 39 36 33 33 31 29 28 28 26 24 25 26 26 28 32 32 27 19 7 9 16 19 19 17 17 14 10
51 50 50 49 47 45 42 39 38 38 40 41 40 39 39 39 39 37 33 31 29 27 27 26 24 23 24 25 25 27 32 29 21 8 9 15 17 19 21 17 15 13 9
50 49 48 46 43 39 37 36 38 39 40 41 40 39 37 37 37 35 31 28 25 24 24 24 22 23 24 25 25 29 29 22 8 9 15 17 22 20 17 16 14 10 8
48 46 43 40 38 37 37 37 39 40 40 40 40 39 37 35 33 32 29 25 23 20 20 21 21 21 21 21 24 28 24 8 9 16 19 24 20 19 17 14 13 11 8
43 41 40 39 38 39 39 40 39 38 38 38 37 35 33 32 30 29 26 22 20 18 18 19 20 20 19 19 24 22 8 10 17 20 24 22 21 18 15 15 13 10 12
42 40 39 40 40 40 39 39 39 38 37 36 34 32 30 30 28 26 22 19 17 15 15 17 18 17 16 19 21 10 12 17 21 23 21 21 20 17 16 14 14 18 19
40 40 41 41 41 41 41 40 38 36 35 32 31 29 29 28 25 24 20 17 14 12 14 15 14 14 14 19 11 11 17 22 23 21 21 20 20 17 16 17 21 21 21

GFSGL_700_spd_009.txt.gz
Wind_Speed
32 32 33 35 39 44 45 47 49 48 48 47 47 47 47 47 48 48 49 50 51 51 52 53 53 52 53 53 54 54 54 55 58 60 59 59 60 60 60 58 54 54 52
34 36 38 40 43 45 49 53 51 48 47 47 46 46 46 46 46 47 47 48 49 49 49 50 50 52 53 54 55 55 55 54 55 58 56 56 57 56 55 57 54 52 52
36 38 41 45 48 51 54 52 49 48 46 44 45 45 45 46 46 47 47 48 48 49 49 49 50 51 52 54 56 57 59 60 60 57 59 60 56 55 56 54 51 49 51
41 43 48 50 57 55 52 50 48 45 45 44 44 45 45 46 46 47 48 48 48 48 48 49 49 51 53 54 57 58 60 62 62 61 59 60 59 57 55 54 54 48 42
44 47 51 60 51 47 47 46 44 43 44 45 45 46 47 48 48 49 49 50 50 49 49 49 50 50 52 54 57 58 59 60 61 61 60 59 59 58 55 54 53 54 57
47 50 60 50 46 46 44 42 43 43 44 46 49 51 53 53 51 50 50 52 53 52 52 51 51 51 52 52 54 56 56 56 59 59 59 58 57 54 53 54 54 55 57
52 58 49 46 45 43 42 43 44 46 49 52 53 55 56 55 54 55 54 55 55 55 54 53 53 53 54 55 55 55 56 55 54 56 57 56 56 51 51 52 50 51 54
55 48 46 45 43 42 43 44 47 50 54 57 58 58 58 56 55 55 55 55 55 54 52 51 51 52 52 53 53 55 55 49 48 51 52 52 52 50 48 49 49 50 51
45 44 44 43 42 42 44 47 52 56 59 60 60 59 57 56 56 56 56 56 55 53 50 48 47 48 49 47 50 52 49 44 42 45 46 47 45 45 45 46 46 46 51
40 41 41 41 42 45 49 52 56 60 61 60 59 56 55 55 55 56 56 55 53 50 48 49 47 46 45 44 46 45 43 41 41 39 39 40 40 40 41 40 41 45 49
38 38 39 41 45 49 53 57 59 60 59 56 56 54 53 54 55 55 53 49 46 44 48 50 48 46 45 42 40 39 39 39 37 38 40 41 37 39 38 39 36 38 39
38 39 41 45 49 53 56 57 56 55 54 54 54 54 55 55 53 49 46 43 42 44 47 47 46 45 44 40 38 34 33 33 34 38 42 38 38 37 36 35 36 36 37
38 41 45 49 52 54 55 54 54 53 53 55 56 58 57 53 49 44 42 42 42 43 44 45 44 44 41 39 35 32 31 31 33 37 37 41 36 35 34 35 34 36 40
42 45 49 51 53 54 52 52 52 52 54 56 56 56 55 50 46 44 44 45 45 43 45 45 43 41 38 38 33 30 29 29 32 37 41 38 38 36 33 31 32 33 28
45 47 49 53 53 52 51 52 53 53 53 54 52 50 49 47 44 44 44 46 43 37 47 45 43 41 39 37 31 29 28 28 32 36 39 39 39 34 29 28 28 21 9
47 49 52 54 53 54 55 55 51 51 49 47 46 43 43 42 43 44 46 44 43 45 46 44 41 40 39 36 33 31 29 30 33 36 40 39 35 28 24 22 20 12 6
49 52 53 52 54 55 54 54 55 51 49 44 41 40 39 42 43 44 45 44 44 43 42 40 38 37 36 34 33 33 33 32 35 40 40 36 30 24 19 15 13 9 6
50 50 51 53 53 52 52 53 52 51 50 45 37 37 39 41 43 44 44 45 43 38 38 37 34 34 34 33 32 32 32 32 39 39 36 29 22 15 9 7 10 10 9
49 51 52 52 51 51 50 49 47 45 43 43 41 39 40 42 43 44 43 43 42 39 36 33 32 32 31 31 31 30 31 36 39 35 24 16 7 3 10 14 14 14 17
50 50 50 51 50 47 45 43 42 42 41 42 42 44 45 45 45 44 43 42 39 36 33 31 29 29 29 29 29 29 31 37 34 21 11 7 10 14 17 20 21 16 13
49 49 49 48 45 43 42 41 40 41 43 44 43 43 43 43 43 42 41 38 35 33 30 28 27 27 27 27 28 29 36 33 22 9 9 11 18 22 20 16 15 13 10
48 49 47 44 42 40 39 40 42 42 42 44 43 42 41 41 40 38 36 34 32 29 26 25 25 26 27 28 29 32 34 22 8 10 13 20 17 16 17 15 13 10 8
48 44 42 41 39 39 40 42 42 42 43 43 42 41 40 39 37 36 35 32 30 25 22 22 23 23 24 25 27 34 25 9 10 15 18 15 17 16 14 13 11 9 9
43 42 42 41 40 41 41 42 42 41 42 41 40 39 38 37 36 35 33 30 26 21 19 19 21 22 23 23 29 24 9 11 17 17 13 15 15 15 15 14 12 11 10
41 41 41 41 41 41 42 42 41 41 41 40 38 36 35 35 33 31 28 26 22 18 16 18 19 20 21 23 24 9 11 17 15 13 15 15 16 16 15 14 12 13 12
40 40 40 41 41 42 42 42 41 40 37 35 33 33 32 31 30 27 24 20 18 14 15 16 17 18 18 23 7 10 17 14 14 15 15 15 18 18 16 16 15 15 15

GFSGL_700_spd_012.txt.gz
Wind_Speed
33 35 35 36 36 39 43 47 55 54 51 50 49 47 46 46 46 47 48 49 50 50 50 51 50 51 51 51 51 52 53 54 53 55 54 53 53 54 54 56 57 57 56
36 37 39 39 40 43 48 58 54 47 47 47 45 45 46 46 47 48 49 51 52 54 54 55 54 54 54 54 54 55 56 56 57 62 58 58 59 58 58 59 57 55 54
38 40 41 43 46 49 53 52 46 46 46 45 46 46 47 48 50 52 54 55 56 57 56 55 54 54 55 55 55 55 57 59 60 61 64 62 62 62 63 61 60 58 54
39 41 45 48 50 54 56 50 47 46 46 46 46 48 50 52 54 57 58 58 58 57 56 54 53 53 53 55 56 56 58 61 62 64 65 64 64 63 65 65 64 58 57
42 45 49 50 55 55 48 46 46 46 46 47 49 51 53 56 59 61 61 59 58 58 56 55 54 52 53 54 56 57 57 59 60 62 63 64 62 62 63 62 61 60 56
46 49 53 56 50 47 45 45 45 46 47 50 52 56 59 60 60 59 57 58 57 55 55 54 54 53 53 53 52 52 53 53 55 54 55 56 57 55 55 55 54 54 59
48 51 54 50 44 43 44 45 46 48 50 53 56 60 61 60 59 58 55 54 54 55 55 55 54 53 52 53 52 51 49 47 45 46 50 49 50 46 46 48 45 47 49
52 47 45 43 42 43 44 45 46 49 54 58 61 61 61 58 56 55 55 57 57 57 55 52 52 51 49 49 49 48 47 45 42 43 43 37 37 36 44 44 46 48 45
44 41 39 40 41 43 44 46 50 55 58 61 62 60 58 56 55 56 58 58 56 54 50 47 46 46 47 46 46 48 47 44 40 39 38 38 36 36 37 42 44 44 45
38 37 38 41 42 44 46 50 54 58 61 60 58 57 55 55 55 55 55 53 51 48 46 46 45 46 45 43 46 45 46 43 40 36 32 32 33 32 35 39 41 43 41
35 37 39 40 43 46 50 53 56 59 58 57 57 56 55 54 53 52 49 46 44 46 47 46 47 47 44 44 44 44 42 42 38 36 34 33 33 35 37 38 38 35 36
35 37 40 42 46 49 51 54 55 56 57 57 57 56 54 53 52 48 44 41 41 43 45 46 46 48 48 45 43 41 39 37 36 35 34 34 35 35 37 38 32 31 34
36 39 42 45 47 50 53 54 55 55 56 56 56 56 54 51 49 44 42 42 43 44 44 41 46 48 47 43 39 38 37 35 33 33 34 35 37 39 41 36 32 31 31
39 42 45 47 49 51 52 53 54 54 55 55 55 55 52 49 46 45 45 46 47 46 45 47 48 46 42 39 37 34 32 31 31 32 34 37 39 41 40 35 33 28 25
42 45 46 49 50 51 52 53 52 52 53 53 51 50 48 45 45 44 45 47 47 45 47 49 47 43 39 35 33 32 30 29 30 32 36 40 43 41 36 30 25 20 17
44 47 49 50 50 51 53 53 51 50 49 46 44 44 44 42 44 45 46 46 46 46 47 47 43 38 36 34 33 32 30 31 32 35 39 43 42 38 29 19 15 12 9
47 48 48 49 50 52 52 52 53 49 47 45 41 40 41 43 44 45 45 45 45 45 43 42 38 34 32 31 32 32 33 32 35 40 41 37 33 25 18 12 6 4 2
46 46 48 49 50 50 51 50 49 50 50 46 40 41 43 44 44 44 43 44 44 41 40 38 34 30 29 30 31 32 32 33 40 39 33 26 22 18 10 4 5 8 10
46 48 49 50 50 50 48 46 46 46 46 46 46 44 44 44 44 43 42 42 42 40 36 33 29 27 27 29 30 31 32 39 37 29 21 18 15 10 9 12 16 19 20
47 48 48 49 49 46 45 45 44 44 45 45 46 46 46 45 44 43 40 39 38 36 33 28 25 25 27 28 29 30 36 35 25 18 14 16 15 19 22 24 23 18 13
48 48 47 47 45 44 43 43 43 44 45 45 45 44 43 42 42 41 39 37 35 32 29 25 24 24 26 28 29 33 35 22 16 13 16 19 22 19 16 14 12 10 8
47 47 47 46 44 42 42 43 43 44 44 45 45 45 42 40 39 38 37 35 31 28 25 24 23 25 27 28 31 36 22 14 13 16 18 12 12 13 12 12 11 9 8
46 46 46 43 41 42 42 42 42 43 43 44 44 43 39 38 36 36 35 32 28 23 21 21 23 23 24 26 32 24 15 14 15 12 12 13 13 12 12 12 11 9 9
46 46 44 42 41 42 42 42 42 42 42 43 41 38 37 35 34 33 30 27 23 19 19 20 22 23 23 28 24 14 13 13 11 13 14 14 14 14 13 13 12 11 10
45 44 42 41 41 41 42 42 42 42 41 39 36 34 32 31 30 29 26 23 18 17 16 18 20 21 25 24 14 14 12 12 14 14 13 13 15 15 14 13 12 12 12
44 42 41 41 41 41 41 42 42 40 37 34 31 30 29 29 27 25 22 18 14 13 15 17 18 21 23 13 14 13 13 13 13 13 15 16 17 17 16 14 13 11 11

GFSGL_700_spd_015.txt.gz
Wind_Speed
31 33 37 38 36 37 41 44 46 48 47 42 42 43 44 44 44 46 48 51 53 55 57 58 58 57 56 55 55 55 54 53 55 61 58 60 61 60 59 56 55 55 54
34 37 39 38 39 43 45 48 49 45 44 43 43 43 44 45 47 51 54 56 59 61 61 61 59 58 57 56 55 56 58 58 59 61 62 62 63 63 63 63 60 58 59
38 40 39 40 42 48 47 51 48 45 42 42 43 44 46 49 52 55 58 61 61 61 60 59 57 56 55 54 53 54 56 57 59 58 61 62 63 63 63 62 61 60 60
39 39 41 43 48 49 49 48 44 43 42 43 44 47 50 52 56 58 61 61 60 59 57 55 53 52 53 53 53 54 55 56 56 56 56 58 59 59 58 59 60 57 59
39 40 44 47 48 48 45 44 43 42 43 45 47 50 52 55 58 60 60 60 59 57 55 53 52 51 50 48 48 48 48 48 45 44 49 50 51 51 50 48 51 51 51
39 43 46 46 45 44 42 41 42 42 44 47 50 53 55 56 58 58 58 59 57 56 55 53 52 49 45 42 41 42 41 37 39 41 42 48 48 45 43 41 35 38 40
40 43 45 42 41 40 39 40 42 44 47 50 52 54 56 58 59 59 58 59 57 55 53 51 47 42 41 42 43 43 42 42 43 45 46 45 46 44 41 36 37 44 41
40 43 43 40 39 38 39 42 45 48 50 52 54 56 58 59 60 59 57 56 54 52 48 44 41 41 42 43 43 42 43 42 41 40 42 44 44 39 38 40 41 42 42
40 40 39 38 38 39 41 45 48 50 51 52 55 58 58 58 58 55 54 54 52 48 43 41 39 42 43 42 35 48 47 41 39 38 38 38 35 32 31 33 33 36 40
37 36 36 37 39 42 45 48 49 51 52 53 56 57 57 57 53 51 50 49 46 43 43 42 40 41 43 37 45 50 47 41 40 38 35 31 29 27 27 29 33 38 39
34 35 36 39 42 45 48 49 50 51 52 54 55 56 56 53 50 47 46 44 42 43 45 44 43 42 39 47 45 42 41 40 39 38 35 32 29 27 29 30 34 36 39
34 36 38 41 44 47 48 49 50 51 53 54 55 55 52 49 46 44 44 42 41 43 46 46 45 44 45 44 41 37 35 36 37 35 34 31 31 31 30 34 36 36 32
34 37 40 44 46 47 48 49 50 51 53 53 53 53 52 48 46 43 43 43 44 46 46 47 47 46 42 38 34 32 31 32 33 33 33 33 33 35 36 40 38 33 30
37 40 43 44 45 46 47 48 49 50 51 51 50 52 51 48 45 45 46 48 47 46 47 49 47 42 36 32 29 27 28 30 32 34 35 36 38 39 40 36 33 26 21
40 42 43 44 45 47 48 49 49 49 48 48 48 48 49 49 47 47 46 46 45 45 49 46 42 37 32 27 25 26 27 28 30 33 37 40 39 36 31 27 21 16 13
41 42 44 45 46 48 49 48 47 46 45 44 44 44 45 46 47 46 45 43 43 44 44 41 38 34 30 27 27 27 27 29 33 37 37 33 31 28 24 16 12 9 7
41 43 44 45 47 48 48 48 48 46 45 44 44 43 44 46 46 45 43 41 40 40 39 37 34 30 27 26 28 29 30 33 36 32 27 26 25 20 17 13 8 6 5
41 43 45 46 47 47 48 48 48 48 49 47 45 43 44 45 45 43 40 41 38 35 35 33 30 27 26 27 28 29 33 35 29 25 23 20 18 18 14 11 10 13 16
42 43 45 46 47 47 48 47 46 46 47 47 47 45 45 46 44 40 38 36 36 34 31 29 26 24 25 27 28 32 35 27 23 20 18 15 16 14 14 15 17 20 22
42 44 46 47 47 47 47 45 44 44 45 46 46 47 47 48 43 39 35 34 32 30 29 26 23 24 25 27 30 35 24 20 18 16 15 15 18 18 19 18 17 13 11
45 46 46 46 46 46 45 44 43 44 45 45 45 45 45 43 39 36 34 32 31 28 26 24 23 24 26 27 33 24 18 16 16 14 18 15 13 12 11 11 10 10 9
46 46 46 46 46 45 44 43 42 42 43 44 44 44 40 36 35 33 32 30 27 25 24 23 23 25 26 32 26 17 16 15 14 15 13 14 14 14 13 12 11 10 10
46 46 45 45 44 44 42 41 41 41 42 42 43 41 37 34 32 31 29 27 24 21 21 21 23 22 28 24 15 16 14 15 14 13 15 17 15 13 13 12 12 11 10
45 45 45 44 43 42 41 40 39 39 40 41 39 36 33 31 30 28 27 24 21 18 19 20 21 25 22 14 14 14 15 13 14 17 17 16 17 17 15 13 12 12 12
45 45 44 43 42 40 39 38 38 38 39 38 35 32 29 28 27 25 24 21 17 16 16 18 21 21 13 14 14 14 13 15 18 17 19 20 19 16 13 12 13 14 15
44 43 42 41 40 39 37 37 37 37 37 34 30 28 26 26 25 23 21 17 14 14 15 17 19 11 12 13 14 13 15 15 16 19 22 22 20 17 14 12 13 14 15

GFSGL_700_spd_018.txt.gz
Wind_Speed
29 32 35 38 40 41 41 43 45 44 42 40 39 40 40 41 43 45 47 51 54 56 57 58 58 57 57 56 55 55 55 55 58 62 61 60 60 60 61 61 63 64 65
32 34 37 40 42 42 45 46 46 42 40 39 40 41 42 43 46 49 51 54 56 58 59 59 57 56 56 55 54 54 54 54 51 56 58 58 57 56 57 55 57 58 60
33 37 39 41 44 44 46 45 41 39 39 41 42 43 44 46 49 51 53 56 59 60 60 60 59 57 56 54 53 54 53 51 50 46 52 46 49 50 52 50 48 53 52
35 38 40 42 44 45 45 41 39 40 40 41 42 45 47 48 51 53 56 58 60 61 61 59 55 53 53 52 51 49 46 46 46 41 41 43 43 45 47 52 54 52 51
38 40 42 43 43 44 42 39 39 40 41 43 46 47 48 50 52 55 58 59 61 61 58 56 53 51 49 46 44 43 44 43 39 37 40 44 50 50 50 50 40 45 47
38 40 41 42 43 42 40 40 40 42 43 46 47 49 50 51 53 56 58 61 60 59 58 55 51 48 45 42 42 42 40 37 37 41 48 54 52 50 48 47 48 46 47
38 39 41 42 41 40 40 41 42 43 46 47 48 50 50 52 54 57 59 59 58 57 54 52 48 44 43 43 44 43 37 35 37 47 56 54 50 46 45 45 42 36 39
37 38 40 40 39 39 40 41 43 46 48 48 50 51 51 54 55 57 58 57 55 53 51 48 46 44 43 44 45 44 40 43 48 50 49 46 43 42 40 41 41 40 36
35 37 38 38 38 39 40 43 46 48 48 49 50 52 52 54 55 55 55 54 52 50 48 45 43 44 44 44 39 40 48 52 48 43 41 38 38 37 36 37 35 37 39
35 36 36 36 38 40 43 46 47 48 50 50 51 52 53 53 53 54 52 51 50 49 47 46 46 46 45 42 41 47 52 48 45 39 36 35 35 33 33 34 36 40 42
34 34 34 37 39 43 45 46 48 49 50 50 51 51 53 53 52 51 49 48 48 49 50 50 48 46 44 47 45 44 45 44 40 39 39 37 35 34 33 32 34 37 41
31 32 34 38 41 44 46 47 48 49 50 50 51 51 52 53 50 48 47 47 47 49 50 49 47 47 47 45 42 39 38 36 36 38 38 37 36 35 35 35 35 36 37
30 33 37 40 42 44 46 47 48 49 50 50 50 51 52 52 51 49 48 48 48 48 47 46 46 47 44 40 35 32 31 32 34 36 38 38 39 40 39 36 34 31 30
32 35 39 41 43 44 45 47 48 49 49 49 49 50 51 51 50 49 49 49 49 47 44 47 45 43 39 35 31 27 28 31 34 37 39 40 38 35 31 29 28 24 20
34 37 40 42 43 44 46 48 48 47 48 48 48 48 50 51 49 48 48 48 48 43 46 44 42 39 36 31 27 27 28 30 34 37 36 34 30 29 26 23 19 13 12
36 39 41 42 44 45 47 48 48 47 46 45 44 45 47 47 47 47 47 46 43 42 42 41 39 36 32 29 28 28 28 34 35 31 28 26 27 25 21 15 13 12 10
38 41 42 43 45 47 48 49 49 47 48 47 46 46 46 47 47 46 45 42 39 39 38 37 34 32 29 27 29 30 36 33 27 24 23 23 21 18 18 16 13 11 9
39 41 42 44 46 48 48 48 48 49 50 48 46 45 46 46 46 45 41 39 38 35 34 32 30 28 27 28 29 35 33 24 21 20 20 19 18 18 16 14 12 12 13
40 42 43 46 47 48 48 48 48 48 48 47 47 46 46 47 46 41 37 37 37 34 31 29 26 25 27 28 33 32 22 19 19 18 17 18 19 18 18 17 17 18 19
41 42 45 47 48 48 48 48 47 46 46 46 45 46 46 47 44 38 36 35 33 31 29 25 24 25 27 32 32 20 16 15 16 19 20 19 17 16 15 14 13 11 10
42 44 46 47 48 48 48 47 46 45 44 44 43 43 44 43 39 37 36 33 31 29 26 24 24 25 29 31 20 16 15 16 18 17 18 19 18 16 14 12 11 9 8
44 46 47 48 48 48 47 45 44 43 42 42 42 42 41 38 36 35 33 30 28 25 24 24 24 27 30 21 16 14 16 16 18 19 18 18 17 15 13 10 9 8 8
45 47 47 47 47 46 45 44 42 41 40 41 41 42 39 36 34 32 30 28 25 22 21 22 24 28 19 15 14 15 17 18 18 19 20 20 17 13 10 9 8 7 8
45 46 47 47 46 44 42 41 39 38 38 39 40 38 36 33 31 29 28 26 21 19 20 20 26 19 13 13 13 16 17 17 19 23 23 19 15 13 11 12 13 13 13
46 47 46 45 44 42 40 38 37 38 38 38 38 35 32 30 28 27 25 22 18 17 17 22 19 12 12 13 14 15 16 18 21 23 21 17 14 10 10 10 12 12 11
45 44 43 42 40 38 37 37 37 37 37 36 33 31 29 28 26 24 22 17 14 15 18 19 11 10 11 13 13 14 15 19 21 21 19 19 16 14 13 11 11 11 11

GFSGL_700_spd_021.txt.gz
Wind_Speed
29 30 31 34 37 40 43 45 45 44 43 41 39 39 39 40 41 44 46 47 50 52 53 56 57 59 60 59 58 57 57 54 56 62 59 57 53 52 53 50 48 48 49
32 32 34 36 39 43 45 45 45 44 42 40 40 40 41 43 46 48 48 50 52 54 56 58 59 59 59 58 57 56 55 53 51 50 52 49 51 52 50 49 50 48 49
33 35 37 39 42 45 46 45 45 43 41 41 41 42 44 46 48 48 49 51 53 55 57 58 59 59 58 56 54 53 51 48 44 44 50 50 49 45 47 49 52 55 53
35 36 38 41 44 45 46 46 45 42 41 42 42 44 46 48 48 49 51 53 54 56 57 58 58 57 55 53 51 49 46 44 45 45 47 46 43 44 47 56 58 52 51
36 38 40 43 45 45 46 46 43 42 42 43 45 47 49 49 50 51 53 54 55 56 57 57 56 55 53 50 46 46 44 44 47 46 45 46 44 49 57 60 56 53 51
38 40 41 43 45 45 45 43 41 42 43 46 49 50 49 49 50 52 53 55 55 56 57 57 55 53 50 47 46 46 41 41 43 44 47 49 53 57 58 54 51 51 54
39 40 41 43 44 44 42 41 42 44 47 49 49 49 49 49 51 52 53 54 55 56 55 54 53 50 48 49 49 48 45 40 38 45 49 57 61 58 51 48 47 48 48
39 41 41 41 42 41 40 41 44 46 48 49 48 49 51 51 52 53 53 53 53 53 52 52 51 51 50 48 45 47 45 45 48 52 52 56 52 45 42 44 46 47 46
40 39 39 40 40 39 40 43 45 48 48 48 48 50 52 52 52 52 52 52 53 52 51 51 51 51 50 46 44 47 54 53 47 44 43 42 38 37 38 41 42 44 46
36 36 38 37 38 40 42 45 46 47 47 48 50 52 53 52 51 51 51 52 53 52 52 51 50 49 47 42 45 52 52 47 45 42 38 36 37 37 37 38 41 44 46
34 34 34 36 38 41 43 45 46 47 48 50 52 52 51 51 51 51 51 51 52 53 54 53 51 49 43 45 46 45 43 41 39 38 39 39 39 39 39 40 41 42 46
32 32 33 36 39 41 43 44 45 47 50 51 51 52 52 52 51 51 50 50 49 51 52 52 50 44 48 47 43 40 35 34 36 38 40 41 43 43 41 38 35 34 35
29 32 35 36 38 41 43 44 46 48 50 51 52 52 52 52 51 50 50 49 48 49 49 48 46 47 45 41 36 33 32 34 36 39 43 43 39 36 34 32 30 28 27
31 33 34 37 39 41 43 45 48 49 50 50 50 51 52 52 50 49 49 50 50 50 48 46 44 42 39 35 31 29 31 33 38 42 39 35 32 31 29 27 27 25 22
31 32 35 38 40 42 43 46 48 49 51 51 50 51 51 50 48 47 48 49 50 47 45 43 42 39 35 30 29 30 32 36 38 32 31 30 28 27 25 22 20 21 20
31 34 37 39 41 43 45 47 48 49 50 51 50 49 49 47 47 47 47 48 44 41 42 41 39 34 32 30 31 33 35 33 28 27 26 26 26 24 22 19 19 19 17
33 36 38 40 42 45 47 49 51 50 50 49 48 48 46 47 47 46 47 44 39 39 38 37 33 31 29 30 32 36 33 25 23 23 23 22 20 19 19 19 18 16 13
34 37 39 42 45 47 48 50 51 52 52 51 47 45 45 45 45 45 43 40 38 35 34 33 30 28 29 31 35 31 23 21 21 21 22 22 23 23 20 19 19 19 20
36 38 40 43 45 47 49 50 50 50 50 49 47 44 43 44 44 42 38 37 37 35 33 28 26 27 29 34 29 22 20 21 23 24 25 26 23 21 19 18 18 18 18
38 40 42 44 46 47 49 50 50 49 48 46 44 43 44 45 44 40 36 35 34 33 30 26 26 27 32 29 23 20 19 20 21 23 22 22 21 20 19 18 16 14 12
39 41 43 45 47 48 49 48 48 46 45 43 42 41 43 44 42 38 35 34 32 30 27 26 26 30 29 23 20 19 18 21 21 22 22 22 20 18 15 14 13 13 13
40 42 44 46 47 48 47 46 45 44 42 42 42 42 42 40 37 35 32 31 29 27 26 26 27 30 24 21 20 18 20 21 22 23 23 22 18 14 14 13 10 9 9
41 43 44 46 47 46 45 44 42 41 40 40 41 41 40 37 34 32 30 29 27 24 23 25 29 23 19 18 18 21 21 23 24 27 24 17 15 13 14 13 11 10 10
42 43 45 46 45 44 43 41 39 39 39 40 40 39 36 33 31 29 28 27 24 22 23 25 24 19 17 17 19 20 22 24 26 24 20 17 13 12 12 11 10 10 10
42 44 44 44 44 42 41 39 39 39 38 39 38 35 31 29 28 27 26 25 21 20 22 23 18 16 17 18 18 19 20 22 22 19 17 14 12 10 9 9 10 10 9
43 43 43 43 41 40 39 38 38 37 37 35 32 30 27 27 26 26 24 21 18 20 22 16 15 15 16 16 17 18 19 19 17 16 16 15 13 11 10 10 11 10 10

GFSGL_700_spd_024.txt.gz
Wind_Speed
24 27 29 32 33 35 38 41 43 45 44 44 42 41 41 42 43 45 46 47 48 48 49 51 53 53 54 53 54 55 56 56 59 64 61 58 55 55 53 51 51 50 48
27 29 32 34 35 38 41 43 44 45 46 44 42 42 42 43 45 47 48 48 49 50 51 53 53 53 53 53 54 55 55 54 54 57 56 55 54 52 53 53 51 48 48
29 32 34 36 38 40 43 44 46 46 45 43 43 43 44 46 48 48 49 50 50 51 52 53 53 53 53 53 54 54 53 53 51 51 56 54 54 52 50 51 52 50 50
31 34 36 38 39 41 43 45 46 45 44 43 43 44 46 47 48 49 50 50 51 52 52 52 52 52 52 53 53 52 51 50 52 52 53 55 55 52 49 46 57 55 58
33 35 37 39 40 42 44 45 45 44 43 43 44 46 47 47 48 49 51 53 53 53 52 51 51 51 51 50 47 48 48 50 46 47 53 55 51 53 60 59 64 62 56
34 36 39 40 40 42 44 44 42 41 41 43 45 47 48 48 48 49 51 53 52 52 52 52 52 52 50 50 49 48 43 41 45 47 53 54 60 62 62 56 52 52 52
36 37 38 39 40 42 42 41 40 41 43 45 46 47 47 48 49 51 51 52 51 51 52 53 53 52 50 50 50 49 45 42 43 49 58 55 53 48 49 47 45 46 47
35 35 38 38 40 40 39 39 40 43 44 45 46 46 48 50 51 51 51 51 51 51 52 52 52 52 51 49 48 47 46 48 51 50 48 46 42 40 39 42 44 46 47
33 35 36 38 38 37 37 39 40 43 43 44 45 48 50 51 51 51 52 53 54 53 53 53 53 52 51 46 41 43 50 53 46 43 39 35 35 37 38 42 43 45 47
33 34 35 36 36 36 37 38 40 42 44 45 46 49 50 51 51 51 52 53 54 54 54 53 52 51 50 41 42 48 49 47 43 38 36 36 36 38 37 37 39 43 44
31 32 34 33 34 35 37 39 41 43 44 45 47 49 50 51 51 51 50 50 51 52 53 53 51 49 42 43 43 42 41 39 37 38 39 40 40 37 35 32 32 35 40
30 31 31 31 33 36 38 40 41 42 45 46 49 50 51 52 51 50 49 49 48 49 50 50 49 43 43 41 38 35 33 34 36 38 41 39 36 34 33 31 30 29 30
29 28 29 31 34 36 39 40 41 44 47 49 50 51 52 52 51 49 48 46 46 47 47 45 42 41 40 36 31 30 31 33 37 39 36 35 34 33 31 28 26 26 25
26 28 30 33 34 36 37 39 42 46 48 50 52 54 54 53 50 48 47 47 48 47 45 43 40 38 33 30 28 27 31 35 33 31 33 31 31 29 27 26 26 24 24
26 29 32 33 35 37 38 41 44 46 49 51 52 52 52 51 48 46 46 47 46 43 42 41 38 34 29 28 28 30 33 27 27 28 29 30 29 27 25 24 23 23 24
28 30 32 34 36 38 40 42 44 46 48 48 47 47 46 45 44 44 45 45 40 39 40 38 34 30 29 30 33 34 26 25 26 28 29 28 27 25 23 21 21 22 23
29 32 33 35 37 40 43 46 47 46 48 48 46 44 42 43 42 43 44 41 37 37 36 33 30 28 29 33 33 28 27 26 27 28 27 28 27 26 24 24 24 24 24
31 33 35 37 39 42 44 46 49 51 51 48 44 41 41 41 40 41 41 38 35 32 32 30 28 28 31 33 28 27 26 27 27 26 25 25 26 25 24 23 22 22 23
32 34 36 37 40 43 45 46 48 49 47 45 43 40 40 40 40 39 36 36 35 33 31 27 27 28 32 28 26 25 25 25 24 24 25 25 25 22 20 20 19 19 18
33 35 37 40 42 44 45 47 47 46 44 42 41 42 42 43 41 38 35 33 32 31 29 26 27 30 28 26 25 24 23 21 23 25 27 26 22 19 18 16 16 17 16
35 36 38 40 42 44 45 46 45 44 41 41 40 40 40 41 39 36 34 31 31 29 27 26 28 28 26 25 23 22 21 23 25 27 25 20 20 18 17 14 13 13 13
35 37 39 41 43 45 45 44 42 40 40 40 40 39 38 36 35 33 31 30 28 26 26 27 28 25 24 24 23 22 23 25 27 26 21 19 16 17 16 16 15 14 13
36 37 40 42 44 45 43 41 39 39 39 39 39 39 36 34 31 30 30 28 25 23 25 26 23 22 21 21 21 24 26 28 29 26 22 16 14 13 13 14 14 12 12
36 39 41 43 43 43 41 39 38 38 38 38 37 34 32 31 30 29 28 26 22 22 24 21 21 21 20 21 22 24 25 26 24 23 19 15 13 12 11 12 12 12 10
38 40 42 42 41 40 38 37 37 37 37 36 33 30 30 28 28 27 25 22 21 22 20 19 19 20 20 22 22 23 24 22 19 18 18 15 13 12 12 13 13 12 10
39 41 42 41 39 37 37 37 36 36 33 30 28 28 27 27 26 25 22 19 20 19 18 18 19 19 20 21 22 23 20 17 16 16 15 14 12 13 13 14 13 13 13

GFSGL_700_spd_027.txt.gz
Wind_Speed
19 21 23 26 28 31 33 35 37 39 40 42 42 40 39 40 41 44 46 47 47 48 48 50 51 52 53 52 51 51 52 54 59 60 59 60 60 59 58 54 51 51 49
21 23 25 29 31 33 35 38 40 40 42 42 42 40 40 41 44 46 47 47 48 49 50 52 52 52 51 51 51 52 53 54 55 59 60 61 59 58 57 55 55 52 49
23 25 28 31 34 35 38 39 40 41 42 42 41 40 42 44 45 45 47 49 51 51 51 52 51 52 52 52 52 54 54 55 55 56 59 57 56 56 58 57 58 56 56
25 27 31 33 35 37 39 39 40 41 41 40 40 42 43 44 45 47 49 51 51 50 50 51 52 52 53 53 54 53 53 53 52 51 50 52 55 56 57 63 62 57 54
26 30 32 34 36 38 38 39 40 40 39 39 41 42 43 44 47 50 51 51 51 51 51 51 52 53 52 52 51 52 51 50 48 46 48 50 55 60 61 57 53 48 44
29 31 33 35 37 36 37 39 39 37 37 39 41 43 44 46 48 48 48 50 51 52 53 54 54 54 53 51 49 48 44 40 43 43 50 58 61 57 50 44 46 46 47
28 31 33 36 35 36 37 38 37 36 39 40 41 43 45 46 47 47 49 51 53 54 56 57 56 54 52 51 50 48 44 39 39 45 53 54 51 42 43 45 46 47 47
29 31 33 33 34 35 36 35 36 37 39 41 42 44 45 45 47 49 51 54 56 57 56 56 54 52 51 50 48 43 42 47 50 48 45 42 39 40 41 45 48 50 49
29 30 30 32 33 34 33 34 36 38 39 40 41 43 46 47 48 52 55 56 56 55 55 52 50 49 49 45 38 43 49 47 41 38 34 34 36 39 42 43 41 42 42
27 29 30 31 32 31 33 35 37 38 39 41 42 44 46 49 51 54 55 55 55 54 51 48 47 46 43 38 41 45 44 40 37 35 35 36 38 34 30 31 34 37 38
26 27 29 29 29 31 33 36 37 39 40 42 44 45 47 49 52 53 53 53 49 48 47 47 46 41 38 41 38 37 36 35 35 37 39 35 29 29 30 31 31 32 35
25 26 27 27 30 32 34 35 37 40 42 44 46 47 48 51 53 53 51 47 44 45 46 45 42 40 40 37 34 32 31 33 37 37 30 30 32 32 31 31 29 28 28
23 24 25 28 30 33 35 36 38 41 44 46 48 50 52 54 53 50 47 45 44 45 44 42 39 39 36 32 29 30 32 34 30 29 30 32 32 30 28 27 27 26 23
22 24 26 28 30 32 34 37 40 42 45 48 50 52 54 54 50 47 46 45 45 44 42 39 37 35 30 27 26 29 28 26 28 29 31 30 29 27 25 25 26 24 23
23 25 27 30 32 33 35 38 40 42 45 48 50 52 52 50 46 44 45 44 43 41 40 37 35 30 27 26 28 24 23 24 26 28 28 27 27 28 27 25 24 24 24
24 26 29 31 33 35 37 37 38 42 44 46 47 47 46 42 42 42 42 42 39 37 36 35 31 28 28 31 27 24 24 26 26 26 25 26 28 29 27 25 23 23 26
25 28 30 32 34 37 38 40 43 42 45 46 46 44 41 41 40 41 41 38 35 34 33 30 27 27 29 26 25 25 27 26 25 25 27 29 30 26 24 23 24 24 23
27 30 32 34 36 37 39 41 44 46 48 48 42 40 40 39 38 39 38 35 33 29 29 26 26 26 26 24 24 26 25 24 24 27 30 30 27 23 20 20 22 23 22
29 31 33 35 37 38 40 42 45 47 47 45 40 39 39 38 37 35 33 34 33 30 26 24 25 25 23 23 24 24 24 25 27 29 27 23 21 21 19 19 18 19 20
30 33 35 36 37 39 41 43 46 47 45 42 39 40 40 40 36 33 32 31 29 28 25 24 24 22 22 23 24 23 24 25 27 27 22 21 19 20 22 19 17 16 16
31 33 35 35 37 40 42 44 46 45 42 39 38 37 38 37 34 32 31 29 28 26 24 24 21 21 22 24 23 24 25 26 28 27 23 17 17 18 18 19 18 18 16
32 34 34 36 39 41 43 45 44 42 39 38 37 35 33 31 31 30 29 28 26 24 24 22 21 22 24 24 24 25 26 28 28 24 20 16 14 15 14 15 15 14 15
32 33 35 37 40 43 44 43 40 38 37 36 36 33 30 30 29 29 28 26 23 22 21 20 21 21 22 23 24 26 29 29 25 22 20 17 17 15 14 13 13 12 11
32 34 36 39 42 44 42 39 37 36 35 35 32 30 29 28 28 28 27 23 20 20 19 19 21 22 22 23 24 26 26 22 19 21 23 20 16 15 14 12 12 11 11
33 36 39 42 42 41 38 37 36 35 34 32 31 29 27 25 26 25 23 19 19 17 17 19 20 21 22 24 25 22 18 18 20 20 19 17 15 14 13 14 15 14 13
35 39 41 42 39 36 36 36 35 34 32 30 27 26 25 22 22 22 18 16 15 16 18 19 20 21 22 23 19 18 19 19 19 17 16 15 14 14 16 18 18 17 16

GFSGL_700_spd_030.txt.gz
Wind_Speed
20 19 19 19 22 25 28 31 33 35 38 39 39 40 40 39 40 42 43 45 46 48 49 51 53 55 55 55 55 57 58 58 62 63 60 60 61 62 61 58 55 55 54
22 21 20 22 24 28 31 33 35 37 39 40 41 40 40 41 42 44 45 47 49 50 52 53 53 54 54 55 57 58 58 57 59 62 62 61 61 60 60 59 57 53 55
23 22 23 25 27 31 33 34 36 39 40 41 41 40 40 41 43 44 47 49 50 52 52 52 53 55 57 58 59 59 59 58 56 56 59 58 58 55 54 54 54 57 59
24 24 26 27 30 33 34 36 38 39 39 40 39 40 41 43 44 47 49 50 51 51 51 52 54 57 59 60 60 58 56 55 53 52 52 54 50 51 50 57 62 58 51
26 26 27 29 32 33 35 37 38 39 39 39 39 40 42 44 46 49 51 53 52 51 52 54 57 59 59 58 56 55 53 50 47 46 47 49 51 57 59 57 53 49 44
25 26 28 30 32 35 36 36 37 37 37 38 40 42 43 45 47 50 52 52 51 53 56 58 60 60 58 55 52 50 47 40 40 42 46 52 60 57 48 44 46 48 52
24 26 28 30 33 35 35 36 37 37 37 38 40 43 45 46 49 51 51 51 53 56 59 60 59 55 51 51 50 48 41 41 40 49 55 52 48 41 43 46 47 50 49
23 26 28 31 32 32 34 36 35 36 38 39 41 44 46 49 50 50 51 53 55 57 58 56 53 50 49 49 47 43 44 47 43 42 42 39 39 41 43 44 44 45 45
23 26 28 29 31 32 33 33 35 36 38 40 42 45 48 48 50 52 54 56 58 57 55 50 48 48 47 42 40 46 45 39 36 34 34 36 38 35 34 38 38 41 42
24 26 27 29 30 31 31 33 36 38 39 42 43 45 47 49 51 52 56 58 58 56 51 48 46 44 41 40 42 42 39 36 37 37 37 30 29 30 30 31 35 38 39
23 25 26 28 29 29 31 34 37 39 40 42 44 45 47 49 51 54 56 55 53 51 49 47 44 40 39 38 36 34 35 37 39 38 31 31 29 29 30 30 31 34 36
23 24 26 27 28 30 32 34 38 40 42 43 45 46 47 48 52 54 53 50 47 47 47 45 41 39 37 34 32 32 34 37 33 31 30 29 30 29 29 30 29 29 29
23 24 24 25 28 31 34 36 38 40 42 44 47 49 50 51 53 52 50 48 46 45 44 40 37 36 33 30 29 32 33 29 29 29 29 29 28 29 30 30 28 28 26
21 21 23 26 29 32 35 39 40 42 43 45 48 50 52 53 52 50 48 47 46 45 41 37 35 33 29 28 29 27 25 27 29 28 28 29 30 30 30 30 30 29 27
20 22 25 28 31 33 36 38 40 41 44 47 49 52 53 52 49 46 46 45 44 41 38 34 32 28 26 26 23 22 24 24 25 27 29 32 32 31 26 26 27 28 28
22 25 27 30 33 35 37 36 38 40 42 45 48 50 49 46 43 43 43 42 38 37 34 33 29 27 27 26 24 23 23 23 26 29 31 33 31 29 26 23 24 26 26
23 26 29 31 33 35 37 39 41 39 42 45 47 47 44 42 41 42 41 37 34 33 32 29 27 27 26 24 24 23 24 25 29 30 32 28 28 26 26 22 20 24 22
25 28 30 32 35 36 38 39 42 44 46 47 46 44 41 39 39 39 36 33 31 28 28 26 25 25 23 23 22 22 24 26 28 29 28 25 24 25 24 21 20 21 21
27 29 31 34 35 37 39 41 43 45 47 47 45 40 39 38 36 33 32 32 32 29 25 24 25 23 22 21 21 23 26 27 28 29 25 22 20 22 21 21 21 20 17
28 30 33 34 35 36 38 41 43 46 47 45 40 39 40 38 33 30 30 30 29 27 24 23 22 21 21 21 22 23 25 26 26 25 23 21 19 19 19 20 21 19 14
29 31 33 34 35 38 40 42 45 46 45 41 37 37 38 35 32 31 30 29 27 24 23 21 20 20 20 23 24 24 26 26 23 22 22 21 19 18 17 17 17 15 15
30 31 32 34 36 38 41 44 45 44 40 38 36 35 33 32 31 29 28 27 24 23 23 20 19 21 23 25 26 27 26 23 21 21 21 20 18 17 17 16 15 12 11
30 31 33 35 38 41 43 44 42 39 38 37 36 35 33 31 28 26 26 24 21 21 20 20 20 21 22 23 25 25 23 22 23 22 21 18 18 18 17 15 12 10 9
31 33 34 37 41 43 44 41 38 37 36 36 35 33 30 28 25 23 23 21 20 19 19 19 21 22 23 23 21 20 22 23 23 21 22 20 18 16 14 12 11 10 10
32 34 37 41 43 42 39 38 37 36 35 34 32 29 27 26 21 21 20 18 17 17 17 19 20 21 22 20 19 21 21 20 19 19 18 17 16 15 15 15 14 13 12
34 37 40 41 40 38 37 36 36 34 32 30 28 27 26 22 18 18 16 15 14 15 18 18 19 20 19 19 20 20 20 19 19 17 17 17 17 17 16 15 14 13 11

GFSGL_700_spd_033.txt.gz
Wind_Speed
24 23 22 20 20 21 24 26 29 32 35 37 40 41 41 42 42 41 42 44 45 46 47 50 53 55 56 57 58 60 62 64 69 72 70 68 68 67 65 60 57 56 53
25 24 23 22 23 25 27 29 32 35 37 40 42 41 42 41 41 43 44 45 47 48 51 54 55 56 57 58 61 63 64 63 64 66 66 62 59 56 57 55 53 50 50
26 25 24 24 26 28 29 31 34 37 39 41 41 42 41 41 42 44 46 47 48 51 53 55 56 58 60 62 64 64 64 63 60 59 61 57 55 51 52 52 55 58 63
26 26 26 28 28 29 31 34 37 38 40 41 42 42 42 42 44 45 47 48 50 52 54 55 57 59 62 63 64 62 59 57 56 55 55 53 51 53 56 59 61 53 48
27 28 29 29 30 31 33 37 37 39 39 41 41 41 42 44 46 47 49 51 53 55 56 56 58 61 61 59 57 55 54 54 52 50 51 52 56 56 53 49 50 50 48
29 29 29 29 30 32 37 36 37 38 40 41 41 42 43 45 46 47 50 53 55 56 56 58 60 60 57 54 52 51 47 44 44 46 51 53 49 45 44 46 48 48 48
27 27 27 28 31 34 35 35 37 39 39 39 41 43 43 46 47 50 52 54 54 54 57 59 59 55 53 51 50 47 45 42 43 45 47 41 43 43 45 43 42 45 45
24 24 26 29 31 32 33 35 37 37 38 39 41 43 44 46 49 51 53 53 54 55 57 56 54 52 50 48 46 45 45 39 36 36 37 39 39 37 37 42 45 47 44
21 23 26 28 29 31 33 35 36 36 38 40 42 44 46 47 50 52 53 54 56 57 56 53 51 50 48 44 43 45 41 34 33 34 33 30 31 35 37 40 40 44 44
20 23 25 27 29 31 33 34 35 36 38 41 41 44 47 50 51 52 53 55 57 58 53 50 48 46 42 40 41 40 37 36 36 33 28 28 30 31 30 32 37 41 43
20 23 25 27 29 31 32 32 34 37 39 41 43 45 47 49 50 51 53 55 56 55 50 47 45 42 39 37 36 34 35 38 34 31 31 31 29 28 30 33 35 37 40
20 22 25 27 28 29 30 33 36 38 40 43 45 45 45 47 49 52 53 53 51 49 47 45 42 40 37 34 32 33 35 33 32 32 31 29 31 32 33 34 32 31 33
21 24 26 26 27 29 31 33 36 39 42 44 46 47 48 48 50 52 53 50 48 47 45 40 39 37 34 30 30 32 32 32 32 30 30 32 35 35 33 31 26 28 30
22 23 24 25 27 30 33 36 38 41 43 45 46 48 49 50 52 53 51 48 47 46 43 39 37 34 31 30 29 27 27 29 29 30 33 34 34 30 28 29 27 28 28
21 21 23 25 28 31 34 37 39 41 44 46 48 49 51 52 52 50 48 47 45 42 40 37 34 30 28 27 23 23 24 25 27 31 33 34 30 28 26 27 25 26 28
18 21 24 27 30 32 35 36 39 42 42 44 46 49 50 50 47 44 44 42 39 39 36 35 32 30 29 25 24 22 22 25 28 30 32 32 28 26 27 25 24 24 25
20 23 26 29 32 34 36 39 40 36 38 42 46 48 47 45 41 41 41 38 36 36 35 32 29 28 24 23 23 23 24 26 29 30 32 29 24 23 24 24 23 21 19
22 24 27 30 33 35 37 39 40 42 44 45 46 47 44 40 39 39 37 35 33 32 31 28 27 24 23 23 23 24 25 26 28 29 27 25 23 23 23 22 23 22 18
24 26 29 32 34 36 38 39 41 43 46 48 47 43 41 38 36 35 35 34 33 31 27 25 24 23 23 23 24 24 26 28 27 25 25 24 24 23 21 21 20 19 16
26 28 31 33 35 36 38 40 42 45 47 46 43 42 41 39 36 34 32 30 31 29 25 23 22 23 23 24 24 26 26 23 21 22 24 25 24 23 21 21 19 15 14
27 30 32 34 35 37 39 42 45 47 46 43 41 39 39 39 37 33 29 27 29 25 23 21 22 22 24 25 26 25 22 21 23 24 24 24 23 21 19 18 16 14 13
29 31 32 33 35 37 41 44 45 44 42 41 39 37 36 35 32 30 27 26 25 24 23 22 21 23 24 25 23 21 23 24 24 24 23 21 20 19 17 15 14 12 11
29 30 32 34 37 40 43 43 42 41 40 39 38 37 35 32 29 28 24 23 22 21 21 21 22 22 22 21 20 23 25 25 24 22 20 18 18 17 17 15 13 11 8
29 31 33 36 39 42 42 41 40 39 39 37 37 35 32 29 27 23 21 20 19 19 20 22 22 22 20 19 21 22 24 24 21 18 19 19 18 17 15 14 13 12 10
30 32 36 39 41 41 40 39 39 37 36 35 34 31 28 26 23 19 19 18 18 18 19 19 20 19 18 20 22 23 22 20 17 16 16 18 18 17 15 14 13 11 11
32 35 38 40 40 38 39 38 36 35 34 33 31 28 25 22 18 17 15 15 16 17 18 18 16 17 17 19 20 22 20 18 17 15 17 18 18 17 16 14 12 10 10

GFSGL_700_spd_036.txt.gz
Wind_Speed
26 25 25 24 23 22 22 23 25 27 29 33 37 39 41 42 43 42 42 42 42 44 45 48 49 52 54 55 56 59 62 64 69 72 69 65 63 61 59 56 53 51 50
27 26 26 26 25 24 24 26 27 29 32 36 39 41 42 42 43 43 42 42 44 46 47 50 52 54 55 57 60 62 64 64 64 68 65 60 56 53 52 51 48 47 47
28 28 27 27 26 25 27 27 29 32 35 38 40 42 42 42 41 42 43 44 46 48 50 52 54 56 58 60 62 64 63 61 60 59 59 53 52 51 48 46 46 44 45
28 28 28 27 26 27 27 29 32 34 36 40 41 42 41 41 41 43 45 46 47 49 51 53 55 57 59 61 62 61 59 57 54 52 51 52 52 47 45 47 48 45 44
28 27 26 27 27 27 29 32 35 35 38 40 40 41 41 41 42 44 46 48 49 51 52 54 56 58 60 59 57 56 54 51 48 48 50 51 45 42 43 45 45 41 38
26 26 26 27 27 29 31 33 34 37 39 40 40 40 40 42 44 45 48 50 51 53 55 55 57 58 56 54 51 49 46 43 43 45 46 43 42 43 41 39 43 45 44
25 25 26 27 28 29 31 32 34 37 38 39 39 39 40 44 45 47 48 50 52 55 55 56 57 54 52 50 48 46 43 39 37 40 42 39 41 37 39 40 39 41 43
23 24 25 26 26 28 29 32 35 36 37 37 38 41 42 44 46 48 50 52 54 54 54 54 53 51 48 48 46 45 42 37 34 36 36 35 34 36 37 39 41 44 44
21 21 21 22 24 26 30 32 33 35 35 36 39 41 43 44 47 49 52 54 53 54 54 52 49 48 47 44 43 44 39 34 32 32 28 29 31 33 36 39 40 45 46
17 17 18 21 25 27 29 31 33 33 35 38 39 42 44 46 48 50 52 54 55 55 53 48 46 45 42 40 40 40 37 35 32 26 27 27 29 30 32 37 41 42 42
14 16 19 22 25 27 29 30 31 34 37 39 40 42 44 47 49 50 51 52 54 54 49 46 44 42 39 38 36 35 35 34 30 30 29 29 31 33 33 33 33 35 36
15 18 21 23 25 27 28 30 33 35 37 40 41 42 43 46 48 49 50 51 50 49 47 44 42 40 38 35 32 32 32 30 31 30 30 31 33 33 30 29 29 29 28
17 19 21 23 24 25 28 31 34 37 39 41 44 45 46 46 47 49 50 49 47 46 44 40 39 38 35 30 30 30 29 31 30 30 32 33 34 31 28 28 26 26 25
18 19 21 22 24 27 29 31 34 37 40 42 45 47 48 48 50 51 51 49 46 45 42 39 38 36 32 30 27 25 26 27 29 32 34 34 32 27 24 27 27 28 26
18 20 21 23 25 27 30 33 35 38 42 45 47 49 51 52 52 51 49 47 45 42 40 38 35 32 29 26 22 23 24 26 29 31 32 32 29 24 22 25 27 27 27
18 20 21 24 26 28 31 33 37 38 40 43 46 49 50 51 49 46 45 43 40 39 37 36 33 30 28 25 25 23 25 27 29 30 30 30 28 26 25 24 25 27 25
17 19 22 24 27 30 33 35 35 34 39 43 46 48 48 47 44 42 41 39 37 36 34 33 30 28 25 24 25 26 27 28 30 28 27 28 29 26 26 25 25 24 21
18 20 23 26 29 32 34 36 39 42 44 43 45 47 44 41 40 40 39 37 33 30 31 29 27 25 24 24 26 27 27 27 25 24 26 28 29 28 26 25 24 23 21
19 22 25 28 31 33 35 38 40 42 45 47 47 43 41 40 37 36 36 34 31 28 27 25 24 23 24 25 26 26 25 23 24 26 27 27 28 28 25 24 22 21 19
22 24 27 30 32 34 36 38 41 44 46 46 43 42 42 39 36 33 31 31 27 27 24 22 22 23 25 25 25 23 21 24 25 25 25 26 26 26 25 23 20 19 17
24 26 29 31 33 35 37 40 43 45 45 43 41 40 39 38 36 33 31 27 25 24 22 21 22 23 23 24 23 23 25 26 26 26 25 25 25 23 22 21 20 18 16
25 28 30 32 33 35 39 42 44 43 42 42 40 37 36 35 32 29 27 23 23 22 22 22 22 22 23 23 23 24 26 27 26 25 23 22 21 21 21 20 19 18 16
27 29 31 33 35 38 40 42 42 41 41 40 38 37 34 31 28 26 22 21 20 20 21 22 21 21 21 21 23 26 27 27 24 22 20 21 22 22 21 20 19 18 16
29 30 32 34 37 40 41 41 39 40 39 38 36 34 31 28 25 21 19 18 18 19 21 20 20 20 19 19 21 24 25 24 20 17 21 24 24 22 21 19 17 16 15
30 32 34 37 39 40 40 38 38 38 38 36 34 30 27 25 21 17 16 16 17 18 18 19 19 18 19 20 22 22 22 19 19 19 20 20 21 20 19 17 15 13 13
31 34 36 39 40 40 38 37 38 37 35 33 30 27 25 20 15 14 14 14 15 16 17 18 18 19 20 21 21 21 20 18 18 19 19 18 17 17 15 14 13 13 11

GFSGL_700_spd_039.txt.gz
Wind_Speed
23 23 25 25 24 24 23 22 22 22 24 26 29 32 35 38 41 42 42 41 41 41 43 43 44 47 49 50 52 54 56 59 66 68 65 62 61 59 55 51 50 47 42
24 25 26 26 25 24 23 23 23 25 27 28 31 34 37 40 42 42 41 41 41 42 43 44 46 48 50 51 53 56 59 60 62 65 61 58 55 51 49 45 42 39 38
25 26 26 26 25 25 24 24 26 27 29 31 34 36 39 41 42 42 41 41 42 43 45 47 49 51 52 53 56 58 59 58 57 58 57 52 50 44 41 41 42 39 37
25 26 26 25 24 24 25 26 26 29 31 33 35 37 40 41 41 41 41 42 43 44 46 48 50 52 54 56 58 59 58 55 52 51 51 50 45 41 41 44 42 32 38
25 25 25 24 24 25 25 26 28 31 32 33 36 39 40 40 40 41 42 43 45 46 47 49 51 52 54 56 56 55 53 51 47 45 46 45 40 40 41 38 39 37 33
24 24 22 23 24 25 25 28 30 31 32 34 37 38 39 39 40 41 44 45 47 48 50 50 52 53 54 54 51 49 47 44 40 41 44 40 39 40 36 38 39 40 40
22 21 22 22 23 25 27 29 30 30 32 35 36 37 37 39 41 42 44 46 48 49 50 52 53 54 53 51 48 45 42 37 35 38 39 36 38 34 37 37 37 41 44
19 19 21 22 24 25 27 27 28 31 33 34 35 36 38 40 42 44 46 48 49 50 51 52 53 52 49 48 45 43 39 34 32 32 33 31 32 34 35 38 42 44 44
18 20 21 22 22 23 24 26 29 30 32 33 35 37 39 41 43 45 48 49 50 52 52 51 51 49 46 42 41 40 36 31 30 30 27 28 28 30 36 40 40 43 41
17 17 18 18 20 22 24 26 28 30 30 32 35 38 41 42 44 46 48 51 53 54 51 49 46 43 40 38 38 38 36 32 29 23 25 25 29 31 33 35 35 37 38
13 14 15 18 20 21 24 26 27 29 32 33 36 38 41 44 46 47 48 51 53 53 51 46 42 39 37 36 35 33 33 32 27 27 24 27 30 31 32 30 29 32 33
12 13 16 18 20 22 24 25 27 30 33 35 37 38 40 43 46 48 50 51 51 50 46 41 38 37 36 34 32 31 30 28 29 28 28 30 31 31 30 26 26 28 28
11 14 16 18 20 22 23 26 29 32 34 37 39 40 41 43 46 49 50 49 48 45 42 38 36 35 34 30 29 28 27 28 28 29 30 32 32 30 26 26 24 26 24
13 14 16 18 19 21 24 27 30 33 36 38 41 42 44 47 50 51 50 48 44 42 40 38 35 34 31 28 25 24 26 27 29 31 32 32 29 27 25 27 28 27 25
13 14 16 17 20 23 26 29 31 35 38 40 43 45 49 51 51 51 49 46 44 42 40 36 32 30 26 24 22 23 24 26 28 30 30 27 26 27 25 26 27 26 26
13 14 16 19 22 25 27 30 33 35 38 41 43 47 48 49 48 46 45 42 41 39 36 32 30 28 26 24 23 23 25 27 28 27 25 28 30 30 28 25 26 26 24
13 16 18 21 24 26 29 31 31 32 36 40 44 46 46 45 44 43 42 39 38 35 31 28 27 25 23 23 25 26 26 25 24 26 29 30 31 29 29 27 26 24 21
15 17 20 23 25 28 30 33 35 38 39 39 42 44 42 40 39 39 39 36 31 29 27 25 24 23 23 24 25 24 22 22 25 27 28 29 29 29 28 27 25 23 21
16 19 22 24 27 30 32 34 36 39 42 44 44 41 40 38 36 35 35 33 29 24 23 22 22 23 23 23 23 21 22 24 26 27 26 26 27 28 26 25 23 22 20
18 20 23 26 29 31 33 35 38 41 43 43 42 41 40 38 36 33 30 28 24 22 21 20 21 22 21 21 21 21 22 24 25 25 24 24 25 26 25 24 24 23 20
20 23 25 28 30 32 35 38 40 42 42 40 39 39 38 37 36 31 27 23 21 20 19 19 20 20 21 21 21 23 24 25 25 23 21 23 25 23 23 23 22 21 21
22 25 27 29 31 34 37 39 41 41 39 38 38 37 35 34 30 26 23 19 19 19 20 19 19 20 21 21 22 24 25 26 24 22 22 24 24 24 23 22 20 20 20
24 27 29 32 34 36 38 40 40 38 36 37 37 35 33 28 25 22 18 17 17 18 19 19 19 19 21 21 23 26 27 25 23 24 24 24 25 26 24 22 20 18 18
26 29 32 34 36 37 39 39 37 36 36 36 35 33 28 25 22 17 15 15 16 17 18 19 20 20 20 21 22 24 25 25 24 23 25 26 26 24 22 18 16 17 17
29 31 33 36 37 38 38 36 35 35 36 35 33 28 25 21 16 14 13 14 15 15 17 19 20 20 20 22 23 24 23 23 23 23 23 24 22 20 17 14 15 15 15
30 33 35 37 39 39 37 35 35 35 34 32 29 25 22 16 12 10 11 12 12 14 17 18 18 20 20 21 21 21 22 22 22 23 24 25 22 18 14 13 14 15 14

GFSGL_700_spd_042.txt.gz
Wind_Speed
33 28 25 24 24 26 29 28 25 24 24 25 26 27 30 33 35 38 41 42 42 43 43 43 43 45 46 48 51 53 55 57 62 64 62 60 59 59 58 52 50 47 41
30 27 24 23 25 25 29 25 24 24 25 26 28 30 33 35 38 40 42 42 42 42 43 44 45 46 48 50 52 54 56 57 60 64 60 58 57 56 51 48 45 41 40
29 26 24 23 27 25 24 24 25 25 26 28 30 32 35 37 39 41 42 42 42 43 43 45 46 48 50 52 53 55 57 58 57 59 60 55 54 50 46 43 43 40 36
27 24 23 23 23 24 24 24 25 26 27 30 32 34 37 39 40 42 42 42 42 42 44 45 47 49 51 53 54 55 57 56 56 54 53 53 51 44 42 43 44 32 37
25 23 22 23 23 24 24 24 25 26 29 31 33 37 37 38 41 41 41 42 42 43 45 47 49 50 51 53 54 54 54 54 51 48 49 49 45 40 40 39 39 38 34
23 21 20 22 23 23 24 24 25 28 30 32 36 35 38 38 39 40 41 42 43 45 47 48 50 52 52 52 52 51 50 48 45 44 45 45 40 38 37 36 39 39 42
22 21 21 22 22 22 22 24 26 28 32 33 34 36 36 37 38 39 41 43 44 46 48 49 51 52 52 52 51 48 45 42 40 41 41 38 39 33 36 34 36 41 43
20 21 22 20 20 21 23 25 27 29 30 32 33 34 34 36 38 40 42 44 45 47 48 50 51 51 50 49 47 45 43 40 36 35 34 33 31 33 34 37 40 40 40
19 18 18 19 20 22 23 25 25 26 29 30 31 32 34 37 39 41 43 45 48 50 50 49 50 50 47 44 43 42 40 35 32 31 30 28 27 28 34 38 38 43 39
17 17 18 19 20 21 21 21 24 26 28 29 31 33 35 37 40 42 45 47 50 52 51 49 47 45 42 39 39 39 38 32 31 25 25 26 27 29 32 36 39 39 35
16 16 16 17 18 17 19 22 24 25 26 29 32 35 37 40 42 44 46 48 51 51 50 47 44 42 39 37 36 35 34 33 27 27 26 27 29 32 33 33 34 34 34
14 14 14 13 14 17 20 22 23 25 28 30 32 35 38 40 43 45 48 48 48 48 46 45 41 39 37 34 33 31 30 28 29 28 28 29 31 31 29 29 29 31 31
11 10 11 13 15 18 20 22 24 27 30 32 34 36 38 41 44 46 47 46 46 45 43 40 37 35 32 30 28 28 27 29 30 31 31 31 31 29 29 31 28 29 27
8 9 11 14 17 18 20 23 26 29 31 34 36 39 41 43 45 46 47 47 45 43 41 37 34 30 29 26 24 25 27 29 30 31 30 29 29 30 30 32 31 29 27
8 11 13 15 17 19 22 25 28 30 33 36 39 41 44 46 47 48 47 44 42 41 39 35 30 27 25 24 24 25 26 28 28 27 27 30 30 31 29 29 28 27 27
10 12 14 16 18 21 24 27 29 33 36 39 40 43 44 45 46 46 44 40 39 38 35 31 27 26 24 24 24 24 25 24 24 26 28 29 30 30 29 27 27 27 26
11 13 15 17 20 23 25 28 30 33 34 37 40 41 43 44 43 43 41 38 37 34 30 26 25 24 24 24 24 24 22 22 26 27 29 29 28 28 28 27 26 26 23
12 14 17 19 22 25 27 30 32 33 34 35 38 42 42 41 40 40 39 36 30 28 24 23 23 23 23 23 23 22 22 24 27 28 27 27 26 28 29 27 25 26 24
14 16 19 21 24 27 29 32 34 36 38 40 41 39 38 36 35 34 34 30 25 21 21 21 22 23 22 22 22 22 24 26 27 27 25 24 26 28 28 28 25 24 24
16 18 21 24 26 28 31 33 35 37 39 40 40 40 39 37 34 31 27 25 20 19 19 20 21 21 22 22 21 22 23 25 25 24 24 25 26 28 28 27 25 25 23
17 20 22 25 28 30 33 35 38 40 40 39 38 37 37 36 34 29 25 20 18 18 18 18 19 20 21 22 22 23 25 25 25 25 24 25 26 26 26 26 25 23 22
19 22 25 27 30 32 35 37 39 39 39 37 35 35 33 32 28 24 20 17 17 17 17 17 18 19 21 22 23 24 25 25 24 24 25 26 26 25 25 25 22 20 20
21 24 27 29 32 34 37 39 39 38 35 34 34 33 31 27 23 20 15 14 15 15 16 17 18 19 21 22 24 25 25 25 25 27 28 28 27 24 23 23 20 18 18
24 27 29 32 34 36 38 38 35 34 34 34 33 32 28 23 20 14 12 12 13 14 15 17 19 20 21 21 21 22 24 25 26 27 29 29 26 23 20 18 17 16 16
26 29 31 34 36 38 36 33 33 34 34 33 31 28 23 19 14 10 10 10 11 13 15 17 19 20 20 20 20 22 23 24 26 26 27 27 24 21 17 16 14 13 13
28 31 34 37 37 35 34 34 34 34 33 32 28 23 19 13 8 7 8 9 9 12 14 16 17 18 18 19 20 21 23 24 24 26 28 26 23 19 16 15 14 13 13

GFSGL_700_spd_045.txt.gz
Wind_Speed
43 39 34 30 28 27 28 26 23 24 25 26 26 26 27 28 31 34 37 40 42 43 45 44 44 45 44 45 47 50 52 54 59 59 58 58 58 59 58 55 52 50 46
39 34 33 29 27 26 27 22 27 28 28 27 26 27 28 30 33 36 40 42 42 45 44 44 44 45 46 47 50 51 54 55 58 62 60 59 57 55 53 51 47 45 41
34 33 31 26 25 27 21 27 28 28 27 26 27 28 30 32 35 38 41 42 44 43 43 44 44 46 47 49 51 53 55 55 57 60 61 57 54 51 49 46 44 41 38
33 30 27 25 24 23 26 26 25 26 25 26 27 29 32 34 37 40 41 43 42 42 43 44 45 47 48 51 53 54 54 55 56 56 55 52 50 48 46 45 42 39 33
31 29 26 24 21 22 25 26 25 24 25 27 29 31 34 36 39 40 41 41 41 42 43 44 46 48 50 52 53 54 54 54 52 50 49 49 48 45 42 41 40 37 33
30 26 24 20 25 24 23 23 23 25 26 28 30 32 36 37 38 38 39 40 41 42 44 45 48 50 52 53 54 53 51 49 47 45 45 47 44 40 40 38 37 38 39
22 21 24 23 22 21 21 21 23 25 26 28 31 35 34 35 36 37 38 40 42 43 45 47 49 51 51 52 52 50 47 44 41 42 44 43 41 37 37 37 35 36 40
24 26 23 21 19 19 21 23 23 24 27 31 31 31 32 33 35 37 39 41 43 45 47 48 50 51 50 50 49 47 45 42 40 40 40 38 35 33 36 37 38 39 36
27 25 19 17 17 19 20 21 23 27 27 27 28 29 31 34 35 38 40 42 45 47 49 49 50 50 48 48 47 45 42 39 36 34 34 32 31 30 32 37 35 40 38
14 13 14 15 16 17 20 22 24 22 25 26 27 29 32 34 36 38 41 44 46 48 48 48 47 46 45 44 43 42 40 36 33 30 26 28 29 29 31 34 37 38 38
12 12 13 14 16 18 19 18 20 22 24 25 28 31 33 35 37 40 42 45 47 49 48 46 44 42 42 39 37 34 34 34 30 29 29 28 30 32 32 31 31 35 39
13 13 13 14 14 14 16 18 21 22 24 26 29 31 34 37 41 42 43 45 46 47 45 43 40 39 37 33 32 32 31 30 30 30 31 31 31 29 27 29 31 33 34
11 11 12 11 12 14 17 19 20 22 25 27 30 32 35 38 41 43 45 45 45 44 42 40 38 36 32 29 29 29 28 30 31 30 30 28 28 30 31 31 30 30 29
10 8 9 11 13 15 17 19 21 24 27 30 32 34 36 39 43 45 45 43 43 42 40 38 35 30 28 27 26 26 28 29 30 30 29 31 32 32 32 32 33 31 29
7 8 10 11 13 15 18 21 24 26 29 31 34 37 40 42 43 44 44 43 43 41 39 35 30 25 24 24 25 26 26 27 28 29 32 34 34 32 29 29 30 30 30
7 8 10 13 15 18 20 22 25 28 31 34 38 40 41 43 44 44 42 40 39 37 34 30 25 25 24 24 24 23 24 26 27 29 31 32 32 30 29 29 31 31 30
8 10 13 15 17 20 22 25 27 30 33 35 37 39 41 42 43 42 40 38 36 32 28 25 24 24 24 24 24 25 24 25 28 30 31 30 28 27 30 31 32 30 29
10 12 15 17 19 21 24 26 30 32 34 36 40 41 40 39 39 39 38 35 31 27 23 22 22 23 23 23 23 24 24 26 28 29 28 27 28 30 30 31 31 31 30
12 14 16 19 21 23 26 29 32 34 36 38 39 38 38 36 35 35 35 32 26 21 19 20 21 22 22 23 24 24 26 28 29 29 28 27 28 30 30 29 29 28 28
14 16 18 21 23 26 29 31 34 37 39 39 39 38 37 35 33 31 28 24 19 17 17 18 20 21 22 24 25 26 26 27 27 27 27 27 28 29 28 27 26 26 24
15 18 20 23 26 28 31 35 37 39 39 37 36 36 36 35 33 29 24 19 15 15 15 17 18 20 22 23 25 25 26 26 27 28 28 28 28 27 24 24 22 22 23
17 20 23 26 29 32 35 37 39 39 37 36 35 34 33 31 30 24 20 15 14 14 14 15 18 20 22 23 24 24 25 27 28 29 30 29 27 25 22 20 19 22 23
20 23 25 28 31 34 37 39 38 36 35 35 35 33 31 30 24 20 14 12 12 12 13 16 17 19 21 22 23 25 27 28 30 31 31 30 27 23 21 20 21 21 21
22 25 28 31 34 37 39 38 37 36 36 35 33 31 30 25 20 15 10 10 10 12 14 16 18 19 20 20 21 23 26 29 30 30 31 31 27 24 22 20 19 18 17
25 28 31 34 37 38 37 38 37 37 36 34 32 29 25 21 15 9 7 8 8 11 13 15 17 18 18 19 21 23 25 26 28 29 30 30 27 24 21 19 17 16 16
27 30 34 37 37 38 39 39 38 36 34 32 28 24 21 14 8 5 5 6 8 11 13 14 16 17 18 19 21 22 23 25 27 28 29 28 25 24 21 19 17 17 17

GFSGL_700_spd_048.txt.gz
Wind_Speed
42 47 45 37 37 36 33 31 29 30 28 30 27 27 27 29 27 27 30 32 36 39 42 44 45 46 46 45 45 46 47 50 55 56 57 59 60 60 59 56 53 50 48
43 42 34 34 34 33 31 28 27 28 26 23 28 27 28 27 28 29 32 35 38 41 44 45 45 46 45 46 47 48 49 51 56 60 60 60 59 57 55 53 49 45 42
38 33 32 32 32 31 29 27 27 27 22 31 24 29 27 28 28 31 34 37 40 44 44 44 45 45 45 46 48 50 51 54 55 58 59 57 55 51 50 47 45 40 36
31 33 31 31 31 29 27 21 23 23 27 25 24 25 27 27 30 34 36 40 43 42 42 43 43 44 46 48 50 51 54 55 55 55 55 53 50 47 45 44 40 36 33
30 31 30 29 27 26 24 25 24 24 27 25 26 27 26 29 33 35 40 41 40 41 41 42 43 45 47 50 52 54 55 55 54 54 53 50 46 43 41 39 38 36 28
30 29 27 28 27 23 22 24 28 25 23 23 23 25 29 31 35 39 37 38 39 40 40 41 43 45 47 50 51 52 51 50 50 49 48 45 43 39 38 38 35 35 36
28 27 27 24 22 24 25 24 18 19 23 24 26 27 30 34 34 35 36 37 37 39 41 43 45 46 49 50 50 50 47 44 42 42 42 40 40 36 37 37 34 35 34
28 25 24 23 24 27 20 20 20 20 22 22 26 30 31 30 31 34 35 36 38 40 42 44 47 49 49 49 50 49 46 42 38 36 35 37 36 33 35 38 38 39 34
23 26 29 32 24 18 18 17 17 17 21 25 26 26 27 30 30 33 35 37 39 41 43 46 47 48 48 47 47 46 42 35 32 30 30 31 32 32 33 38 38 40 38
30 29 27 18 13 9 10 12 16 20 21 22 23 25 27 30 33 34 36 39 42 44 44 45 44 45 45 43 42 41 36 32 30 27 25 27 30 31 32 33 36 38 39
19 12 9 7 5 7 13 14 15 17 18 21 23 26 29 31 33 35 38 40 43 46 45 44 43 43 41 38 35 32 31 31 29 29 29 28 28 28 28 30 33 36 38
11 7 3 3 7 7 9 12 15 18 20 22 25 27 30 33 36 38 40 43 45 47 46 45 42 39 37 32 29 29 28 29 30 29 28 27 28 28 28 29 30 31 33
5 3 3 2 6 8 11 14 16 19 22 24 26 28 31 34 36 39 42 43 44 45 43 41 38 35 30 25 26 27 28 29 29 29 28 29 31 32 30 29 26 28 28
2 2 3 6 8 11 14 16 18 21 23 25 27 30 32 35 39 42 43 43 43 41 39 35 34 29 25 25 24 26 27 28 30 30 31 32 32 31 28 28 30 30 30
1 3 6 8 11 13 15 17 19 22 24 27 30 33 36 39 41 43 44 43 41 40 37 34 29 23 22 22 23 25 26 27 28 28 31 33 32 29 26 29 31 32 33
4 6 8 10 12 14 16 19 22 24 27 30 33 36 39 42 44 43 40 38 38 37 34 29 23 22 22 22 23 22 25 27 28 30 32 33 33 32 31 29 32 33 34
6 7 9 12 14 16 19 21 24 27 30 32 35 38 41 42 41 39 38 37 36 33 27 22 21 21 21 22 24 25 26 26 29 31 32 32 32 31 32 32 32 32 32
8 10 12 14 17 19 21 24 27 29 31 35 39 41 39 37 36 37 37 34 31 26 22 20 20 20 21 22 24 25 25 27 28 29 30 31 31 32 32 31 30 30 31
10 12 14 16 19 21 24 27 29 32 35 38 39 37 36 35 36 36 34 32 26 19 17 18 19 19 21 22 24 25 26 27 29 30 30 31 31 32 31 29 28 27 28
12 13 16 18 21 24 26 29 32 36 38 38 37 36 36 34 33 30 28 24 19 16 16 17 18 20 21 23 24 24 25 27 28 30 31 31 31 31 30 28 26 26 25
13 16 18 21 24 26 29 33 37 39 39 37 35 35 36 34 31 29 24 19 14 13 14 15 17 19 21 22 22 24 25 27 29 31 32 32 30 27 25 24 23 23 25
15 18 21 23 26 29 34 37 39 39 38 37 35 34 33 30 28 24 18 13 12 12 12 14 16 19 20 21 23 24 26 29 31 33 33 31 29 27 25 23 23 24 25
17 20 22 25 29 34 37 39 40 40 39 38 36 34 30 28 23 17 12 9 10 10 12 14 16 18 20 21 23 25 27 30 32 32 33 32 31 29 28 27 25 23 23
19 22 25 29 33 36 38 39 40 41 41 38 35 31 28 22 17 11 6 6 8 9 11 13 15 18 20 21 22 24 25 28 30 33 32 31 30 28 27 24 23 23 23
21 24 28 32 35 37 39 41 42 42 39 35 29 25 21 17 11 5 4 5 6 8 11 13 16 18 20 21 23 23 23 25 27 29 31 30 29 28 25 23 24 23 24
23 27 31 34 36 39 41 41 40 37 32 27 24 21 16 9 5 3 4 5 7 9 11 14 16 18 20 21 22 22 23 25 26 27 28 30 30 27 24 23 24 24 24

GFSGL_700_spd_051.txt.gz
Wind_Speed
33 44 45 43 38 32 31 34 38 35 34 34 30 25 31 31 30 35 30 25 32 33 35 38 41 44 46 46 46 46 46 48 52 53 54 55 58 59 59 58 57 55 53
29 35 41 38 36 32 31 32 31 32 33 29 27 27 27 31 28 30 30 26 31 33 38 40 44 47 45 45 46 46 47 49 52 56 57 59 59 58 59 58 55 51 48
29 30 33 36 32 32 31 31 30 30 27 29 31 28 27 35 33 28 24 29 31 37 40 44 45 44 44 45 46 47 49 50 52 56 58 57 56 54 53 51 48 44 40
26 28 27 27 27 28 28 29 28 28 28 31 32 26 37 34 22 22 27 31 37 40 44 42 43 43 45 46 47 49 51 53 54 56 57 56 54 50 47 47 44 38 34
19 25 28 25 27 27 27 27 25 30 26 27 29 36 27 19 18 25 32 36 39 42 40 41 42 43 45 47 49 51 53 53 52 53 53 52 48 44 42 40 39 37 28
26 26 25 27 26 26 26 27 29 29 25 30 27 20 19 19 27 34 34 39 37 37 38 40 41 43 45 46 49 52 51 49 49 49 48 46 41 38 38 38 37 37 36
23 27 28 28 29 30 28 30 25 28 31 19 21 20 22 28 30 33 35 33 35 36 38 39 41 43 46 49 50 49 47 43 42 43 41 37 38 35 36 37 38 39 37
26 28 30 32 32 28 27 28 28 20 19 17 14 22 23 28 31 30 31 33 34 36 38 41 43 46 48 49 49 48 45 41 39 35 33 33 33 33 36 39 40 42 40
31 29 33 32 27 31 29 27 19 11 10 14 18 22 25 25 26 29 30 32 35 37 39 42 46 48 47 47 47 45 42 37 31 29 28 30 32 32 33 37 37 40 41
32 30 28 23 22 23 19 4 6 8 12 16 19 21 23 25 27 28 31 33 36 38 41 43 43 45 45 44 43 42 38 31 28 26 24 25 27 28 29 32 37 40 41
22 19 16 14 10 7 5 3 6 9 13 16 19 21 23 25 27 30 33 37 40 42 43 42 42 43 42 39 38 35 31 30 29 28 26 26 25 26 28 30 31 34 35
18 17 11 9 5 3 3 4 8 11 13 16 19 22 25 28 30 33 36 40 43 44 43 42 42 41 38 35 31 28 28 29 29 27 27 27 28 28 28 30 29 29 29
12 11 9 7 4 1 4 7 10 12 15 18 21 24 27 30 32 35 38 41 42 42 41 41 40 37 33 28 25 26 27 28 28 29 29 28 30 31 30 31 28 29 29
11 9 6 3 1 3 5 8 12 15 17 20 24 27 29 32 35 38 39 39 39 38 38 37 35 32 27 24 24 25 27 28 30 31 32 32 32 32 30 31 32 32 32
8 7 4 3 5 8 11 13 16 18 21 24 27 29 31 35 38 39 39 39 40 40 38 34 30 23 20 21 22 23 25 27 28 29 31 32 31 32 30 30 31 33 34
8 6 7 8 10 12 14 16 19 21 24 27 29 32 37 39 38 38 38 38 38 37 34 30 24 20 20 20 20 20 24 27 28 29 30 31 32 32 32 31 32 33 34
7 7 9 10 12 14 16 19 22 24 26 29 33 37 39 39 39 38 38 37 36 33 29 23 19 19 19 20 22 24 24 25 27 28 30 32 33 34 35 34 33 32 30
6 8 10 11 13 15 18 20 23 25 29 34 38 39 38 38 38 38 37 34 31 29 24 18 17 18 18 20 22 23 23 25 26 29 30 32 33 35 34 33 30 29 29
7 9 11 13 15 18 21 23 27 32 36 38 39 39 39 37 37 36 34 32 29 21 16 16 16 17 19 20 21 22 24 25 28 29 30 31 32 32 30 29 28 27 28
9 10 12 15 18 21 24 28 32 36 39 41 42 42 39 36 34 31 29 27 20 14 12 13 15 17 19 19 20 21 22 24 26 29 31 32 31 29 29 28 27 28 26
10 12 15 18 21 24 28 32 36 39 41 43 43 42 40 37 33 29 25 19 12 9 10 12 14 16 17 18 20 21 22 24 28 30 31 31 31 30 28 26 25 25 26
12 15 18 20 24 27 31 35 39 42 44 44 42 38 35 31 27 23 17 12 7 7 8 11 14 15 17 18 20 21 22 25 27 29 31 31 31 30 28 27 27 27 28
14 17 19 23 26 30 34 38 41 43 43 41 38 32 27 22 17 13 9 4 5 7 9 12 13 15 18 19 21 22 24 26 28 29 30 32 32 30 28 27 27 28 28
16 18 21 25 28 32 36 39 42 42 40 36 32 27 22 16 11 6 2 3 5 7 10 12 13 15 17 18 19 21 23 26 27 28 30 30 30 29 27 26 27 29 29
17 20 23 26 30 34 37 39 38 37 35 31 25 19 14 9 6 5 5 5 6 8 11 12 13 15 17 18 18 20 22 23 26 27 28 28 29 28 27 26 27 28 27
19 22 25 28 32 35 36 36 35 32 28 22 16 12 10 9 8 7 6 6 8 9 10 12 13 16 17 17 19 20 22 24 25 26 27 28 28 29 28 27 26 27 27

GFSGL_700_spd_054.txt.gz
Wind_Speed
30 30 34 39 43 43 40 37 35 36 36 37 37 37 38 33 30 29 41 34 31 40 40 32 34 35 40 46 49 51 49 50 52 52 53 53 53 54 55 57 58 60 59
25 28 25 32 36 37 36 34 33 32 32 35 37 38 32 29 33 32 37 37 34 32 27 28 33 38 44 47 49 48 48 48 51 53 54 55 57 57 58 59 57 55 53
21 23 23 28 31 33 34 33 32 30 32 35 35 34 30 32 32 32 36 37 40 34 31 31 38 42 45 46 46 47 48 49 50 54 56 57 58 57 58 55 54 48 43
24 23 21 24 27 33 34 34 31 29 30 32 33 29 37 35 32 36 38 35 29 29 32 35 40 43 42 44 46 47 49 50 51 54 58 59 58 55 52 51 46 38 37
18 19 21 22 28 25 31 29 29 29 29 31 35 34 29 36 31 33 29 30 29 29 34 38 39 40 43 44 47 48 50 52 53 55 57 57 53 49 44 40 40 39 36
18 19 19 23 22 24 24 26 27 31 30 40 35 27 26 26 26 26 25 28 30 34 34 36 39 41 43 45 47 49 52 53 53 54 54 51 46 41 38 38 40 39 37
20 19 26 25 26 22 24 27 29 36 31 30 28 23 20 21 21 22 26 31 31 32 35 37 39 42 44 46 49 51 51 50 49 49 49 43 39 37 38 39 37 37 36
11 22 15 23 19 26 24 28 37 26 31 17 13 14 16 19 21 23 27 29 31 34 36 39 41 42 45 49 51 52 51 47 44 43 38 35 35 35 35 37 37 40 38
7 9 13 25 20 22 29 31 28 22 13 10 9 12 15 19 22 22 26 30 32 34 37 39 42 46 48 48 50 50 47 42 39 33 30 31 33 33 33 37 37 40 39
9 17 20 19 14 15 20 16 10 6 6 8 10 13 18 19 21 24 27 30 31 33 36 41 44 46 46 46 47 46 43 39 32 27 25 26 29 29 31 34 37 41 41
11 8 7 12 16 14 10 6 4 5 6 8 11 14 19 21 24 27 29 32 35 37 40 42 42 44 44 44 42 40 37 32 29 29 27 26 26 28 28 30 34 37 38
19 20 19 17 12 9 6 2 3 6 8 11 14 17 20 22 25 29 32 36 40 42 42 42 43 43 42 39 36 31 28 28 28 27 28 28 29 29 28 31 33 34 36
19 16 14 11 8 5 3 1 2 5 9 12 16 19 23 26 29 32 36 40 41 42 42 42 43 41 37 33 27 26 26 26 27 28 29 29 30 32 32 32 32 33 33
15 12 10 8 5 4 3 5 8 11 14 17 20 23 26 29 33 37 39 39 39 39 39 39 37 34 31 25 23 24 25 27 28 29 29 30 31 33 33 34 34 35 35
11 10 8 6 4 5 7 9 11 13 16 19 23 27 30 35 38 40 39 39 39 39 37 34 30 26 20 20 21 22 24 25 26 27 29 32 33 34 35 35 34 33 34
10 7 6 5 6 6 8 10 14 17 21 24 27 31 35 39 40 39 39 38 39 37 33 30 26 19 17 17 18 19 22 23 25 27 29 32 34 35 35 33 33 31 30
7 6 6 7 8 11 13 16 19 22 25 29 33 38 41 44 43 41 39 37 36 32 29 24 18 16 16 17 18 19 19 21 23 26 29 31 32 33 34 32 31 29 27
7 7 8 10 11 13 16 19 22 25 30 34 38 41 43 44 44 42 40 35 30 27 25 17 15 15 16 17 17 18 19 20 23 26 27 30 32 33 32 32 30 30 29
7 8 10 11 14 16 19 21 25 29 34 38 41 45 46 44 42 40 35 30 24 21 15 12 12 14 15 15 16 18 20 21 24 26 27 29 31 31 30 30 29 27 29
7 9 11 13 16 18 21 25 29 33 38 42 44 46 44 40 35 30 25 21 18 12 8 9 11 13 14 15 17 18 19 21 22 24 27 29 30 30 29 29 29 30 30
8 10 13 15 17 20 24 27 32 36 40 43 45 45 42 34 26 20 15 12 8 6 7 9 11 12 14 16 17 18 19 21 23 25 27 28 29 29 29 29 29 30 31
9 11 13 16 19 22 26 30 34 38 41 43 41 37 30 23 19 14 10 7 6 6 7 8 10 12 14 15 16 18 20 22 24 26 28 28 29 29 30 30 30 31 31
10 12 15 18 21 25 29 33 36 38 40 40 34 27 21 15 11 9 9 7 6 7 7 8 11 13 15 16 18 19 21 23 25 28 29 29 31 32 32 31 30 31 32
11 14 16 20 23 27 30 34 36 37 37 32 25 19 13 9 8 8 7 5 5 6 7 9 12 14 14 16 17 20 22 25 27 28 30 31 31 30 31 31 29 30 32
13 15 18 21 24 28 31 33 34 35 31 24 18 11 7 6 6 6 5 5 6 7 9 10 11 14 15 16 17 20 23 25 26 29 30 30 30 30 30 30 30 29 30
14 17 19 22 26 29 31 33 33 31 26 18 11 6 3 3 3 4 4 5 6 7 9 10 12 13 15 16 18 21 23 25 26 28 29 28 29 30 29 29 30 29 29

GFSGL_700_spd_057.txt.gz
Wind_Speed
39 43 41 40 35 36 41 39 39 39 38 38 37 37 36 37 39 41 40 42 36 39 43 45 37 42 43 38 38 41 46 50 53 52 52 51 51 51 51 54 57 59 59
37 39 35 33 32 33 32 36 38 37 37 35 35 36 36 38 40 39 43 40 39 42 49 42 41 34 43 40 40 44 47 48 49 52 52 53 54 54 57 59 58 58 57
28 26 25 26 27 31 29 31 36 34 34 34 35 36 34 34 37 42 37 43 37 40 36 37 38 39 36 39 42 44 44 46 48 51 54 55 57 58 59 59 59 56 51
23 23 25 23 24 23 25 28 31 31 32 32 33 27 33 35 39 37 40 41 40 33 30 35 34 36 39 40 40 42 44 46 48 51 54 58 59 57 58 58 57 49 44
22 24 24 21 19 21 25 27 28 30 30 30 27 31 32 33 38 39 43 40 28 26 25 31 34 37 36 38 40 42 45 48 50 54 56 57 56 56 53 51 49 43 39
18 20 19 16 16 19 19 23 30 31 30 31 29 27 28 33 40 35 34 23 25 27 28 32 31 34 36 38 41 45 48 51 52 54 54 55 54 51 47 43 42 40 40
14 13 14 13 16 14 18 21 20 22 29 31 27 33 32 30 21 24 19 23 26 27 29 32 33 36 38 41 43 47 49 49 49 51 52 50 49 44 42 41 41 39 39
10 12 12 13 17 20 16 20 20 26 27 26 29 23 20 17 14 18 21 23 26 29 31 33 35 37 40 44 47 49 49 46 46 46 43 41 39 37 39 40 40 41 41
3 6 13 9 7 19 10 13 25 15 13 14 15 13 9 11 16 18 21 22 26 29 33 36 38 40 43 45 47 48 47 45 43 38 34 32 34 35 37 40 40 42 42
2 5 6 6 6 4 10 9 11 11 9 12 7 5 8 13 15 21 22 25 28 31 34 37 40 42 43 45 47 48 46 42 37 29 27 28 30 32 34 38 40 43 44
7 6 8 8 7 7 11 12 10 7 3 3 7 9 13 15 17 21 25 27 30 33 36 38 40 42 43 45 45 43 40 36 30 28 27 27 28 30 31 33 36 39 41
16 18 20 20 17 13 10 8 5 2 1 4 7 11 14 17 21 24 28 32 36 38 39 40 42 42 43 42 39 35 30 26 26 26 27 27 29 30 31 33 35 37 39
22 19 16 14 12 10 6 4 2 2 5 8 11 15 18 21 25 29 33 37 40 42 41 42 43 41 38 35 31 25 23 23 24 25 26 27 29 32 34 35 35 35 35
17 14 12 11 9 7 4 2 4 7 9 12 15 19 22 26 31 35 39 42 43 43 40 39 38 35 31 26 21 21 22 24 25 25 26 28 31 32 33 35 35 35 33
13 11 9 8 6 5 6 8 10 12 14 16 19 24 29 33 37 40 44 44 42 39 37 34 30 27 21 18 19 20 22 23 23 25 27 29 30 31 31 33 33 33 32
10 8 6 5 6 8 9 11 12 13 17 21 26 30 33 37 42 43 43 41 39 35 30 26 22 17 13 14 16 18 20 21 22 24 27 30 32 32 31 30 32 33 32
7 6 5 6 7 8 10 12 15 18 22 26 30 35 40 43 45 44 41 37 33 27 22 19 13 11 12 14 16 17 17 20 22 25 27 29 31 31 33 32 31 32 31
4 4 5 7 9 11 13 15 18 22 27 31 35 39 42 44 44 40 34 28 22 18 15 10 9 11 13 14 16 16 18 20 22 24 27 29 32 33 33 32 31 31 32
5 6 8 9 10 12 14 18 21 25 29 34 38 41 42 41 37 29 23 15 11 10 8 8 10 12 13 15 16 18 19 21 23 25 27 28 30 32 32 31 30 30 33
5 6 7 9 11 14 17 20 25 29 33 36 39 40 38 33 25 19 13 10 8 8 8 9 10 12 14 15 16 17 19 22 23 25 26 28 30 31 32 31 32 33 32
5 7 9 11 13 16 19 23 27 31 34 36 38 39 34 23 14 10 7 6 6 7 7 8 10 12 14 15 16 17 19 22 25 26 28 29 31 31 31 32 33 33 33
6 8 10 12 15 18 21 25 29 32 35 36 37 35 27 17 9 5 4 4 4 5 6 7 10 12 13 15 16 18 20 22 25 27 29 30 32 32 32 33 34 33 33
7 9 11 14 17 19 23 27 30 33 34 35 33 28 19 11 4 2 2 2 3 4 5 7 10 13 15 17 19 21 22 24 27 29 31 31 31 33 34 34 33 33 32
9 11 13 15 18 21 25 28 30 32 33 33 29 22 13 6 3 3 3 3 4 5 6 8 10 13 15 17 19 22 25 26 27 30 33 34 33 32 35 33 32 32 31
10 12 15 17 20 23 26 29 31 31 32 31 25 16 10 7 5 5 6 5 6 7 9 10 12 14 16 17 19 21 24 27 29 31 33 33 33 32 33 33 31 31 29
12 14 16 18 21 24 27 30 31 31 31 28 22 15 11 8 7 7 8 8 8 9 10 12 14 16 18 19 20 22 24 26 28 30 32 33 33 32 32 33 32 31 29

GFSGL_700_spd_060.txt.gz
Wind_Speed
45 42 42 42 40 37 34 35 36 37 37 38 38 40 40 41 41 40 41 40 39 41 40 42 42 39 43 40 43 46 41 43 46 43 46 46 46 47 47 49 52 55 57
38 42 43 46 44 41 39 39 36 34 37 37 38 37 36 35 38 39 40 38 38 36 40 45 39 42 42 38 42 39 38 39 44 47 46 47 48 48 50 52 55 58 59
33 34 35 35 36 38 36 33 36 34 35 37 37 34 34 34 36 36 38 35 44 36 39 49 40 42 36 37 37 36 39 41 43 46 47 47 49 50 54 56 59 59 57
30 34 31 28 28 27 29 32 31 30 32 34 33 32 32 32 36 37 38 38 41 39 42 34 40 36 31 35 34 35 39 43 42 45 47 50 52 54 56 58 59 57 54
19 19 23 24 22 25 26 25 23 22 26 28 30 29 30 31 32 30 38 28 37 34 36 31 29 30 31 32 34 38 39 42 43 46 49 51 53 54 55 56 55 52 45
17 18 17 16 18 19 19 18 19 28 28 25 22 26 28 25 39 30 34 32 34 29 25 27 28 28 29 32 34 38 40 43 45 49 51 52 52 52 51 47 44 41 41
13 13 13 14 14 16 17 18 19 19 24 18 19 24 26 31 24 29 22 22 20 21 25 27 29 29 32 33 36 41 43 44 47 49 50 48 47 43 41 39 39 39 40
8 9 10 9 12 12 14 16 9 10 13 17 21 23 21 17 15 17 15 15 19 20 25 28 30 31 33 37 41 43 42 42 45 45 43 40 36 34 36 38 39 41 42
5 3 5 3 7 9 5 10 12 14 8 10 17 11 6 7 11 11 13 17 21 23 26 29 31 34 38 42 44 44 43 41 40 35 31 29 29 30 33 37 37 40 42
4 4 6 3 4 4 5 4 7 8 4 10 8 3 2 6 10 12 16 18 21 26 29 32 37 40 42 42 42 41 40 36 31 25 23 24 26 28 30 33 37 41 43
8 6 7 7 8 7 12 14 11 10 9 5 6 3 5 9 12 14 17 21 24 29 33 37 40 41 40 39 39 37 34 30 24 22 21 23 23 25 27 30 33 37 40
17 18 18 19 18 15 13 11 8 5 5 4 5 5 7 10 14 18 23 27 31 34 37 39 40 39 37 36 33 31 27 22 21 21 22 23 24 26 27 30 32 35 37
21 19 16 15 13 11 9 8 7 6 5 3 6 9 13 16 20 25 29 34 38 40 40 40 37 35 32 29 26 22 19 19 19 20 21 23 25 27 28 29 30 32 30
16 14 12 11 10 9 8 8 6 6 7 9 11 14 18 22 27 32 37 39 39 39 36 34 30 26 22 20 17 16 17 19 19 20 22 24 27 28 29 32 32 31 29
12 11 10 9 8 6 5 6 6 7 10 13 17 21 25 29 33 36 38 37 35 31 25 21 18 17 16 14 15 17 18 19 21 22 25 26 28 29 30 32 32 31 31
9 8 7 6 5 4 5 6 9 12 15 18 21 25 29 32 35 37 36 32 27 21 16 12 12 10 10 11 13 16 19 20 21 23 25 28 30 31 31 30 32 33 33
6 4 4 4 4 6 7 9 11 13 18 22 26 30 33 36 37 34 30 23 16 11 10 9 8 8 10 12 14 16 16 19 21 23 25 28 30 31 32 32 32 32 30
3 2 2 3 4 6 8 11 15 19 22 26 29 32 35 36 33 28 21 14 9 7 6 6 6 8 11 12 13 15 17 19 21 23 25 28 31 32 31 32 32 33 32
0 0 1 4 6 8 11 14 17 20 24 27 31 33 35 36 30 22 13 8 5 4 5 5 7 9 11 13 14 16 18 20 22 24 27 29 30 32 32 33 32 31 32
2 2 4 6 7 10 12 15 19 22 26 29 31 33 34 32 27 18 9 3 2 2 4 5 8 10 12 14 16 18 19 22 23 25 27 30 31 32 33 34 33 33 31
3 4 6 7 9 11 14 17 21 24 28 30 31 33 32 28 21 13 6 1 1 2 4 6 9 11 13 15 16 18 20 22 25 27 28 30 32 32 31 32 32 31 32
5 6 7 9 11 13 16 19 22 26 29 31 32 32 29 23 16 9 5 4 4 5 6 8 11 12 14 15 16 18 20 22 25 27 30 32 33 33 32 33 33 32 33
6 7 9 10 13 15 17 20 24 27 30 32 32 30 26 20 13 9 8 7 7 7 8 10 12 15 16 18 19 20 20 23 26 29 32 33 34 34 34 34 34 33 33
8 9 11 12 14 17 19 22 25 29 31 32 31 29 24 17 13 11 10 9 8 9 11 12 14 16 17 19 21 23 24 25 26 29 33 35 37 35 34 34 34 34 33
9 11 12 14 16 18 20 23 27 30 32 33 31 28 23 17 14 13 12 11 10 11 12 15 16 17 19 21 23 24 25 26 27 29 32 35 37 37 35 35 36 36 34
12 13 14 15 17 19 22 25 29 32 32 32 30 27 23 18 15 13 13 12 11 13 14 16 18 21 22 24 25 25 25 26 26 27 31 34 36 36 36 36 36 36 35

GFSGL_700_spd_063.txt.gz
Wind_Speed
39 39 39 43 43 41 40 40 38 38 35 33 32 37 41 44 43 41 41 41 40 40 42 44 44 46 48 47 50 47 42 41 40 39 38 38 41 44 44 46 49 51 53
34 36 37 37 39 41 44 44 44 40 37 35 35 40 41 42 41 40 39 39 41 43 44 44 44 45 49 52 46 39 40 39 38 38 38 40 40 41 42 46 48 51 54
27 29 31 33 33 34 35 35 35 37 40 37 38 41 41 42 39 36 35 36 39 42 42 41 43 49 50 39 39 33 35 35 40 34 34 42 44 43 45 48 51 52 53
20 20 23 25 25 27 25 26 25 27 31 34 36 37 37 38 36 34 34 34 35 36 38 42 41 40 35 30 30 34 34 32 35 37 41 44 44 45 48 51 52 52 51
20 20 16 15 17 21 21 20 21 26 29 34 34 32 31 33 32 32 31 33 34 31 38 34 33 28 28 28 32 33 32 35 38 38 41 44 45 47 49 51 52 48 42
14 16 15 16 16 14 14 15 23 25 23 22 21 24 25 26 26 29 27 28 32 26 24 21 20 22 24 27 31 32 33 36 38 41 43 44 45 47 48 46 42 37 33
11 13 11 12 12 9 12 14 16 17 15 24 22 17 21 22 29 27 25 23 17 13 14 18 20 23 26 30 33 35 36 40 43 43 42 42 44 42 39 34 30 32 32
11 8 8 12 8 10 10 17 18 14 11 13 15 17 13 15 11 10 10 8 9 12 17 20 24 27 30 32 35 37 38 39 39 39 41 39 36 31 29 29 30 32 34
4 1 1 1 4 4 6 8 6 5 5 3 6 3 3 3 1 3 5 8 12 16 19 23 25 29 34 37 39 38 37 37 36 35 32 28 25 24 27 29 30 34 36
3 2 5 1 5 3 2 5 5 9 11 12 10 9 4 3 4 5 8 11 15 19 23 28 32 36 38 39 39 38 33 30 26 22 20 20 22 24 26 29 32 33 36
6 6 6 5 8 13 15 15 15 12 12 10 8 7 3 3 5 7 10 15 19 24 28 33 36 38 37 33 30 26 22 18 15 14 15 17 19 21 24 27 30 33 34
8 8 11 15 15 15 14 13 11 8 7 6 5 2 3 6 9 13 17 21 26 30 33 35 34 32 28 24 20 17 14 12 12 14 16 17 19 21 23 25 28 29 32
17 17 16 15 13 11 10 8 7 6 5 4 4 6 10 13 17 20 25 28 31 31 31 29 25 19 14 11 10 9 10 12 14 16 18 20 22 23 25 26 26 27 26
15 14 13 12 10 8 7 6 5 5 5 6 8 12 15 19 22 25 28 30 29 27 24 16 10 7 7 7 8 10 12 13 15 16 18 20 22 23 25 27 27 27 25
12 11 10 8 7 6 5 5 5 6 8 10 13 17 20 23 26 29 30 27 23 18 10 5 5 5 6 8 10 12 13 15 17 18 19 21 22 23 25 29 30 30 30
9 7 6 5 5 4 3 3 5 7 10 14 17 20 22 26 29 30 28 22 16 8 4 4 5 6 7 9 12 14 14 16 18 19 21 23 24 26 26 28 31 31 31
4 3 3 2 2 1 2 4 7 10 13 16 19 22 25 28 31 30 26 18 11 5 1 3 3 4 6 8 10 12 14 16 18 20 22 25 27 28 30 30 31 32 31
2 1 0 1 2 3 5 7 10 13 17 20 22 24 27 30 31 28 23 16 7 3 3 1 1 4 6 8 10 12 14 16 18 21 23 26 28 31 31 31 31 33 33
2 2 2 3 4 5 7 9 12 15 19 22 24 26 28 30 29 25 20 13 7 5 4 3 3 5 7 9 11 13 15 17 19 21 24 26 28 31 31 31 31 32 33
5 5 5 5 6 6 8 11 14 17 21 23 25 27 29 30 28 23 16 11 7 6 6 6 5 6 8 10 12 14 17 19 20 22 24 27 29 30 32 31 32 33 33
7 7 7 7 7 9 11 13 16 18 22 24 26 28 29 29 26 21 15 9 8 9 8 8 8 9 10 12 14 16 17 19 21 23 26 28 30 31 31 31 31 32 35
9 9 8 8 9 10 12 15 17 20 23 25 27 29 29 28 24 18 13 10 10 11 10 10 11 11 13 15 17 18 20 22 24 25 27 29 31 33 34 33 33 34 36
11 10 10 10 11 12 14 16 19 21 24 27 29 30 29 28 23 18 15 13 13 12 12 11 12 14 16 18 19 21 23 24 25 27 27 29 31 33 35 36 35 36 37
13 12 11 12 12 14 16 18 20 23 26 28 30 30 29 27 23 19 16 15 14 14 13 12 13 14 16 19 21 24 26 26 26 26 28 29 30 33 36 36 37 38 39
14 13 13 13 14 15 17 19 22 24 27 29 31 31 30 27 24 20 17 16 15 15 15 14 15 16 18 20 22 23 24 24 26 26 27 28 31 33 35 36 38 39 38
15 15 14 14 15 16 18 21 23 25 28 30 31 31 29 27 24 22 19 17 16 16 16 16 16 17 19 20 21 23 23 23 24 25 26 29 31 32 34 36 38 40 38

GFSGL_700_spd_066.txt.gz
Wind_Speed
31 34 37 38 39 39 40 40 40 39 39 39 39 39 38 37 39 42 45 44 45 44 47 42 43 43 40 43 46 49 49 59 55 55 44 41 42 43 42 43 44 43 46
23 26 29 32 35 37 38 41 42 42 42 41 40 41 43 42 39 40 45 45 43 44 42 40 39 35 44 46 46 48 53 52 47 38 38 39 42 42 43 43 44 46 48
19 21 22 25 28 31 31 32 34 35 35 37 40 41 43 42 41 42 47 44 40 39 38 37 36 38 41 45 44 46 43 40 34 35 36 39 37 41 41 43 45 48 48
15 16 18 19 20 22 23 24 24 24 24 24 27 31 37 41 41 40 39 39 36 33 32 34 34 39 43 45 39 36 32 31 32 34 36 38 40 42 43 45 46 48 47
13 15 18 18 16 16 16 18 20 20 21 23 26 29 32 34 36 33 30 32 31 29 31 35 37 40 36 33 29 29 30 32 32 37 38 40 41 43 44 45 47 47 44
14 16 17 15 15 16 17 16 18 20 22 24 22 22 25 26 27 32 28 25 27 27 37 36 37 26 22 24 27 29 32 33 36 38 40 41 41 42 43 44 43 40 32
12 13 15 17 14 13 15 14 14 18 17 25 24 28 22 25 27 31 28 19 27 23 24 23 19 20 21 25 28 30 34 37 40 41 41 39 40 39 38 33 30 29 27
13 14 13 9 11 10 9 11 15 9 10 11 11 12 11 6 12 8 9 13 14 14 14 17 20 23 24 28 31 33 36 39 39 38 37 35 33 29 27 25 26 26 26
9 5 3 2 3 4 6 8 9 9 7 2 5 6 8 6 5 4 4 6 3 8 16 19 24 25 29 33 34 36 36 35 33 31 28 25 22 21 24 25 27 30 31
2 2 2 6 5 6 6 8 8 12 12 11 9 8 7 5 3 1 6 8 12 16 20 24 27 31 35 37 36 32 27 23 20 17 16 16 19 22 24 27 29 30 32
2 2 6 8 7 10 12 12 13 12 11 9 6 4 3 3 5 8 11 15 20 23 27 30 31 32 32 29 22 15 11 9 10 12 15 17 19 21 24 26 28 30 31
7 9 8 10 10 10 11 10 10 9 7 6 5 5 6 8 11 13 17 21 24 27 28 28 27 25 19 10 5 5 5 7 9 12 13 16 18 21 23 25 27 29 31
14 13 12 10 9 8 7 7 7 6 5 4 5 8 10 13 16 18 21 24 26 26 25 22 18 10 3 1 1 3 6 8 10 13 15 16 18 19 22 23 25 27 28
12 10 9 8 6 5 5 4 3 3 4 6 8 11 14 16 19 23 25 26 26 24 21 16 10 3 2 1 2 5 7 9 11 13 14 17 19 21 23 26 26 27 27
9 8 7 5 5 4 3 2 1 3 5 8 12 15 17 19 22 25 27 26 24 20 16 9 6 5 4 3 4 6 7 9 12 14 16 18 20 23 25 28 29 30 30
8 6 5 4 3 2 1 1 3 6 9 12 15 17 19 21 24 26 27 25 22 17 11 8 8 7 5 5 6 8 10 12 13 16 18 19 21 23 26 28 30 31 31
5 4 3 2 2 3 3 4 6 8 11 14 16 18 20 22 25 28 28 26 22 15 11 10 9 8 7 7 8 10 12 14 15 17 19 21 23 24 27 28 30 31 31
6 5 4 4 4 5 6 7 9 11 13 16 18 20 22 25 27 28 27 24 19 15 12 12 11 11 10 10 10 12 14 15 17 18 20 22 24 26 27 30 31 33 33
7 6 5 6 6 7 8 9 11 13 15 18 21 22 24 25 26 27 27 23 18 15 13 13 13 12 12 12 13 15 16 17 19 19 21 23 25 28 29 32 33 33 34
9 8 7 8 8 9 10 11 13 15 17 19 22 24 26 27 27 27 25 21 18 14 14 14 15 15 14 14 15 16 18 20 21 23 24 27 29 30 31 32 34 36 34
10 10 10 9 10 11 12 13 15 17 19 21 23 25 27 28 28 27 24 20 17 16 16 17 17 17 17 16 17 19 21 22 24 25 26 27 29 30 31 32 35 35 35
13 12 12 12 12 12 13 15 16 18 20 22 24 26 27 28 28 27 25 21 18 18 18 19 19 19 18 18 19 20 21 23 26 27 27 28 29 30 31 32 34 35 34
14 14 14 14 14 14 15 16 18 19 21 23 25 27 28 29 28 27 26 23 20 19 19 19 19 20 20 20 20 22 23 25 25 26 27 27 27 29 31 34 35 35 36
17 14 16 17 16 15 16 18 19 21 22 24 26 27 29 29 29 28 26 24 22 20 20 20 19 20 20 21 22 23 24 24 25 25 27 27 27 28 31 34 35 35 37
19 18 19 18 17 17 18 19 21 22 24 25 27 28 29 30 29 28 26 25 23 22 21 20 20 20 20 20 21 22 23 24 24 25 26 27 29 31 33 35 35 36 37
17 21 20 19 18 19 19 20 22 24 25 26 28 29 30 31 30 29 27 25 24 22 21 20 20 19 19 19 21 22 23 24 24 25 26 28 29 31 34 35 36 37 38

GFSGL_700_spd_069.txt.gz
Wind_Speed
30 30 31 33 35 36 37 38 38 39 39 40 40 40 40 40 40 42 43 46 47 48 47 45 44 44 47 42 48 45 46 43 42 40 47 52 51 50 43 43 42 45 45
24 24 23 24 27 30 33 37 39 40 42 42 44 45 45 45 44 44 44 43 42 43 43 44 43 43 43 44 45 37 37 36 41 44 47 48 43 38 38 39 41 43 43
19 19 20 20 20 23 25 27 29 32 35 37 38 38 39 41 44 47 47 45 45 42 39 36 38 39 37 37 41 36 43 45 46 46 40 36 35 37 39 42 42 41 42
15 15 15 16 17 17 17 19 21 21 23 24 26 28 29 29 31 35 39 41 41 43 44 34 32 32 33 35 36 42 43 43 38 33 33 35 37 38 40 41 42 43 43
14 13 13 13 11 15 18 21 20 20 23 25 26 28 28 29 30 29 28 31 32 34 31 34 28 27 35 36 38 41 39 31 33 33 35 37 38 40 41 42 43 43 40
12 11 11 9 12 16 16 19 18 18 20 26 24 24 21 20 18 23 24 28 30 26 30 30 21 31 31 34 29 26 28 32 34 35 36 37 38 40 40 39 37 33 27
12 12 11 10 13 13 13 13 16 16 17 14 19 18 17 17 18 19 18 20 26 33 25 15 24 21 20 21 24 28 32 34 36 36 37 38 37 34 29 26 25 24 24
12 13 10 6 7 10 10 10 11 10 9 10 9 10 8 5 6 7 15 12 9 8 9 11 7 12 22 25 28 30 34 36 37 37 34 27 22 20 19 20 23 24 24
10 5 2 2 4 5 6 9 7 4 1 4 7 8 8 8 7 6 5 3 2 3 8 14 20 23 25 29 33 35 38 36 30 22 15 13 14 17 20 21 23 25 26
1 2 2 3 1 1 3 7 8 7 8 8 9 9 9 8 6 5 7 9 11 14 18 22 26 30 32 34 35 33 27 18 11 9 10 12 15 17 20 22 24 25 28
1 4 6 5 6 6 8 8 9 9 8 7 6 6 6 7 9 11 14 17 19 22 24 27 29 30 30 28 23 15 9 7 8 10 12 14 16 18 21 23 25 27 28
4 8 10 9 8 6 6 6 6 6 5 5 6 8 10 12 13 16 18 21 23 25 26 26 26 25 23 17 9 6 6 7 10 11 12 14 17 19 21 23 26 28 30
12 12 10 8 6 5 3 3 3 3 4 6 8 10 12 14 15 17 21 23 25 26 25 24 23 20 13 7 6 7 8 9 10 11 13 14 16 18 21 23 26 28 29
12 10 7 6 4 2 2 1 1 3 5 7 9 11 14 16 18 21 24 27 28 28 26 24 21 15 9 8 8 8 9 9 10 12 13 15 16 18 21 24 25 27 28
8 8 7 5 3 2 2 2 3 4 6 9 12 15 17 19 21 24 26 28 29 28 25 21 17 13 11 10 10 10 11 10 11 13 14 15 17 19 21 24 26 27 29
9 8 6 5 4 4 5 4 5 7 9 12 15 17 19 21 22 24 26 28 29 28 25 20 16 14 13 13 13 12 12 13 13 15 16 18 19 21 22 24 27 29 30
8 8 7 6 5 5 6 6 8 10 12 14 16 18 20 21 23 24 26 28 29 28 24 20 17 16 15 15 15 15 15 15 16 18 19 21 22 23 25 26 28 31 32
11 10 8 6 6 6 8 9 10 12 14 16 18 20 21 23 24 26 27 28 28 27 24 21 17 16 17 17 18 17 17 18 19 20 22 24 25 27 28 30 31 33 34
13 11 9 9 8 8 9 10 12 14 16 18 20 21 22 24 25 27 28 28 28 27 24 21 18 18 19 20 20 20 20 20 21 22 24 26 28 30 31 32 32 31 34
14 13 11 11 10 10 11 12 14 15 17 19 21 23 24 25 26 27 27 28 27 26 23 21 20 21 21 22 21 21 22 23 24 25 26 27 30 31 33 32 32 32 33
17 16 14 12 12 12 13 14 15 16 18 20 22 23 25 26 27 28 29 29 28 27 25 24 23 22 23 23 23 23 23 24 25 27 28 29 30 30 31 31 31 32 35
20 17 16 14 14 14 15 15 17 17 19 20 22 24 25 27 28 29 30 30 29 27 26 25 25 24 23 23 23 22 23 25 26 28 29 28 28 29 29 29 30 32 34
21 19 17 16 15 16 16 17 18 19 20 22 23 25 26 28 29 30 31 31 30 29 27 26 25 25 24 23 22 22 23 24 26 27 27 26 26 27 29 29 31 32 33
23 20 19 17 17 18 18 19 19 20 21 23 24 26 28 29 30 31 32 32 31 30 29 27 25 24 23 22 22 22 23 24 24 25 27 27 26 27 29 30 30 32 34
27 24 21 19 19 20 20 20 21 21 23 23 25 27 29 30 31 32 33 32 31 30 29 28 25 22 21 21 21 21 22 23 24 26 26 27 27 29 31 31 32 33 35
28 24 23 22 20 22 22 22 23 23 24 25 27 28 30 31 32 33 33 32 30 29 27 26 23 21 19 19 20 20 22 23 24 26 27 27 29 30 32 32 33 35 37

GFSGL_700_spd_072.txt.gz
Wind_Speed
29 29 31 31 31 31 30 31 32 33 33 35 36 38 38 39 40 40 41 42 43 43 43 41 41 41 41 41 41 40 42 43 43 37 40 36 36 40 43 41 37 36 35
26 25 26 27 28 26 27 27 28 30 31 33 35 37 38 39 41 42 43 45 47 47 44 41 39 38 37 37 37 35 36 38 38 34 40 39 39 38 34 32 34 35 35
19 20 21 22 23 24 22 21 21 22 23 26 28 30 30 31 32 32 34 37 39 41 42 42 38 35 34 30 31 35 32 37 34 40 36 38 35 30 31 32 32 34 36
16 18 18 17 17 17 18 17 17 16 17 20 22 25 26 28 28 29 31 30 29 28 29 30 32 37 35 29 33 31 32 33 38 34 36 30 30 31 32 33 33 36 37
15 15 15 15 15 15 14 14 13 13 16 20 23 25 28 28 29 28 31 32 28 27 24 23 25 29 30 34 34 27 26 31 29 27 28 30 33 33 34 36 38 34 29
13 13 12 12 12 13 13 10 9 12 14 17 22 19 21 22 21 23 19 21 18 16 22 23 23 24 27 35 20 19 20 21 26 27 30 32 34 36 36 31 21 17 17
12 12 12 12 12 15 11 6 8 12 14 14 14 11 11 10 9 9 11 11 13 19 18 22 23 21 17 13 10 16 24 27 30 31 34 36 34 28 16 14 17 18 21
12 12 11 11 9 8 5 6 9 12 11 10 8 9 9 10 12 13 12 9 8 8 8 7 7 10 12 16 23 26 27 30 32 33 31 26 16 11 12 14 17 18 20
11 10 7 8 5 3 2 4 7 4 1 3 5 8 10 11 12 11 11 11 12 13 14 15 18 20 23 26 29 30 31 32 30 25 15 10 11 12 14 16 19 19 18
6 6 8 4 4 4 5 5 5 6 6 5 7 8 9 9 10 11 12 14 16 18 20 22 24 26 27 28 28 28 26 23 16 9 9 10 12 13 15 17 18 19 23
4 6 8 8 8 9 9 7 6 6 5 5 6 7 8 9 10 12 14 17 20 22 24 25 25 26 25 24 24 22 18 11 8 8 10 11 13 14 15 17 19 20 21
7 11 10 11 10 8 7 5 3 3 3 4 4 6 8 11 13 15 18 20 22 24 25 26 26 26 25 23 19 13 8 8 9 10 11 13 14 15 16 17 20 22 24
9 13 12 10 8 6 4 3 2 1 2 3 6 9 11 13 15 16 18 21 24 26 27 28 27 25 22 18 13 10 9 10 11 12 13 14 14 15 17 19 21 22 23
14 12 10 8 6 4 3 1 1 2 4 6 8 10 12 14 16 18 20 22 25 27 28 28 26 23 19 15 12 11 12 13 13 13 14 15 16 17 19 21 21 22 23
11 10 8 6 4 3 3 3 4 5 6 8 10 12 14 17 19 21 23 25 26 27 28 27 25 21 18 15 13 14 14 14 15 15 15 17 18 19 20 22 23 24 26
8 7 6 5 5 6 6 5 5 6 8 10 12 15 17 19 21 22 23 25 26 27 28 27 25 22 19 17 16 17 17 17 17 18 18 19 20 21 21 23 26 28 29
8 7 6 7 7 7 7 7 7 8 9 11 14 16 18 19 21 22 23 25 26 27 28 28 26 23 20 18 19 19 20 20 20 20 21 22 23 23 25 26 29 30 30
9 9 9 9 8 9 9 9 9 10 11 13 14 16 18 20 21 22 23 25 26 27 28 28 26 23 21 20 20 21 22 22 22 22 22 23 25 26 26 28 30 31 31
12 13 12 11 11 11 11 11 10 11 12 13 15 17 19 20 22 23 24 26 27 28 29 28 27 25 23 23 23 23 23 23 23 22 23 24 26 27 28 29 29 29 30
16 16 15 14 14 13 13 12 13 13 14 15 17 18 19 21 22 23 24 26 27 28 29 28 27 26 25 25 25 24 24 25 24 24 24 25 27 28 29 28 28 28 27
20 19 18 17 16 16 15 14 14 15 15 16 17 19 20 22 23 24 25 27 28 30 30 30 29 28 28 27 26 25 24 24 23 23 24 25 27 27 28 27 26 27 29
23 22 21 20 19 18 17 17 17 17 17 17 18 20 21 23 24 26 27 28 29 31 31 30 30 30 29 28 26 24 23 23 23 23 24 25 25 26 26 26 26 27 29
26 25 24 23 21 21 19 19 18 18 18 19 19 21 22 23 25 27 28 29 30 32 32 31 29 29 29 27 25 23 22 22 22 23 24 23 24 25 26 25 26 28 30
33 31 28 26 23 23 22 21 20 20 20 20 21 22 23 24 26 29 30 30 31 33 32 30 29 28 27 25 23 22 22 21 22 23 24 24 24 25 26 27 27 28 30
33 33 32 27 30 28 23 23 22 21 22 22 23 24 24 25 28 32 32 31 32 32 32 30 29 26 25 23 21 21 21 22 23 24 25 25 24 25 27 28 29 31 32
34 32 32 31 29 25 23 25 23 22 23 24 24 26 26 27 32 33 31 31 32 32 31 30 28 25 23 22 21 21 22 23 24 25 27 27 27 27 29 31 32 33 35

GFSGL_700_spd_075.txt.gz
Wind_Speed
25 26 28 28 29 30 31 32 32 32 32 31 31 31 32 34 35 36 36 39 40 41 43 45 44 43 40 36 34 35 35 36 37 35 34 26 28 30 32 32 32 30 28
25 27 28 28 29 29 29 28 29 29 29 28 27 28 29 28 29 31 32 35 35 34 36 37 38 40 40 36 33 34 36 33 30 31 31 30 31 35 34 33 27 24 25
24 24 23 23 23 23 23 24 24 23 22 22 22 23 21 21 25 27 28 30 30 31 30 30 28 28 28 28 32 33 33 31 28 33 33 27 35 32 29 27 27 26 29
19 19 18 20 20 20 18 17 17 18 18 19 19 16 16 21 25 28 28 28 29 31 31 29 25 23 22 24 25 27 29 31 34 32 28 28 27 23 24 27 27 29 32
17 16 16 17 16 15 15 15 15 15 16 16 14 13 16 19 21 22 23 23 23 23 22 24 22 23 22 20 22 24 28 33 25 28 19 21 23 25 27 28 29 28 23
15 14 14 14 13 15 15 14 14 13 12 11 11 11 12 12 12 11 11 13 14 12 16 13 15 13 17 20 22 29 19 19 17 17 21 26 26 28 30 28 18 11 15
14 13 14 14 13 14 15 14 11 10 11 10 9 6 7 5 5 6 6 7 9 11 11 12 11 8 8 10 11 13 14 19 24 26 26 28 29 28 21 10 9 11 14
15 15 16 15 14 13 12 11 9 11 10 5 3 3 1 3 7 9 10 10 10 11 12 13 15 15 17 20 22 24 27 29 30 31 30 28 22 13 9 9 11 13 16
16 16 13 13 12 11 10 9 9 7 5 4 5 5 5 6 6 8 8 10 13 15 17 18 19 20 22 23 24 26 27 28 28 25 22 14 8 8 10 12 12 14 15
15 11 9 10 10 9 8 8 8 8 9 7 6 5 4 4 5 7 10 13 15 17 20 21 22 24 24 24 24 23 23 23 21 16 9 8 9 11 12 14 15 16 16
9 9 12 11 11 11 12 11 9 9 8 6 4 2 2 4 6 8 11 13 16 18 20 22 24 25 25 24 24 22 20 16 11 9 9 10 12 13 14 15 16 16 17
10 12 13 14 14 12 11 10 8 7 6 4 1 2 5 7 9 12 14 16 18 20 21 23 24 25 25 24 22 20 16 11 9 10 12 13 13 14 16 17 18 18 18
13 14 15 16 14 12 9 7 6 5 4 2 1 4 7 9 11 12 14 16 18 20 22 23 24 25 24 23 21 17 14 12 13 14 15 15 15 17 18 19 19 19 19
14 17 17 14 12 9 7 6 6 5 3 2 4 6 8 10 12 13 14 16 18 20 22 23 24 25 24 23 20 18 16 16 17 18 18 19 19 19 20 20 21 22 21
18 17 15 12 10 8 7 5 5 5 4 5 6 7 9 11 13 15 17 18 20 21 22 23 24 24 24 22 20 18 18 19 20 21 21 21 21 21 21 22 23 24 24
14 13 12 11 9 8 6 6 6 7 7 7 8 9 11 13 14 16 18 19 20 20 21 22 23 23 23 21 20 19 20 22 23 23 24 24 23 23 23 23 24 26 27
13 13 11 9 8 7 8 9 9 8 9 9 9 10 11 13 15 17 18 19 20 21 22 23 24 24 24 23 21 21 22 23 25 25 25 25 24 23 23 23 25 26 27
13 12 11 10 9 10 11 11 10 10 11 11 11 12 12 14 16 18 19 20 21 22 22 23 25 26 26 25 24 24 24 25 26 26 26 25 24 24 24 24 26 27 27
15 14 14 13 13 13 13 13 12 12 12 12 12 13 14 15 17 18 19 20 21 22 24 25 26 27 27 27 26 26 26 26 26 25 25 24 25 24 24 25 26 26 26
17 16 16 16 15 15 15 15 15 15 14 13 13 14 15 16 18 19 21 22 23 24 25 27 28 29 29 29 28 27 26 25 24 24 23 23 24 24 25 25 24 23 23
20 20 20 19 18 18 18 18 18 17 16 16 16 16 17 18 19 19 20 22 24 26 27 28 29 30 31 30 29 29 26 24 22 21 21 21 23 23 25 24 23 24 24
23 23 22 22 23 22 22 21 20 19 18 18 18 18 18 19 20 21 22 24 27 28 28 28 30 31 30 30 29 28 25 21 20 20 20 21 22 23 24 23 23 23 24
26 27 28 26 26 26 25 23 22 22 21 20 20 20 20 21 22 23 24 27 31 31 29 29 30 30 30 30 29 28 24 20 19 20 21 21 22 23 24 24 24 24 26
26 27 29 31 31 30 28 26 27 24 23 22 21 22 22 22 23 25 27 29 33 31 29 29 30 30 28 28 28 27 24 20 20 21 22 23 23 24 25 26 26 27 28
29 29 30 31 33 34 33 28 34 30 25 24 23 24 23 24 24 26 29 32 33 29 28 29 30 30 28 27 27 26 25 23 23 23 24 25 25 26 27 27 28 29 30
35 33 33 34 32 32 33 33 33 32 29 25 22 24 24 25 25 28 32 33 30 27 27 29 30 30 29 28 27 26 25 25 25 26 28 27 28 29 31 31 31 32 33

GFSGL_700_spd_078.txt.gz
Wind_Speed
27 28 29 29 29 30 31 31 31 32 32 32 32 31 32 32 32 32 32 33 32 32 33 34 34 35 36 37 39 38 36 33 33 34 33 33 34 32 29 20 27 26 27
26 28 29 29 29 30 31 32 33 33 33 31 30 30 30 30 30 30 29 27 26 29 31 31 31 31 32 32 30 30 28 30 31 31 33 33 32 26 32 26 32 28 21
26 27 28 28 28 28 28 28 28 28 27 26 26 25 25 25 26 25 22 24 28 30 30 31 30 32 31 27 23 22 25 28 30 32 29 33 32 36 27 30 26 23 23
25 26 25 24 23 22 22 23 24 24 22 21 21 21 22 22 21 20 20 23 26 27 27 26 25 26 26 24 20 22 24 25 25 26 28 30 31 27 28 25 25 25 26
23 22 22 20 19 19 19 19 19 18 18 17 18 17 17 17 17 16 19 20 18 18 18 17 20 18 19 20 18 18 21 21 26 30 30 24 21 20 22 24 28 29 30
20 19 18 18 18 17 17 16 16 15 15 15 14 14 12 12 12 13 11 10 9 7 6 6 10 10 9 10 12 13 14 15 14 15 16 18 19 25 30 30 29 24 16
19 19 18 17 16 15 15 14 15 14 13 12 12 12 11 10 7 4 0 4 3 5 8 11 13 14 15 16 17 20 21 22 23 25 27 29 30 30 29 26 18 13 14
19 20 19 18 17 17 16 15 15 14 13 11 9 9 8 4 5 5 3 2 5 7 10 12 14 16 18 20 21 23 24 25 26 27 29 29 28 26 20 12 12 14 16
20 19 19 18 17 16 15 13 13 12 10 8 8 8 7 8 4 2 1 4 6 9 12 14 16 18 19 21 22 23 24 24 24 25 24 23 19 13 11 12 13 14 17
19 18 16 15 14 12 13 12 12 10 10 11 10 10 7 4 2 2 4 6 9 12 14 15 18 20 21 22 23 23 24 23 22 21 18 13 10 11 13 14 15 16 17
16 16 14 13 12 13 13 12 13 12 12 12 10 7 5 3 3 4 6 8 10 13 16 18 19 20 21 22 23 23 23 22 20 17 12 11 13 14 16 17 17 17 18
15 12 14 14 13 14 15 14 13 13 12 10 8 6 5 4 5 6 8 11 13 15 17 18 19 21 22 22 23 23 23 21 18 16 15 16 18 19 20 20 20 19 19
14 13 14 16 16 16 15 14 13 12 11 9 8 6 5 5 6 8 11 12 14 16 17 18 19 20 20 21 22 22 22 20 18 17 19 20 22 23 23 23 22 21 20
16 16 17 18 17 15 14 13 12 12 11 10 8 7 6 7 9 10 12 13 15 16 17 18 19 20 21 21 22 22 21 20 20 20 22 23 24 25 26 26 25 24 22
18 19 19 19 18 17 15 13 13 13 12 10 8 8 8 10 11 11 13 14 15 16 17 18 19 19 21 22 22 22 22 22 22 23 25 26 26 27 27 28 27 25 24
18 20 20 19 17 15 14 15 14 13 11 9 9 10 10 11 12 13 14 15 16 17 18 19 19 20 21 22 23 23 24 24 24 25 27 28 28 29 28 28 28 26 25
18 19 19 18 16 16 16 15 14 13 11 11 11 12 12 13 13 14 15 16 17 18 18 19 20 21 22 24 24 25 26 26 26 27 28 29 29 28 27 25 26 26 26
17 18 19 19 18 17 17 16 14 14 13 13 14 14 14 14 14 15 17 18 19 19 20 21 22 23 24 25 26 26 26 27 27 27 27 27 26 26 25 25 25 26 27
16 18 19 19 19 19 17 16 16 16 15 16 16 16 16 16 16 17 18 18 20 20 22 23 25 25 26 27 28 27 28 28 28 26 25 24 24 23 22 23 24 26 26
18 20 21 21 21 20 19 19 19 18 18 18 18 18 18 18 18 19 19 19 20 22 24 27 28 27 27 28 29 28 29 29 27 26 23 21 21 21 22 23 24 24 24
21 23 23 24 23 23 23 22 21 21 21 20 20 20 20 20 21 21 21 22 23 25 27 29 31 29 28 29 29 29 29 28 27 25 22 21 21 21 23 24 24 25 25
22 24 24 25 26 26 25 26 26 24 24 23 23 23 23 22 23 23 23 24 25 27 29 31 31 30 29 29 30 29 28 27 26 25 21 21 22 23 23 24 25 26 26
25 25 27 28 30 32 32 29 28 28 27 25 25 25 25 24 24 25 25 26 27 29 32 33 30 29 30 30 30 30 28 26 25 25 23 23 23 24 25 26 26 27 28
30 35 31 27 28 29 31 33 32 31 30 29 32 29 27 25 27 26 26 27 28 30 34 33 30 28 29 31 31 31 29 27 26 26 26 25 26 27 28 29 29 30 31
29 30 31 33 32 32 31 32 34 35 35 35 42 35 31 32 28 28 28 28 28 32 35 33 30 29 30 30 31 31 30 29 28 28 28 28 28 29 31 32 32 32 33
30 29 31 33 34 35 34 34 33 33 34 37 33 32 35 31 26 27 28 28 30 33 34 32 31 31 30 31 31 30 30 30 30 30 31 30 30 30 32 33 33 34 34

GFSGL_700_spd_081.txt.gz
Wind_Speed
25 27 28 28 29 29 30 31 31 31 30 30 30 30 31 31 32 33 32 32 33 33 33 33 32 29 30 31 31 32 33 33 33 33 30 30 31 33 31 27 29 28 25
26 28 29 29 30 31 32 32 32 32 33 33 33 33 32 32 31 31 31 31 30 29 31 29 28 28 30 30 31 32 32 29 29 27 28 28 30 32 32 29 32 34 26
24 26 27 28 30 30 31 31 31 31 30 30 29 28 27 27 27 26 26 26 25 28 27 25 25 26 26 25 28 28 26 25 27 28 27 27 29 29 30 28 31 25 25
25 26 27 27 28 28 28 28 27 25 24 24 24 23 23 22 22 23 21 21 24 24 21 19 19 18 20 20 21 20 19 21 23 23 22 21 26 29 31 26 25 26 23
26 26 26 26 25 25 23 22 22 21 20 19 19 19 19 20 19 18 18 19 19 16 13 11 10 8 7 8 10 11 13 16 18 18 18 19 21 23 23 25 25 27 29
25 24 23 23 22 21 21 20 19 18 18 17 17 17 16 15 14 14 15 13 11 7 2 1 7 8 10 12 15 17 19 21 23 24 25 26 25 25 26 30 33 33 32
23 22 22 21 20 19 19 18 18 17 17 17 16 14 13 13 12 11 9 7 4 2 4 6 8 10 13 14 16 18 20 22 24 25 26 27 29 30 31 32 30 28 25
23 22 21 21 21 20 18 17 17 17 17 15 13 12 11 10 8 7 7 5 4 5 6 9 10 12 14 16 18 20 21 22 23 25 26 26 27 28 28 26 23 17 16
25 23 23 22 22 20 19 18 17 16 15 14 13 11 9 9 10 9 7 5 6 8 9 11 13 14 16 18 19 21 22 23 24 24 24 24 24 23 19 16 15 17 19
24 22 23 23 21 19 18 17 15 15 14 13 12 11 11 11 10 9 7 8 9 10 12 14 15 16 17 18 20 21 23 23 24 24 23 22 20 16 15 16 19 21 22
22 21 20 18 18 17 16 16 16 15 15 14 13 13 12 11 10 9 9 10 11 13 14 15 16 17 18 18 20 21 22 23 23 22 21 20 18 17 18 20 22 24 25
20 19 17 17 17 15 16 16 16 16 15 14 14 13 12 11 11 11 10 11 13 14 15 16 17 17 18 18 19 20 21 22 22 22 21 20 20 21 22 24 25 26 27
15 14 14 15 16 16 17 18 17 16 16 15 14 13 12 12 11 11 11 12 14 15 16 16 17 18 18 19 20 21 21 22 22 23 24 24 24 25 26 27 28 28 27
15 15 15 15 17 17 17 17 17 17 16 15 15 14 14 12 11 11 12 14 15 16 16 17 17 17 18 19 20 21 22 22 23 24 25 26 26 27 29 30 30 30 28
15 17 18 19 20 19 19 18 17 16 16 15 15 14 13 12 12 13 14 15 16 16 17 18 18 18 19 21 22 22 23 23 24 25 26 27 28 29 30 30 30 28 27
15 19 19 20 20 20 19 18 17 17 17 17 16 14 14 14 14 14 15 16 16 17 18 18 19 20 21 22 23 24 24 25 26 27 27 28 29 29 29 29 29 26 25
14 20 21 22 21 20 19 18 18 19 19 17 17 16 16 16 16 16 16 17 17 18 18 19 20 21 23 24 25 25 26 27 27 28 29 30 29 28 27 26 25 24 24
12 17 21 22 22 20 19 20 20 20 19 19 19 18 18 18 18 18 18 18 18 19 19 20 21 23 25 27 27 27 27 28 28 29 30 30 30 27 25 24 23 23 23
14 16 18 20 21 22 22 21 21 21 21 21 21 21 20 20 19 20 20 20 20 20 20 22 24 26 27 28 28 28 27 28 29 29 30 30 29 26 23 22 22 23 24
17 19 21 22 23 23 23 22 22 22 23 24 22 23 22 22 22 22 22 22 23 22 22 24 26 28 30 30 28 28 28 29 30 30 30 29 28 26 24 23 23 24 25
20 22 22 24 24 24 25 25 25 26 26 25 25 26 25 24 24 24 25 25 25 25 25 26 28 30 32 31 29 28 29 28 29 30 30 29 29 26 26 25 25 27 27
21 25 24 23 25 27 27 28 29 29 28 28 28 29 29 27 26 26 26 27 26 26 27 27 29 31 34 32 30 29 29 29 29 30 30 29 29 28 28 28 29 30 30
27 24 23 23 26 30 34 34 33 33 31 31 32 32 31 30 28 28 28 28 27 28 29 29 30 32 35 33 31 30 30 30 30 31 31 30 29 29 30 31 32 33 34
28 33 32 36 31 26 27 29 32 34 35 38 39 35 34 33 36 40 33 32 33 28 30 31 32 33 34 33 32 32 32 31 31 32 33 31 29 29 31 32 33 34 36
30 33 30 27 30 34 35 37 36 34 33 33 36 39 40 42 42 40 39 41 35 27 28 32 33 35 34 32 31 32 33 34 33 34 34 33 30 30 31 33 33 35 35
34 32 31 34 33 35 34 34 36 36 35 34 33 34 35 33 30 32 31 32 33 28 29 34 38 36 33 32 32 32 34 34 35 35 36 34 32 31 32 34 34 35 34

GFSGL_700_spd_084.txt.gz
Wind_Speed
30 28 27 28 28 28 29 30 30 30 30 30 30 29 30 30 31 32 32 32 33 31 31 31 30 29 28 30 30 28 28 28 29 30 26 27 27 27 27 26 26 27 24
26 26 27 28 29 29 30 31 32 32 32 32 32 32 32 33 34 34 34 33 31 29 27 26 25 26 28 28 26 24 24 24 24 23 24 26 27 28 26 27 28 21 19
24 26 27 28 28 29 30 30 31 31 32 31 32 32 31 32 31 30 29 27 25 24 23 23 23 25 24 21 19 20 20 19 17 19 19 20 21 21 22 23 22 23 19
23 24 25 26 27 28 28 29 29 29 29 29 28 27 27 26 25 24 23 21 21 21 21 21 22 18 16 15 10 9 10 11 13 17 20 21 21 21 21 21 21 21 21
24 25 27 27 27 27 27 27 27 25 25 24 24 23 23 21 20 19 19 18 17 17 18 17 13 9 7 8 10 11 14 15 17 20 22 23 24 25 26 25 25 25 26
25 25 26 27 26 26 25 24 23 23 22 22 20 19 17 17 17 15 15 14 14 13 12 7 8 9 9 11 12 14 16 18 19 21 23 24 25 26 27 28 28 30 32
26 26 24 24 24 23 22 22 21 21 21 19 18 16 16 15 14 13 12 11 9 7 6 7 9 9 11 13 15 16 18 19 20 22 22 23 24 25 27 27 28 28 28
26 25 24 24 23 22 22 21 19 18 18 17 16 15 14 12 12 10 9 9 8 6 7 9 9 11 13 15 17 18 19 19 20 21 22 23 24 24 24 24 24 22 21
24 27 25 24 23 22 22 20 19 19 17 17 15 14 13 12 11 11 9 8 8 8 9 10 12 13 15 17 18 19 19 20 20 21 21 22 22 22 22 21 20 19 20
27 26 25 23 22 22 21 21 19 18 17 15 15 14 14 13 12 10 10 9 10 10 12 13 14 15 16 17 18 18 19 19 20 21 21 21 21 21 21 20 21 22 23
28 26 24 22 22 21 20 20 19 18 17 16 15 16 16 14 12 11 11 11 11 12 13 14 15 16 17 17 18 18 19 19 20 20 21 22 22 22 23 23 25 26 27
26 21 21 20 18 18 18 18 17 17 17 17 18 17 15 13 12 11 11 11 13 13 14 15 16 16 17 17 18 18 19 19 20 20 21 22 23 23 24 25 27 28 29
19 18 16 16 16 17 17 17 17 17 18 19 18 17 15 13 13 12 12 14 14 14 15 16 16 16 17 17 17 18 19 20 21 21 21 22 24 25 27 27 28 29 29
14 14 14 15 15 16 17 18 19 20 20 18 18 16 15 13 12 13 14 14 14 15 16 16 16 16 17 17 18 18 20 21 22 23 24 24 25 26 27 28 29 29 28
15 16 16 16 16 17 18 20 21 20 19 19 17 16 14 14 14 14 15 15 15 16 16 16 16 17 18 19 20 21 22 23 24 25 26 26 26 27 28 29 29 28 26
15 15 16 18 18 19 20 20 19 19 19 18 16 16 16 16 16 16 16 16 16 17 17 17 17 18 19 20 21 23 25 25 26 26 27 28 28 28 29 30 30 27 24
13 15 17 19 20 21 20 20 20 20 18 18 18 18 17 17 18 18 18 17 17 18 18 18 18 19 20 21 23 25 26 27 27 26 27 28 29 28 29 30 29 27 24
12 11 16 20 21 22 21 21 20 19 19 19 19 19 20 20 20 20 19 19 19 19 20 20 20 21 22 23 25 28 29 28 28 27 28 29 30 29 28 28 29 27 24
13 10 11 17 20 22 22 21 21 20 20 21 21 21 22 22 22 22 22 22 22 22 22 23 23 23 24 25 27 30 31 29 29 28 29 29 30 30 29 28 28 28 27
15 15 16 18 20 21 22 22 21 21 22 22 22 24 25 24 24 25 24 25 25 24 25 25 25 26 26 27 28 31 32 31 29 30 30 30 31 32 31 29 29 29 29
16 20 19 20 21 21 23 24 24 25 24 24 24 27 28 26 27 28 28 28 27 27 27 27 27 28 28 29 29 31 33 31 30 30 31 32 32 32 32 32 31 31 31
23 18 20 23 24 25 25 27 28 28 27 26 27 30 31 29 29 31 31 30 30 30 29 30 28 29 30 30 31 33 33 31 31 31 32 32 32 33 33 33 33 32 33
27 28 28 22 23 27 29 29 29 29 29 29 31 33 34 33 31 33 33 33 35 36 40 35 39 36 33 32 33 35 35 31 30 31 33 33 33 33 33 32 33 33 34
31 29 28 31 33 27 29 29 27 30 32 34 37 38 38 38 40 40 40 39 42 43 41 39 39 36 34 34 34 36 35 32 31 32 33 33 32 33 34 33 33 33 34
36 32 34 31 27 31 33 32 34 38 36 36 37 35 33 34 35 37 38 38 36 35 33 31 31 33 34 33 33 35 33 32 31 32 34 34 33 33 33 32 33 34 34
40 38 32 33 30 29 30 31 31 34 35 36 37 36 34 36 35 34 33 31 27 27 27 29 30 32 31 30 31 32 31 32 32 33 34 33 32 32 32 33 33 34 34

GFSGL_700_spd_087.txt.gz
Wind_Speed
35 36 37 36 34 32 31 30 29 29 29 28 29 29 29 29 29 29 30 30 30 30 31 29 30 29 28 27 26 26 26 26 25 23 21 19 18 18 18 18 16 18 19
34 33 32 31 31 30 30 30 30 30 30 31 31 31 31 31 31 32 33 33 33 32 32 29 28 26 24 23 24 22 22 19 19 17 14 13 13 14 16 16 16 15 17
27 27 26 27 28 29 29 29 30 31 31 31 31 32 31 31 32 32 33 33 32 30 28 25 23 21 21 21 18 16 15 12 10 11 13 15 17 18 18 18 18 18 17
24 23 25 26 27 27 27 27 28 29 29 30 30 30 30 31 30 30 30 28 26 24 22 21 19 18 16 13 10 7 9 11 13 14 16 17 18 19 20 21 22 23 22
22 23 22 24 26 28 29 28 28 28 28 28 28 27 26 26 26 26 24 22 21 20 18 17 16 12 8 7 8 10 12 13 14 15 17 18 19 20 21 22 23 24 24
20 21 22 24 26 28 29 28 27 27 26 25 24 24 23 22 21 20 19 18 17 16 15 13 10 8 8 8 10 12 13 14 15 17 18 19 20 20 20 21 22 23 23
21 21 24 25 25 26 27 25 25 25 23 23 23 21 20 18 18 17 16 15 14 13 11 8 8 8 8 9 11 13 15 15 16 17 18 18 18 19 20 21 21 21 21
22 23 25 27 26 26 25 23 23 23 22 21 20 18 18 17 16 15 14 13 12 11 9 9 7 8 9 12 14 15 15 15 15 17 17 17 18 19 19 19 20 20 20
23 27 28 26 27 26 25 23 22 22 20 18 18 17 16 16 15 14 13 13 12 11 10 7 8 10 12 14 15 15 15 15 15 16 17 17 18 18 19 20 20 20 21
25 24 26 28 27 24 23 22 21 20 20 19 19 18 18 17 16 15 15 14 12 11 9 9 10 12 13 15 15 15 15 14 15 15 16 17 18 19 19 20 21 21 22
26 28 29 29 27 24 21 21 20 21 21 19 19 18 18 17 17 16 15 13 11 10 10 11 12 13 14 14 15 15 15 15 15 16 17 18 19 20 21 22 22 23 25
28 29 30 27 23 22 19 20 20 20 20 20 19 18 18 18 17 15 13 12 11 11 11 11 12 13 14 14 14 15 15 15 16 17 19 20 21 22 22 23 24 25 27
26 23 22 21 20 19 18 19 18 19 19 19 19 19 19 18 16 14 13 12 12 11 11 13 13 13 14 14 15 15 16 16 18 19 20 22 23 23 23 24 24 26 28
20 18 17 16 16 16 17 17 17 18 20 19 20 20 18 16 15 14 13 13 12 12 13 13 13 14 14 15 16 16 17 18 20 22 23 23 23 24 25 25 26 26 27
16 15 16 16 16 16 15 17 19 20 21 22 21 19 18 17 16 15 14 13 13 13 14 13 13 14 15 16 17 17 18 19 21 23 24 24 23 24 25 26 27 27 27
15 14 16 16 17 17 16 16 18 19 20 20 19 19 18 17 17 16 15 15 15 15 14 14 15 16 17 17 18 18 19 21 22 23 24 24 23 24 26 27 28 27 26
14 15 15 18 18 17 17 18 18 20 20 20 20 20 19 18 18 17 17 17 17 16 16 16 17 18 18 19 20 21 22 23 25 26 25 24 24 25 26 28 29 28 27
13 13 14 14 17 18 19 21 21 20 20 21 21 20 20 20 20 19 19 19 19 19 19 19 19 20 21 21 22 23 24 25 26 27 26 25 25 25 26 28 29 29 28
15 12 12 11 15 19 21 23 22 22 21 21 21 20 22 23 21 21 21 21 21 22 22 22 23 23 23 24 25 25 26 27 28 28 28 26 26 27 27 28 29 30 30
14 15 14 12 13 16 19 21 21 22 22 22 22 22 25 24 23 23 23 23 24 25 25 25 25 25 26 27 27 27 28 29 30 30 30 28 28 28 28 28 29 29 30
18 17 14 18 17 17 20 22 23 24 25 25 24 26 27 25 25 25 26 26 26 27 28 27 29 28 29 30 29 32 35 35 34 33 32 30 29 28 29 29 30 31 31
21 20 20 19 18 22 22 23 25 26 27 26 26 27 29 28 26 27 28 28 28 29 30 30 30 31 34 38 38 40 39 37 36 32 32 30 29 29 30 30 31 32 33
27 26 28 25 23 23 22 25 27 27 27 27 29 31 33 31 29 29 31 33 35 35 34 33 36 37 38 41 37 35 34 34 32 31 31 29 29 29 30 31 32 32 32
34 33 31 30 28 27 28 27 24 26 28 28 29 34 35 37 36 36 37 37 35 36 37 38 37 38 37 35 32 31 30 29 28 30 29 28 28 29 31 31 32 32 32
31 31 33 35 34 31 30 30 30 33 31 30 31 33 33 34 34 34 35 33 34 34 33 32 31 31 32 32 30 28 28 26 28 29 28 28 28 29 31 31 31 32 32
31 30 31 33 36 37 32 32 32 33 34 35 33 32 34 37 38 38 36 36 36 34 31 29 29 31 30 28 26 27 26 28 29 28 27 28 28 30 31 31 31 32 32

GFSGL_700_spd_090.txt.gz
Wind_Speed
34 34 34 35 36 37 38 38 37 36 35 34 33 32 31 30 30 29 30 30 31 31 30 28 29 30 31 31 30 29 26 27 26 22 20 19 15 13 12 13 13 13 14
34 34 34 35 36 37 37 37 36 35 35 34 34 33 32 32 32 32 33 33 32 32 32 31 31 31 30 29 26 25 25 23 19 17 14 11 11 13 14 15 16 15 15
33 33 34 34 34 35 33 33 33 33 33 33 34 34 34 33 33 33 33 33 33 33 32 31 29 28 26 25 23 23 19 16 11 9 11 12 13 15 15 17 18 18 18
32 32 30 29 27 29 29 29 30 31 32 32 32 32 33 33 33 32 32 33 32 31 29 27 26 24 22 21 20 16 10 10 10 12 12 13 14 16 17 19 19 19 19
25 24 24 24 24 26 27 28 29 30 31 31 32 31 32 32 31 31 30 29 27 27 25 24 23 21 19 17 12 10 10 11 12 13 14 15 15 17 18 19 18 19 18
21 21 22 22 23 26 26 30 31 31 31 32 31 31 30 29 28 28 27 26 24 23 22 20 19 18 15 13 12 11 11 12 13 14 15 16 16 17 18 18 18 18 17
19 20 22 24 25 27 28 29 30 30 30 30 29 28 27 25 25 24 22 22 21 20 19 18 17 14 13 12 11 11 12 13 15 16 16 16 17 16 16 17 17 17 18
20 21 23 25 27 28 29 29 29 29 28 27 26 25 24 24 23 21 21 20 18 18 18 16 14 12 11 10 10 12 13 14 15 15 15 15 16 15 15 16 17 17 18
21 23 24 26 30 31 30 28 28 27 26 24 25 23 23 22 21 21 20 19 18 17 16 15 13 11 10 10 11 13 14 15 15 15 15 14 14 15 16 18 19 20 20
23 25 26 30 28 29 30 30 27 26 25 25 23 22 21 21 20 20 19 18 17 17 15 13 11 11 10 11 13 14 14 15 15 15 15 14 15 17 18 19 20 21 22
25 26 28 29 31 32 32 30 26 26 25 24 23 23 23 21 20 20 19 19 17 15 14 12 11 11 12 13 14 14 15 15 16 16 15 16 17 19 20 21 22 22 23
28 29 30 30 31 31 29 27 25 24 24 24 24 22 22 22 21 20 20 18 16 15 13 12 12 12 13 14 15 15 15 15 16 16 17 18 19 21 22 22 22 23 24
27 29 29 28 26 24 24 23 22 21 22 22 22 21 22 22 21 21 19 17 16 15 14 13 13 13 14 14 14 15 15 17 17 17 19 20 21 22 22 22 23 24 25
22 23 24 22 21 19 20 21 20 19 20 20 20 21 22 22 21 20 19 18 16 15 15 14 14 14 14 14 15 16 17 17 17 19 20 21 23 23 23 23 23 25 26
20 20 19 18 18 18 18 20 18 19 19 21 23 22 22 22 21 20 19 18 17 16 16 15 15 15 15 15 16 16 17 18 19 20 21 22 23 24 24 23 24 25 25
19 18 18 17 18 18 19 20 18 19 20 21 21 21 22 21 20 20 19 18 17 17 17 16 16 16 16 16 17 18 19 20 21 22 22 23 24 25 24 25 25 26 26
18 18 18 18 16 20 19 19 17 18 20 21 22 22 22 22 21 20 19 19 19 18 18 17 18 18 18 18 19 20 21 22 23 24 25 25 25 25 25 25 26 27 26
15 17 19 17 17 16 19 18 18 19 20 21 22 23 22 22 22 22 21 21 20 20 19 20 20 21 21 21 22 22 23 25 26 27 27 27 27 27 27 27 27 27 28
19 16 15 17 15 15 16 17 20 21 22 23 23 22 22 23 24 24 23 22 23 22 22 23 23 24 24 24 25 25 25 28 29 29 30 32 31 30 28 28 27 28 29
21 18 17 13 15 14 14 18 21 22 23 23 23 23 25 26 25 24 25 25 25 25 25 25 26 26 27 28 28 28 30 31 31 33 37 36 34 32 29 28 28 28 29
22 21 20 17 15 14 17 17 19 23 24 25 25 27 28 28 28 27 27 26 26 27 28 28 28 28 29 30 30 31 30 34 37 39 38 35 32 30 29 28 28 29 30
22 26 26 23 18 17 16 21 23 24 26 27 28 29 31 31 28 28 28 28 28 29 30 30 29 30 33 32 32 33 37 37 39 36 34 30 29 29 28 28 28 29 30
25 26 25 26 25 26 25 21 20 26 29 30 31 32 34 34 31 30 28 30 32 31 33 35 38 36 38 38 37 39 38 39 37 33 29 28 28 29 28 28 29 30 30
27 29 30 32 35 33 31 31 29 27 28 30 34 36 37 38 37 34 33 35 40 41 38 38 39 38 38 38 37 38 35 34 32 30 28 27 27 28 28 29 30 30 31
26 26 27 28 31 32 32 34 34 31 30 30 31 31 32 34 34 33 34 36 37 37 35 34 33 34 35 34 35 33 32 31 30 29 28 26 27 28 29 29 30 31 31
26 27 30 31 32 33 32 33 36 39 37 34 35 34 34 35 36 35 36 36 37 38 38 37 36 35 34 34 33 32 31 30 29 29 26 26 27 27 29 29 30 31 31

GFSGL_700_spd_093.txt.gz
Wind_Speed
23 23 32 32 32 31 31 31 33 34 35 36 36 36 35 34 32 32 31 31 31 31 31 31 31 29 29 29 29 30 31 30 29 26 24 21 18 14 11 11 14 14 14
34 33 31 33 34 34 34 35 36 37 38 37 37 37 35 34 33 33 33 33 32 32 32 32 33 32 31 31 31 30 28 27 25 23 20 16 11 11 12 13 15 15 16
39 33 33 33 33 34 35 36 36 36 36 35 35 35 34 34 34 35 34 34 35 34 34 33 32 33 32 31 29 26 24 23 21 17 12 12 11 12 13 15 16 17 17
34 32 33 34 33 34 35 36 34 34 32 33 33 33 33 33 33 34 34 34 34 33 33 33 31 30 29 27 24 22 21 20 14 11 12 12 12 14 15 17 17 17 17
31 32 32 33 33 32 31 31 30 30 31 32 33 33 33 33 33 34 34 33 33 32 31 29 27 26 25 23 21 20 16 13 12 12 13 13 14 15 16 17 17 16 16
27 28 27 26 26 26 26 27 28 29 30 32 33 34 34 34 33 33 33 31 30 29 27 25 24 23 22 20 18 16 13 13 12 14 14 14 14 15 16 16 16 16 15
21 21 22 22 23 25 26 27 29 30 32 32 33 33 34 33 32 31 30 28 27 25 23 22 21 21 18 17 15 14 14 13 14 15 14 14 14 15 15 15 14 15 17
19 20 21 23 24 25 27 29 31 32 33 32 33 32 31 31 29 28 27 25 23 22 22 20 20 18 16 15 14 13 13 14 15 14 14 14 15 15 14 14 15 17 18
19 20 22 23 25 27 29 31 34 33 32 32 32 31 28 28 25 26 25 24 22 21 20 18 17 16 15 14 14 14 14 15 14 14 14 14 15 14 14 16 17 19 20
21 23 24 25 26 28 31 33 33 32 31 30 29 28 27 25 24 24 23 21 21 20 18 17 17 16 14 14 15 15 14 14 14 14 14 15 15 15 16 18 20 21 21
25 25 26 27 29 30 32 33 34 35 34 28 27 26 25 24 22 22 21 20 21 19 19 18 17 16 14 16 16 15 14 14 14 14 15 15 16 17 18 20 21 22 22
26 26 28 30 31 32 34 33 33 31 29 27 24 24 23 23 23 22 22 21 21 20 19 18 17 16 16 16 15 15 15 14 14 15 15 16 17 19 20 22 22 23 23
26 27 29 30 30 30 31 30 27 26 25 24 23 23 23 24 23 23 23 22 22 21 19 18 18 17 16 16 15 15 15 15 15 15 16 17 19 20 21 23 23 23 23
26 27 24 24 25 26 25 23 21 21 22 22 20 21 22 22 22 23 22 22 22 21 19 19 19 17 16 15 15 15 15 15 16 16 17 18 19 20 22 23 23 23 24
22 25 25 23 22 22 20 20 20 20 21 20 20 21 21 22 23 24 23 23 22 21 20 20 19 17 16 16 16 16 16 16 16 17 18 19 20 22 23 24 24 24 24
20 19 21 22 21 21 20 20 20 21 22 21 21 21 22 24 23 23 23 23 23 22 21 20 19 18 17 17 17 17 17 17 17 18 19 21 22 23 24 25 26 25 25
20 19 18 18 20 20 20 19 22 22 21 20 18 19 22 24 24 24 24 24 24 22 21 20 20 19 19 19 20 20 19 19 20 21 21 23 24 25 26 27 27 27 27
22 21 20 18 17 19 20 20 20 22 20 18 20 22 24 24 24 25 25 24 22 22 22 22 22 22 21 22 22 22 22 22 23 23 24 26 27 28 31 32 29 29 28
22 20 23 21 20 18 19 19 17 19 19 19 21 24 24 22 24 26 25 24 24 24 24 24 24 25 25 24 25 25 25 26 26 27 28 28 30 33 36 33 30 29 28
23 22 21 20 20 19 17 18 16 17 19 21 22 23 20 24 26 25 26 26 27 27 27 27 27 27 27 27 27 27 28 29 29 29 31 30 35 35 34 31 29 28 28
26 25 27 24 22 20 18 17 18 18 19 21 22 25 24 27 28 29 29 29 28 28 29 29 30 30 29 29 29 29 30 30 31 31 32 34 36 36 33 29 27 27 27
24 24 26 26 27 27 25 21 19 19 22 22 22 26 30 31 29 29 30 30 30 30 31 32 32 31 30 31 31 31 34 35 34 36 36 39 36 35 32 28 27 27 27
23 23 24 25 27 25 26 26 26 26 22 22 26 28 31 33 33 33 32 32 32 33 33 34 33 32 33 33 37 41 37 35 39 39 39 37 35 33 31 28 26 26 27
24 25 26 26 27 29 30 31 32 33 32 32 29 28 32 35 36 35 34 35 34 35 35 38 42 39 42 42 40 38 36 38 39 40 37 33 33 32 30 27 26 26 27
23 25 27 28 28 29 30 31 32 31 32 34 35 35 35 34 35 37 39 40 41 42 42 42 43 43 41 38 36 34 33 35 36 36 33 33 31 30 29 26 26 26 27
24 25 25 26 27 28 29 31 32 33 34 33 35 39 38 37 36 36 36 38 39 39 38 37 37 37 37 37 36 35 35 35 35 33 33 31 30 29 28 25 26 26 27

GFSGL_700_spd_096.txt.gz
Wind_Speed
38 39 46 43 26 23 25 26 28 28 29 31 32 34 35 35 35 36 35 33 32 32 31 30 29 28 31 31 33 30 30 30 30 31 27 23 23 20 18 14 12 12 13
43 43 39 37 31 20 25 28 29 30 32 34 36 38 38 37 37 36 35 35 33 32 32 32 30 31 32 31 30 32 29 30 29 27 23 22 19 16 13 14 13 13 15
31 31 29 27 25 27 28 27 28 34 38 39 39 39 38 37 36 36 35 35 35 34 33 33 33 33 32 31 29 31 29 28 25 23 21 18 13 13 14 14 14 15 15
37 33 32 29 28 29 30 31 32 34 36 38 37 36 36 35 34 34 35 35 34 34 33 33 33 32 31 31 30 29 27 24 21 20 15 13 13 14 14 15 15 15 15
27 30 31 31 32 31 32 32 33 34 34 33 33 32 32 33 33 33 34 35 34 33 33 31 30 29 30 27 26 25 23 20 17 14 13 13 14 15 16 16 14 14 14
21 23 26 28 29 29 29 28 28 28 29 29 30 31 32 32 33 34 34 33 33 33 31 30 28 27 26 25 23 21 19 17 14 14 14 13 15 16 16 16 14 12 12
20 21 23 23 23 22 23 24 25 27 29 30 32 32 33 34 34 33 33 33 31 29 29 27 26 25 23 22 21 18 16 16 14 14 14 14 15 16 15 14 13 12 11
17 18 19 20 20 21 23 24 26 28 31 32 34 35 34 34 34 32 32 31 29 28 26 24 24 22 22 19 18 15 16 15 14 14 15 15 15 15 14 13 13 13 14
15 16 18 20 22 24 25 27 28 30 33 34 33 32 33 33 31 30 29 29 27 26 23 22 21 21 19 18 17 16 16 14 14 14 15 15 15 14 14 13 14 15 16
15 17 19 22 23 25 26 28 31 32 34 34 34 33 31 31 28 27 26 26 25 23 22 22 19 18 18 19 17 16 14 14 14 14 15 15 15 14 14 14 16 17 18
18 19 21 23 26 28 29 31 33 35 35 35 37 36 30 28 27 25 23 23 23 21 21 21 18 19 20 18 16 15 15 15 14 15 15 15 14 14 15 16 17 19 20
23 24 23 25 27 29 32 33 33 33 33 34 30 29 27 24 25 24 23 22 23 19 19 19 19 21 19 17 16 16 15 15 14 15 15 14 14 15 16 17 18 19 20
24 24 25 27 26 27 27 28 28 28 28 25 25 26 23 21 22 22 22 21 20 19 20 20 21 20 18 17 17 17 16 15 15 14 14 14 15 16 17 17 18 19 21
24 24 27 27 27 27 26 25 24 22 22 21 21 22 20 19 20 21 21 21 22 21 21 22 21 19 19 19 18 17 15 15 15 14 14 14 15 16 16 17 18 20 21
25 25 24 22 23 23 24 24 24 22 22 22 22 21 19 17 20 22 22 21 22 22 22 22 21 20 19 19 17 16 16 16 16 16 15 15 16 16 17 18 20 21 21
29 24 23 22 21 20 22 23 23 24 23 22 22 22 20 19 21 21 20 21 22 22 23 22 21 20 20 18 17 18 18 18 18 17 17 17 17 18 19 21 23 23 25
23 24 22 22 20 19 19 20 22 23 23 22 22 21 20 18 20 21 22 23 24 24 22 21 21 21 20 19 20 20 21 21 20 20 19 19 19 20 22 24 26 28 29
23 23 19 22 22 21 21 21 21 21 21 19 21 20 19 20 21 23 24 24 22 20 21 24 23 22 22 22 22 23 24 22 22 22 22 23 23 24 25 26 28 31 30
25 24 23 24 23 24 20 20 20 20 19 18 17 18 19 23 25 26 24 20 19 22 25 24 24 24 24 25 25 25 25 25 25 25 25 26 26 27 28 29 32 31 30
25 28 27 23 19 19 24 23 20 18 18 17 16 17 19 22 23 26 24 22 22 24 24 24 26 27 27 27 28 27 28 28 27 27 27 27 28 29 30 32 34 33 30
24 25 25 24 24 27 25 24 22 20 19 17 17 18 20 23 23 25 23 23 25 25 26 27 29 29 29 29 30 30 30 30 29 29 29 29 33 31 33 34 35 33 30
22 23 23 23 22 23 27 27 27 25 24 21 18 19 21 25 26 28 29 27 26 29 30 30 31 31 31 32 32 32 31 31 30 32 35 38 34 34 35 35 35 32 30
20 20 21 22 23 24 24 26 26 25 26 26 25 24 22 24 27 29 31 31 33 32 32 35 35 34 34 33 34 33 32 32 35 41 42 37 33 36 35 34 33 31 30
16 18 21 23 25 25 26 26 27 27 29 28 28 29 31 31 28 27 30 34 36 36 37 38 38 37 36 35 35 37 42 44 41 40 35 33 34 36 34 32 32 30 29
20 21 21 22 24 25 26 27 28 28 29 30 31 31 31 31 35 36 35 34 35 38 39 40 41 42 44 45 44 44 42 39 36 35 32 33 34 33 32 32 31 29 30
21 22 22 23 24 25 26 27 27 28 30 30 30 30 31 33 32 34 39 39 37 36 36 37 38 40 41 41 39 37 37 36 36 35 34 35 34 31 31 31 30 29 29

GFSGL_700_spd_099.txt.gz
Wind_Speed
25 25 24 26 29 33 36 35 36 26 27 30 32 30 30 32 32 34 35 34 34 34 32 31 30 30 29 29 31 30 31 30 38 33 31 28 26 23 22 21 16 13 13
30 30 31 31 37 39 33 41 40 23 25 26 27 29 33 35 37 38 38 38 37 35 34 33 32 31 31 31 31 32 32 32 31 33 30 28 24 21 21 18 13 14 13
27 29 30 33 36 33 27 22 20 21 23 29 30 32 38 39 38 39 39 38 37 35 34 33 34 34 33 33 32 31 33 32 31 31 29 26 22 20 17 14 13 14 14
28 29 30 28 27 29 29 27 25 26 30 32 33 35 37 39 40 38 38 35 35 34 34 33 32 33 33 32 32 32 30 32 30 28 25 23 21 16 15 14 14 14 14
23 27 31 32 30 31 31 29 28 29 31 34 35 35 36 35 35 35 35 34 33 33 33 33 33 32 32 31 31 30 30 29 26 24 22 21 17 15 15 15 15 15 14
20 21 22 23 26 27 26 27 28 29 30 30 29 30 31 33 34 34 34 33 34 34 34 33 32 32 31 30 29 28 27 25 23 21 19 17 16 16 15 16 14 14 14
14 16 18 20 21 22 23 24 24 25 26 27 28 30 31 33 35 36 35 34 33 32 32 32 31 29 28 28 26 25 23 22 20 20 18 17 17 16 17 15 14 14 15
14 15 16 17 18 18 19 20 22 24 26 28 30 32 34 35 35 35 35 35 34 31 30 29 28 28 27 25 24 22 22 21 19 19 18 17 17 16 16 14 14 14 14
14 15 16 17 17 18 20 22 24 26 28 30 31 33 35 36 35 34 33 33 31 30 28 27 25 25 22 23 22 21 20 19 19 18 17 17 17 15 15 15 14 14 15
12 14 15 16 18 21 23 25 27 29 31 33 35 36 36 37 37 33 32 30 29 28 26 24 24 23 22 22 20 20 18 19 18 17 16 17 16 14 14 15 15 15 15
13 15 16 17 20 23 25 27 28 30 34 36 36 36 36 37 37 31 29 27 26 25 24 24 21 21 20 20 19 19 19 18 17 16 17 16 15 15 15 15 15 16 15
17 18 20 23 24 25 26 28 27 28 29 28 30 32 32 31 31 26 23 23 23 23 21 22 20 21 20 20 20 20 19 18 17 17 17 15 15 15 14 15 16 16 16
20 22 23 24 25 27 30 29 28 28 27 26 26 26 25 24 25 23 21 21 22 22 21 20 20 21 21 21 21 20 18 18 17 17 16 15 15 14 15 15 15 15 16
23 24 24 25 28 29 26 26 26 25 26 26 26 25 24 24 22 19 20 21 22 22 22 22 22 22 22 21 21 19 19 19 17 16 15 16 16 15 15 15 14 15 16
24 25 25 26 24 25 24 23 23 24 25 26 25 24 23 22 22 19 20 21 23 23 23 23 21 23 23 22 21 20 20 18 16 16 16 17 16 16 15 16 16 16 18
25 26 25 26 25 25 24 21 21 22 23 24 24 24 23 22 21 19 19 21 23 24 23 21 21 21 21 21 21 21 20 18 17 17 18 18 18 18 17 18 17 18 20
25 25 24 24 25 25 24 24 21 22 22 22 23 23 21 21 20 20 20 21 24 24 19 19 21 23 23 22 22 21 20 20 19 18 20 19 20 20 21 21 21 21 22
27 28 27 24 24 22 24 23 25 24 22 21 22 21 21 20 20 20 21 21 23 21 17 19 22 22 22 22 21 21 22 22 21 21 21 21 22 23 24 24 25 25 27
30 29 28 25 25 25 26 26 26 22 21 21 20 20 19 19 19 20 22 22 23 18 18 21 23 22 23 26 25 25 24 24 23 22 22 24 26 27 26 27 27 28 29
27 26 27 23 27 27 26 20 22 25 22 20 18 19 20 21 19 18 19 20 23 21 21 23 25 27 28 28 28 27 26 25 25 23 25 29 30 29 28 29 29 31 31
21 23 24 25 26 25 23 24 26 27 28 26 23 19 20 22 21 20 21 20 23 25 27 26 27 27 28 28 28 27 27 27 27 27 30 32 32 31 31 31 35 33 32
16 19 21 21 23 23 24 23 25 27 25 25 23 23 24 20 21 22 22 23 25 27 27 29 30 30 29 29 28 30 31 30 30 31 32 34 34 32 37 40 38 35 33
16 17 19 20 21 21 22 23 25 26 26 26 26 26 26 26 25 22 21 24 28 31 32 35 38 34 31 32 34 34 32 32 33 36 36 35 36 40 42 37 37 33 31
17 18 18 18 19 22 25 26 27 27 28 28 28 28 28 28 27 27 30 30 27 26 32 36 36 38 39 38 35 35 36 37 37 37 38 42 45 43 36 33 32 31 32
17 17 18 19 21 22 23 24 24 26 27 27 28 29 28 28 30 31 30 30 32 37 35 33 34 39 43 43 43 42 40 40 45 47 47 43 39 35 30 31 32 31 31
18 18 19 20 21 21 23 23 24 25 26 27 29 30 31 32 31 31 31 31 32 31 33 39 39 37 36 38 39 41 41 42 43 41 39 38 34 32 31 32 31 31 32

GFSGL_700_spd_102.txt.gz
Wind_Speed
21 21 21 22 24 22 21 24 26 29 32 32 36 34 31 29 27 27 29 30 30 32 33 34 33 32 33 33 32 31 30 31 31 33 34 33 31 30 30 26 24 22 20
19 20 20 21 22 22 23 27 29 31 27 31 29 27 26 26 26 27 31 33 34 35 35 36 36 35 34 34 33 32 31 34 31 33 36 30 30 31 29 24 23 20 17
21 22 23 25 25 26 26 27 30 29 28 20 24 28 30 31 34 35 37 36 37 37 36 35 36 35 34 34 34 33 33 34 35 33 35 35 31 30 26 23 21 17 16
23 24 25 25 26 26 27 29 30 27 28 28 28 28 30 32 34 37 39 40 38 39 38 35 35 34 34 34 34 34 33 34 34 34 32 32 31 27 23 21 17 17 15
25 25 27 27 28 29 30 30 29 29 31 31 31 32 34 35 37 37 38 37 37 35 36 36 34 35 33 33 34 34 34 32 33 33 31 29 27 24 22 18 17 16 16
22 22 23 26 28 29 29 28 28 28 30 32 33 32 32 33 33 33 34 36 36 36 36 36 35 34 33 32 32 33 32 31 31 29 28 26 24 21 19 17 17 17 16
21 20 20 21 21 20 21 23 25 27 28 28 27 27 28 30 32 34 36 37 38 38 37 36 36 34 32 32 31 30 30 28 28 26 26 25 20 20 19 17 18 17 17
16 16 16 17 18 19 20 21 22 23 24 25 27 28 31 33 34 35 37 37 38 38 37 36 34 33 32 30 28 28 26 26 25 24 24 23 20 19 17 17 17 17 17
15 15 16 16 17 17 18 20 21 23 25 27 29 31 32 35 36 38 40 39 36 37 35 34 32 31 31 28 27 26 26 23 23 23 22 20 19 19 17 18 16 18 16
15 16 16 15 15 16 18 21 24 27 28 31 33 35 36 39 39 38 39 40 38 36 33 31 30 28 28 27 28 23 25 22 21 21 21 19 18 19 17 17 17 17 16
15 15 14 14 16 17 20 24 27 28 30 31 33 34 34 33 34 35 38 37 33 31 29 27 27 27 25 24 24 24 24 21 20 20 19 18 19 18 17 18 17 16 17
16 16 16 17 19 21 24 26 27 29 31 31 31 31 30 30 31 31 32 32 28 25 24 24 24 24 23 22 22 24 22 21 20 20 19 18 17 18 17 18 17 17 18
18 19 20 21 23 25 27 28 30 32 30 29 30 29 28 28 28 28 30 27 23 21 22 22 22 22 22 21 22 22 20 21 20 19 19 18 18 18 17 18 17 18 18
20 21 23 25 25 27 29 29 28 28 26 25 27 28 27 28 27 27 26 25 21 21 23 23 22 22 21 20 21 20 20 21 20 20 17 18 19 18 18 18 18 17 17
25 26 26 26 27 28 29 29 29 29 26 24 26 27 26 26 26 26 25 23 22 22 23 24 22 21 20 20 20 20 21 20 20 19 20 20 20 19 18 18 18 17 17
27 29 31 30 28 28 29 30 30 28 26 23 24 24 25 26 25 25 24 22 22 22 21 23 25 21 18 18 19 22 22 22 20 21 21 21 20 20 18 18 18 19 19
27 28 27 28 28 29 30 29 28 27 27 26 25 25 24 24 23 24 24 23 22 22 21 23 24 23 21 19 21 22 23 24 26 23 22 22 21 19 19 20 21 21 22
30 30 29 29 31 30 28 27 28 28 27 27 26 24 23 22 22 22 22 23 21 21 21 22 22 22 20 22 23 23 23 24 24 24 24 23 21 21 23 23 24 24 24
33 33 33 33 32 30 29 28 30 27 25 26 25 26 24 21 20 19 21 19 19 20 22 21 22 21 21 23 25 27 28 27 25 25 24 24 22 25 24 24 27 26 27
29 30 31 32 30 30 26 29 30 30 25 23 26 26 25 21 21 20 20 19 18 18 21 21 20 21 23 27 27 24 24 24 24 24 25 26 26 25 28 29 29 32 30
21 22 24 25 26 28 27 33 33 28 27 30 29 33 29 26 25 22 20 19 19 19 20 24 26 27 28 27 28 26 27 29 30 28 28 28 28 29 31 31 33 33 32
17 16 17 20 22 23 25 26 26 27 27 27 29 30 30 27 25 25 24 21 21 22 22 23 26 30 30 30 30 31 30 29 29 29 28 29 33 31 34 34 33 34 36
19 18 17 17 18 20 21 22 24 25 26 27 28 28 28 29 29 28 28 28 27 24 24 27 29 29 34 37 36 33 32 30 28 31 32 36 35 37 37 37 38 38 40
17 17 17 18 19 19 20 21 23 24 26 27 28 30 31 31 30 30 29 29 29 28 32 30 28 29 33 36 40 40 39 37 41 36 37 40 40 38 40 40 40 45 43
15 15 15 16 17 18 19 20 21 22 24 25 26 27 28 28 29 29 29 29 30 31 32 32 31 35 35 33 35 39 46 47 43 45 46 44 40 41 43 45 48 42 36
16 16 16 17 17 18 18 19 20 21 22 23 24 25 27 28 29 29 30 32 32 33 33 33 34 35 33 37 40 37 36 39 45 46 45 45 47 48 47 44 42 38 34

GFSGL_700_spd_105.txt.gz
Wind_Speed
19 20 20 21 21 20 19 20 21 20 19 18 22 25 28 33 33 35 32 29 28 28 29 29 29 30 32 33 32 32 32 32 35 37 34 35 33 31 34 33 28 27 26
21 20 20 21 20 19 20 19 19 18 20 23 24 24 20 21 25 26 26 27 28 30 32 34 33 33 33 34 35 34 34 35 37 36 34 32 35 33 33 31 30 28 25
21 19 18 18 19 20 21 21 21 23 23 24 28 25 23 24 27 29 30 32 34 35 36 38 38 37 35 34 35 36 35 36 36 35 37 34 34 30 35 35 28 27 24
17 18 18 20 22 23 24 25 25 26 27 29 28 28 28 29 30 31 33 34 36 37 38 38 37 37 36 36 33 36 36 34 34 34 35 35 34 38 29 30 27 24 22
21 21 22 24 25 25 25 26 27 27 28 30 31 30 30 31 33 34 35 35 35 35 36 37 36 36 35 35 35 34 36 35 34 35 33 31 34 32 30 28 26 23 19
26 24 25 25 26 26 27 28 29 31 32 31 30 30 30 32 33 34 34 34 35 36 36 37 37 37 37 36 35 34 34 35 34 33 32 30 30 29 27 25 23 20 19
26 26 23 23 23 24 27 28 28 28 27 27 28 28 30 31 31 32 34 35 37 38 39 39 38 38 37 37 35 35 34 33 33 32 30 27 28 27 24 22 20 20 19
21 23 23 22 22 22 22 23 24 24 24 25 25 26 28 30 32 34 36 38 39 41 41 39 39 38 36 36 34 33 33 33 31 30 28 27 25 22 21 20 19 19 18
19 19 19 19 20 21 21 21 21 22 22 23 25 27 30 33 35 36 38 40 42 43 42 40 38 37 35 34 32 32 32 29 28 29 25 24 23 20 20 19 19 18 19
18 19 19 20 20 20 20 20 20 20 22 25 27 30 33 35 36 36 36 35 36 38 39 39 36 34 33 31 30 29 30 29 25 25 23 22 22 20 20 20 18 19 19
19 19 19 19 18 18 18 19 19 21 25 28 29 32 34 34 34 35 34 33 35 36 37 34 30 28 28 27 28 26 27 25 22 23 21 21 22 20 19 19 19 19 18
19 18 19 19 18 18 19 21 24 28 29 28 29 31 33 34 33 32 32 33 32 33 34 30 26 23 25 25 25 25 24 23 22 21 20 21 22 19 19 20 19 18 18
20 21 21 21 21 22 23 25 28 29 30 31 31 29 27 29 29 31 32 32 32 30 30 25 23 22 23 23 23 23 21 21 22 21 21 22 20 18 18 19 17 18 18
21 21 22 23 23 24 25 27 29 31 31 30 29 28 27 28 29 30 30 30 32 30 29 24 23 23 23 22 20 21 20 20 20 20 20 19 20 21 19 20 19 19 18
21 22 23 25 26 29 30 31 32 33 32 32 33 30 28 26 27 26 27 28 28 29 26 24 22 22 22 23 21 19 20 20 20 20 20 21 21 19 19 20 19 18 17
25 27 28 29 30 31 32 34 30 29 30 36 37 32 30 27 27 26 26 26 26 27 24 23 21 21 21 24 22 19 20 20 20 22 22 20 18 22 21 21 19 16 17
27 28 30 30 31 31 31 30 33 34 34 35 32 33 28 27 26 25 24 24 23 24 22 21 20 20 21 21 17 19 20 22 23 24 26 23 23 23 22 20 18 19 20
28 30 31 32 33 33 33 33 34 34 31 29 33 31 29 27 25 25 24 22 21 22 21 20 20 20 21 21 26 28 25 24 25 24 21 23 25 24 22 22 23 23 22
30 32 34 35 36 37 37 36 37 34 31 30 30 28 27 28 25 25 24 22 21 21 21 20 20 20 21 23 22 23 25 25 23 26 27 26 26 26 25 25 26 23 26
24 25 28 30 32 33 35 34 33 33 27 30 32 32 28 30 28 28 29 25 23 22 21 20 20 20 23 23 25 26 25 26 26 25 24 27 27 27 27 28 27 27 31
21 22 22 22 23 25 27 28 27 28 28 32 34 33 30 33 35 34 30 26 26 24 23 22 21 21 24 25 23 24 28 26 24 25 27 28 29 29 29 30 30 31 32
23 23 23 21 19 19 21 23 25 27 28 28 28 29 31 31 31 29 28 28 27 26 26 24 23 23 23 27 30 31 30 29 35 37 31 30 32 32 32 31 32 34 35
23 23 22 21 21 20 20 20 21 22 24 25 26 26 28 29 29 29 29 31 30 29 28 29 28 26 25 26 29 32 32 32 32 32 34 36 38 38 37 36 35 35 33
20 20 20 19 19 19 20 20 22 23 24 25 26 27 27 29 29 29 29 29 29 29 30 29 27 27 30 31 30 31 32 36 41 39 40 40 38 38 39 38 37 39 42
18 18 18 18 18 19 19 19 20 21 22 23 24 24 25 26 26 27 28 29 30 31 31 32 32 31 30 32 33 34 35 33 37 41 44 47 50 52 51 52 49 46 48
18 18 18 18 18 19 20 20 20 21 22 23 23 24 24 24 25 26 27 28 29 29 30 31 32 34 34 34 34 34 36 33 37 38 38 43 49 50 49 50 51 51 50

GFSGL_700_spd_108.txt.gz
Wind_Speed
18 20 23 24 24 22 21 21 20 19 17 16 16 18 19 18 18 19 23 22 24 28 28 25 25 26 26 28 29 31 32 31 31 32 34 31 33 23 32 36 31 35 28
18 19 20 21 22 21 22 21 19 18 16 15 17 18 19 19 20 17 18 21 24 27 30 32 33 34 35 34 34 33 33 34 34 34 35 37 34 32 31 32 35 29 29
20 20 20 20 21 22 20 19 18 16 16 18 20 20 22 23 24 23 23 25 27 29 31 32 34 34 35 35 33 33 34 33 34 34 37 36 35 32 35 29 29 29 33
20 20 19 18 20 21 21 20 20 19 20 21 23 24 25 25 27 28 28 28 29 31 32 33 34 34 34 34 33 33 33 33 33 33 35 35 33 31 32 35 30 33 29
19 18 19 19 20 21 22 23 23 23 23 24 26 27 27 29 30 29 29 29 31 32 32 33 34 34 35 35 35 34 34 34 33 34 33 36 35 35 29 31 34 33 28
22 20 20 21 21 22 24 24 25 26 26 27 28 29 29 29 28 28 28 29 31 32 33 35 36 37 37 38 37 36 35 35 34 33 34 34 32 31 31 33 30 26 25
28 25 24 25 24 25 24 25 25 26 27 28 28 27 27 27 28 27 28 30 32 35 36 37 39 39 39 40 39 37 35 34 33 32 32 30 31 30 28 26 26 25 23
30 27 27 26 25 23 23 23 25 25 24 24 25 25 26 26 27 27 29 30 33 36 37 38 39 39 39 39 38 36 34 33 32 31 30 29 27 27 26 24 25 23 19
24 24 24 23 23 23 23 23 22 21 23 23 23 24 25 26 28 30 31 31 33 34 34 35 36 37 38 38 37 34 32 31 29 30 27 27 25 25 23 24 21 21 20
22 22 21 20 20 21 22 22 21 22 22 23 23 24 25 28 31 32 33 32 32 32 34 34 36 36 36 36 33 30 28 28 27 27 26 24 24 22 21 22 21 20 19
20 19 20 20 21 20 21 21 21 22 22 22 24 25 28 30 31 32 33 31 30 31 32 34 34 36 35 33 27 25 24 24 24 24 24 22 22 22 21 20 20 19 19
19 20 19 20 21 22 21 20 21 21 23 26 27 29 31 32 30 30 30 30 29 29 32 32 33 33 32 30 23 23 22 22 22 22 22 20 21 21 21 19 18 19 18
20 20 20 22 21 20 21 22 23 24 27 29 29 31 32 30 28 28 28 28 29 29 29 32 31 31 27 24 22 23 21 21 21 21 21 22 21 18 20 19 19 20 20
23 23 22 22 23 24 24 24 25 27 30 32 31 31 29 29 30 30 28 27 28 28 27 28 29 28 24 23 23 22 22 20 19 20 21 20 19 20 20 18 19 19 17
24 27 26 23 25 26 26 27 28 32 33 31 30 29 30 31 36 31 27 27 27 28 26 25 26 25 23 21 22 21 22 22 20 20 20 20 20 20 16 21 22 19 21
21 22 23 26 27 29 30 31 31 33 35 32 28 30 33 37 34 29 26 25 25 26 24 23 25 23 22 21 21 21 22 23 22 19 19 19 20 19 22 24 20 20 20
23 25 27 28 30 31 32 32 31 32 32 30 34 34 33 30 29 27 24 24 24 24 23 23 23 23 21 20 20 20 22 23 20 20 21 19 19 24 21 18 18 18 20
25 26 28 29 30 32 33 34 34 34 33 33 34 35 33 29 30 26 23 23 23 24 23 22 23 22 22 21 20 20 21 21 21 21 20 23 23 23 22 22 22 24 24
26 27 28 29 31 33 35 36 37 37 36 34 33 38 34 31 29 28 26 24 23 25 25 23 23 22 22 21 21 21 21 24 28 28 26 24 25 26 24 26 24 27 28
23 24 25 25 26 27 29 31 32 34 35 33 33 33 29 29 31 31 27 28 29 29 26 25 23 22 22 21 21 22 22 23 21 23 23 23 29 30 29 28 27 28 29
22 23 24 24 25 24 24 23 25 27 28 29 26 26 29 33 35 29 26 29 29 28 25 24 24 22 22 22 22 22 23 20 26 24 25 32 27 24 25 26 28 29 31
23 24 24 24 24 24 22 21 20 21 22 22 24 27 30 30 29 29 28 28 29 27 27 26 23 23 23 23 23 24 24 25 26 23 29 28 28 29 30 30 30 29 31
24 24 23 23 22 22 21 21 21 21 21 21 22 24 25 26 27 28 28 28 28 30 30 30 27 25 25 26 27 26 25 25 30 31 32 33 37 40 39 35 33 32 32
20 20 20 20 19 19 19 19 20 20 20 21 22 23 24 25 26 27 27 28 28 29 29 28 27 27 26 25 26 27 28 29 29 30 34 36 34 38 37 39 39 38 37
16 17 17 17 17 17 18 19 19 20 20 21 21 21 22 23 23 24 25 26 26 26 27 27 27 28 29 30 30 30 30 31 32 34 35 34 36 39 43 43 43 42 39
17 18 19 19 20 20 20 20 21 21 22 22 23 23 24 24 25 26 26 27 27 27 27 27 27 27 28 29 30 31 33 33 34 34 36 38 38 38 39 41 43 46 48

GFSGL_700_spd_111.txt.gz
Wind_Speed
9 11 13 15 16 16 18 18 19 19 18 18 18 18 19 19 19 18 18 17 17 18 18 19 21 22 24 27 29 31 32 34 38 41 36 34 33 31 28 29 25 30 31
12 12 14 16 18 19 20 20 20 19 19 19 19 19 19 18 17 15 15 16 18 19 20 22 23 25 27 28 30 32 33 34 35 35 33 31 30 30 29 29 28 30 30
14 13 14 15 16 18 19 19 20 20 20 19 20 19 18 18 18 18 17 20 22 23 23 24 25 27 29 30 30 30 31 32 33 33 33 32 32 30 30 28 31 32 32
17 16 15 16 17 18 19 21 22 22 21 21 20 20 21 21 21 20 22 24 24 24 25 25 26 27 28 29 30 30 31 31 33 33 33 33 32 31 28 29 28 29 33
21 19 18 17 16 18 20 21 22 22 23 23 23 24 24 22 23 25 26 26 25 26 26 26 27 28 30 32 32 32 33 33 33 33 33 33 32 28 32 34 34 35 30
21 19 17 17 17 18 21 22 23 24 24 24 24 24 24 25 26 27 26 25 25 25 25 26 28 29 32 34 35 35 35 36 34 34 33 32 32 31 32 32 32 30 33
22 20 18 18 19 21 22 23 24 25 26 26 26 25 26 28 27 25 27 25 26 26 26 28 29 29 31 33 33 33 34 34 34 33 32 31 31 30 30 28 28 27 27
26 26 25 24 24 26 26 25 25 25 25 26 27 27 27 25 25 25 26 25 26 28 29 29 30 30 30 31 32 33 34 34 32 33 31 30 29 28 28 26 26 25 25
26 26 26 26 26 27 27 26 24 23 24 25 24 23 24 25 25 25 25 26 28 29 29 30 30 30 30 31 32 32 33 31 29 29 28 28 27 27 25 25 22 23 22
26 26 26 24 23 22 22 22 21 20 20 22 23 24 24 26 26 25 26 28 27 27 28 29 30 29 30 31 32 33 32 28 25 25 25 26 25 25 23 25 22 21 18
21 22 21 21 21 21 21 20 21 20 22 22 23 24 25 26 27 28 28 29 28 26 27 28 29 30 30 31 31 32 30 27 22 22 23 23 23 22 22 22 20 20 18
19 18 19 19 20 20 21 21 21 21 22 23 24 25 26 28 29 31 31 28 25 25 26 26 28 28 29 30 30 30 26 23 21 20 21 22 22 21 21 20 21 20 19
19 19 20 20 20 21 21 22 21 22 23 23 24 27 28 29 31 31 29 25 27 27 26 26 26 26 27 28 28 27 25 23 22 21 20 20 19 19 19 20 19 19 19
24 25 25 25 25 25 24 23 23 24 26 26 26 28 30 30 32 31 29 26 28 29 25 23 25 27 26 26 27 25 23 22 22 20 19 18 18 19 19 19 19 20 20
20 22 23 26 29 28 27 27 28 30 28 27 26 30 32 33 32 29 32 34 29 26 23 23 25 24 24 24 25 24 22 21 21 21 20 19 18 19 20 21 20 20 17
20 25 29 28 21 27 23 23 27 28 28 29 33 35 35 29 29 32 34 31 23 22 21 22 23 23 23 23 23 22 22 21 20 20 20 20 17 17 18 19 19 19 20
21 23 25 25 25 25 26 28 30 33 34 34 36 36 35 31 33 31 30 29 22 22 20 20 22 22 22 22 22 21 21 20 20 20 20 18 17 19 20 21 22 19 21
23 25 26 27 28 29 30 31 33 34 35 35 35 35 34 35 32 31 32 28 19 20 21 20 21 23 23 23 21 20 20 20 18 18 17 18 19 20 19 19 20 22 22
24 25 26 26 27 28 29 31 33 34 36 37 38 37 36 36 32 34 32 26 24 23 24 24 24 26 26 23 21 19 19 18 18 20 22 22 23 22 21 22 22 23 22
24 24 24 24 25 25 26 26 27 28 29 30 32 33 34 33 30 32 27 25 29 29 26 26 26 24 24 24 22 20 18 17 18 19 20 24 26 28 26 25 25 27 31
25 25 25 25 25 25 26 26 26 26 25 24 24 25 26 24 24 25 27 30 32 27 26 26 26 24 22 22 23 22 20 19 19 18 20 23 27 26 23 25 26 27 30
26 25 25 25 25 25 26 26 26 24 23 21 19 21 22 24 26 28 28 27 26 26 25 25 24 24 25 24 23 24 23 21 21 23 23 22 27 27 33 31 27 25 25
27 27 27 26 24 24 24 24 23 22 21 21 20 20 22 23 24 25 25 25 25 25 25 25 26 26 26 24 24 24 24 25 25 25 25 26 27 27 31 33 36 35 33
26 25 21 19 20 21 20 20 19 19 19 18 18 18 19 20 21 21 21 22 22 21 22 23 23 23 22 23 24 25 26 26 27 28 29 30 29 30 32 34 36 36 40
20 19 21 20 17 17 16 15 15 16 16 16 16 17 17 17 18 19 19 20 20 19 20 21 21 21 22 23 24 25 26 27 30 32 32 33 33 33 33 34 33 36 36
17 16 16 16 15 16 17 18 19 19 19 20 19 19 19 19 20 20 21 21 22 22 22 23 24 25 25 25 26 26 27 27 28 29 32 35 37 36 35 36 36 36 36

GFSGL_700_spd_114.txt.gz
Wind_Speed
11 9 10 8 10 9 14 16 15 14 16 21 23 25 24 23 23 22 18 16 14 13 14 16 18 19 20 22 23 24 27 30 32 33 32 32 32 31 30 29 28 25 26
9 9 11 10 12 15 16 18 18 20 22 24 24 24 24 24 23 20 18 16 16 16 17 19 20 22 23 24 26 27 28 30 32 32 32 32 32 31 31 31 30 26 24
7 7 9 11 14 14 17 19 20 21 23 24 25 25 25 24 21 20 18 18 18 19 21 22 22 23 24 24 25 25 26 27 30 31 32 32 31 30 31 32 32 30 23
9 9 10 10 12 16 19 21 23 25 27 28 26 25 25 24 23 23 22 21 21 22 23 23 24 24 23 24 26 27 28 29 31 32 33 33 32 31 31 32 30 32 28
13 13 13 11 11 16 19 21 24 26 27 26 25 24 25 25 25 25 25 24 24 23 24 24 25 24 24 26 27 28 30 32 32 34 34 34 33 32 31 30 26 29 32
17 16 15 15 13 15 18 21 23 24 25 26 25 26 26 26 26 27 26 26 25 24 25 26 26 25 25 28 28 29 30 30 31 31 32 33 32 31 31 32 30 32 35
20 19 19 17 16 16 17 19 21 23 25 26 26 27 27 27 28 27 26 25 24 26 27 27 27 29 29 29 29 29 29 30 31 32 32 33 33 31 30 30 30 31 31
23 22 23 21 20 19 20 21 21 23 24 26 27 27 27 27 27 27 25 24 25 26 27 27 29 30 29 28 28 28 30 30 31 31 30 30 30 30 29 29 29 30 29
25 25 25 25 24 24 24 24 26 27 27 27 27 27 27 27 25 24 25 25 26 27 27 29 29 29 28 26 27 28 30 31 31 31 30 29 28 27 27 27 27 28 26
24 25 27 28 28 28 28 28 28 27 25 25 25 25 24 23 23 24 26 27 26 26 29 29 28 28 27 26 27 28 29 31 32 30 29 28 25 24 26 27 26 25 26
19 21 23 24 26 26 27 26 25 25 24 23 23 22 23 24 25 25 26 27 26 28 29 27 27 28 28 27 25 27 28 30 30 29 28 26 24 23 24 25 24 24 23
15 17 17 18 20 21 21 21 22 22 22 23 23 24 25 25 25 26 26 27 27 25 27 28 27 29 29 28 27 27 28 29 28 26 26 22 21 22 23 23 23 22 20
15 15 16 16 18 19 20 21 21 22 22 23 22 23 24 25 26 26 27 30 30 26 25 26 29 29 30 29 27 27 28 27 26 25 23 20 19 19 21 22 21 20 20
19 19 20 21 22 23 23 23 23 24 24 24 24 25 26 26 28 28 30 33 34 32 26 27 28 28 28 27 26 27 26 25 23 23 21 20 18 17 17 19 20 21 19
15 21 27 32 31 30 28 29 30 30 29 29 28 28 28 30 32 32 32 33 32 30 29 27 28 28 26 25 26 26 24 22 22 21 20 20 19 19 18 20 19 20 19
28 26 22 23 28 27 25 28 35 37 34 34 34 33 32 33 32 34 33 33 32 32 29 27 26 26 25 24 24 24 23 22 21 20 20 20 19 18 18 19 18 19 20
24 24 24 25 26 26 25 24 22 25 26 27 29 32 34 35 37 37 37 34 33 32 28 24 25 26 25 25 24 23 22 22 21 20 19 20 20 20 19 18 19 19 20
31 29 28 27 28 28 29 29 29 30 31 32 33 35 36 36 36 36 37 36 35 33 29 24 24 25 25 24 24 24 23 21 21 19 19 19 18 18 18 19 20 21 23
30 33 32 28 26 27 29 30 31 32 33 34 35 37 39 40 40 39 39 38 36 33 32 29 25 26 27 27 26 25 24 22 21 20 19 19 19 19 19 18 19 20 19
32 31 29 26 27 27 27 28 28 29 30 31 32 33 35 37 38 38 37 36 33 31 31 28 29 29 28 28 26 24 24 23 23 22 21 20 20 23 23 25 25 24 23
28 32 34 32 29 28 29 30 30 29 30 30 30 30 30 30 29 29 27 27 27 27 29 30 31 28 28 27 27 25 23 24 23 23 23 22 21 21 21 23 26 27 27
28 26 28 33 34 32 30 29 29 30 30 29 28 27 26 25 25 26 26 26 28 31 32 29 26 27 28 28 27 27 26 25 25 25 24 24 24 22 23 26 28 28 26
23 24 24 27 28 31 31 29 27 26 26 26 25 24 23 24 24 25 27 27 27 27 27 27 26 26 27 28 29 28 27 26 27 27 27 27 26 25 25 26 27 28 30
23 24 26 25 26 25 23 23 22 22 22 22 21 21 21 21 21 22 22 23 23 23 23 23 22 22 23 23 24 23 23 24 26 28 29 29 29 29 29 28 27 30 31
22 21 20 21 21 24 25 22 21 19 18 17 17 18 18 18 18 19 19 19 20 20 20 20 20 21 21 22 22 22 22 22 23 25 27 30 32 32 33 33 32 31 32
22 21 21 21 21 22 21 22 23 22 22 22 21 20 19 18 18 19 19 19 20 20 21 22 22 23 23 23 24 24 25 25 26 27 29 29 29 30 32 34 35 36 35

GFSGL_700_spd_117.txt.gz
Wind_Speed
17 22 16 11 6 3 16 18 36 43 58 49 41 45 36 35 22 27 24 23 24 22 22 19 18 18 19 21 22 24 25 28 31 30 28 29 28 29 28 29 30 31 31
19 19 19 18 16 15 14 15 14 9 21 33 19 22 22 24 27 27 24 24 22 21 20 19 19 20 21 23 25 26 27 28 30 30 30 29 29 29 29 28 28 28 30
16 17 16 17 15 15 16 18 17 13 15 21 22 25 28 27 26 24 25 24 22 21 21 21 21 22 24 24 26 27 27 28 29 31 31 31 31 31 31 30 30 30 29
15 17 15 15 15 16 17 18 19 19 21 22 24 24 24 24 25 27 27 25 24 23 22 23 23 24 25 26 26 27 28 28 29 31 33 34 34 34 34 33 32 32 32
13 12 13 12 11 13 16 18 19 19 22 24 23 23 24 25 28 28 28 27 25 25 25 25 25 25 25 26 27 28 29 30 31 31 32 32 33 33 35 34 33 32 31
11 9 11 11 10 11 15 17 19 21 23 25 25 25 25 26 28 29 29 28 27 27 26 27 25 25 26 27 28 30 32 33 33 33 31 32 34 35 37 36 34 33 32
13 13 15 14 13 12 14 16 20 21 23 25 26 25 26 28 29 30 30 29 28 29 28 27 26 26 27 28 30 32 33 33 33 33 32 33 35 34 36 35 34 33 32
19 19 19 18 15 13 14 16 18 19 20 21 24 26 27 28 29 29 29 29 30 28 27 27 27 27 27 28 31 31 33 31 32 32 32 32 33 33 32 32 33 32 30
20 20 20 19 19 18 18 18 19 20 21 23 25 26 27 29 30 31 31 30 29 27 27 27 28 28 29 29 31 32 33 32 32 32 32 33 32 32 31 30 29 28 28
18 20 23 24 24 25 26 25 23 24 26 28 28 29 29 29 29 29 29 28 27 27 27 27 28 31 32 31 31 31 31 32 31 31 31 30 31 30 29 27 26 26 26
17 19 21 23 25 25 26 26 28 28 30 30 29 29 29 28 28 28 27 28 27 26 27 28 30 32 34 34 31 31 31 31 31 31 30 28 28 28 26 24 24 24 26
14 15 17 20 22 24 25 27 28 28 27 26 26 26 26 26 26 26 26 27 27 27 28 30 31 33 34 35 34 32 32 32 31 31 29 25 26 25 24 23 22 23 23
12 13 15 16 18 20 22 23 24 24 25 25 25 26 27 27 27 27 27 28 29 28 28 32 33 34 36 33 32 30 30 29 30 29 28 25 24 24 23 22 21 21 20
13 16 15 17 20 22 22 24 26 27 28 28 29 30 31 31 31 30 30 31 31 31 30 33 33 32 32 30 28 27 27 27 27 27 26 23 22 22 21 20 18 18 17
20 18 13 20 24 26 27 29 31 33 34 35 36 36 36 35 34 35 35 34 33 33 33 32 29 28 29 27 25 26 26 26 24 25 24 22 22 22 22 20 19 18 18
20 24 29 28 26 26 23 21 28 34 37 39 40 40 40 40 39 36 34 36 35 33 33 32 31 28 28 27 26 26 26 25 23 23 23 23 22 21 21 20 18 18 18
25 26 26 27 29 31 31 30 25 26 23 21 27 30 33 33 31 28 26 27 32 36 37 35 32 28 28 27 26 26 25 24 24 23 23 23 23 21 20 19 20 19 18
26 25 26 25 28 33 35 32 29 27 27 29 30 29 27 27 28 30 32 34 36 37 36 34 34 32 30 29 28 27 26 25 25 25 23 22 22 20 19 18 18 19 19
31 30 30 29 31 30 33 38 33 29 27 28 30 31 31 32 33 35 38 39 39 39 37 37 36 34 33 32 29 28 28 27 26 25 25 24 22 20 19 19 19 19 20
27 29 31 31 30 31 31 32 33 30 28 29 28 29 29 30 31 32 34 36 38 38 36 35 34 33 33 32 31 30 27 27 26 25 25 24 23 21 20 20 21 21 20
30 30 30 30 31 31 31 31 33 35 33 31 31 31 29 29 29 31 31 31 31 30 28 29 31 30 29 30 31 30 29 27 27 25 24 24 24 23 22 21 21 22 25
26 26 25 25 25 26 28 30 31 33 35 35 32 32 31 31 28 28 27 26 26 26 27 28 29 29 31 30 29 29 29 28 27 27 27 25 25 24 24 23 22 23 24
24 24 24 24 25 25 25 27 29 30 32 32 33 28 27 27 27 26 27 27 27 27 28 30 31 30 29 29 29 29 29 29 29 30 29 28 27 26 26 26 25 25 25
25 25 25 24 24 24 23 23 24 25 25 25 23 23 26 26 26 26 26 26 26 27 28 28 28 28 27 27 27 27 27 26 26 26 27 27 28 28 27 27 27 28 27
24 23 24 24 24 23 23 23 23 25 27 27 26 24 24 23 22 22 22 23 23 23 23 22 23 23 22 22 23 24 24 23 23 23 25 26 26 27 28 29 30 30 30
24 23 23 23 22 23 24 24 24 25 25 26 28 29 26 23 22 21 19 19 19 20 20 20 21 22 22 23 24 24 25 25 25 26 27 27 27 27 27 27 28 30 31